<?xml version="1.0" encoding="UTF-8" standalone="no" ?>
<gpx xmlns="http://www.topografix.com/GPX/1/1" xmlns:xsi="http://www.w3.org/2001/XMLSchema-instance" xsi:schemaLocation="http://www.topografix.com/GPX/1/1 http://www.topografix.com/GPX/1/1/gpx.xsd" version="1.1" creator="VisuGPX - https://www.visugpx.com">
  <metadata>
    <name>Champ de Feu 1</name>
    <desc><![CDATA[File with points/tracks from Locus Map/3.46.1]]></desc>
  </metadata>
  <trk>
    <name><![CDATA[2020-01-15 10:24:20]]></name>
    <extensions>
      <line xmlns="http://www.topografix.com/GPX/gpx_style/0/2">
        <color>0000FF</color>
        <opacity>0.59</opacity>
        <width>6.0</width>
      </line>
    </extensions>
    <trkseg>
      <trkpt lat="48.40691" lon="7.25931">
        <ele>998.2</ele>
        <time>2020-01-15T09:24:22.000Z</time>
      </trkpt>
      <trkpt lat="48.40691" lon="7.25932">
        <ele>997.27</ele>
        <time>2020-01-15T09:24:33.000Z</time>
      </trkpt>
      <trkpt lat="48.40694" lon="7.25944">
        <ele>996.2</ele>
        <time>2020-01-15T09:24:43.000Z</time>
      </trkpt>
      <trkpt lat="48.40694" lon="7.25948">
        <ele>997.2</ele>
        <time>2020-01-15T09:24:54.000Z</time>
      </trkpt>
      <trkpt lat="48.40692" lon="7.25961">
        <ele>996.2</ele>
        <time>2020-01-15T09:25:04.000Z</time>
      </trkpt>
      <trkpt lat="48.40687" lon="7.25974">
        <ele>997.2</ele>
        <time>2020-01-15T09:25:14.000Z</time>
      </trkpt>
      <trkpt lat="48.40685" lon="7.25986">
        <ele>998.2</ele>
        <time>2020-01-15T09:25:24.000Z</time>
      </trkpt>
      <trkpt lat="48.40686" lon="7.26001">
        <ele>998.2</ele>
        <time>2020-01-15T09:25:34.000Z</time>
      </trkpt>
      <trkpt lat="48.40681" lon="7.26013">
        <ele>999.14</ele>
        <time>2020-01-15T09:25:44.000Z</time>
      </trkpt>
      <trkpt lat="48.40675" lon="7.26016">
        <ele>998.2</ele>
        <time>2020-01-15T09:25:54.000Z</time>
      </trkpt>
      <trkpt lat="48.40674" lon="7.26018">
        <ele>997.45</ele>
        <time>2020-01-15T09:26:04.000Z</time>
      </trkpt>
      <trkpt lat="48.40664" lon="7.26021">
        <ele>999.89</ele>
        <time>2020-01-15T09:26:14.000Z</time>
      </trkpt>
      <trkpt lat="48.40652" lon="7.26024">
        <ele>1001.95</ele>
        <time>2020-01-15T09:26:24.000Z</time>
      </trkpt>
      <trkpt lat="48.40645" lon="7.26026">
        <ele>1002.2</ele>
        <time>2020-01-15T09:26:34.000Z</time>
      </trkpt>
      <trkpt lat="48.40637" lon="7.26028">
        <ele>1003.95</ele>
        <time>2020-01-15T09:26:44.000Z</time>
      </trkpt>
      <trkpt lat="48.40629" lon="7.26029">
        <ele>1005.2</ele>
        <time>2020-01-15T09:26:54.000Z</time>
      </trkpt>
      <trkpt lat="48.40619" lon="7.26028">
        <ele>1006.14</ele>
        <time>2020-01-15T09:27:04.000Z</time>
      </trkpt>
      <trkpt lat="48.40609" lon="7.26029">
        <ele>1006.2</ele>
        <time>2020-01-15T09:27:14.000Z</time>
      </trkpt>
      <trkpt lat="48.40602" lon="7.26021">
        <ele>1006.95</ele>
        <time>2020-01-15T09:27:24.000Z</time>
      </trkpt>
      <trkpt lat="48.40594" lon="7.26015">
        <ele>1007.95</ele>
        <time>2020-01-15T09:27:34.000Z</time>
      </trkpt>
      <trkpt lat="48.40587" lon="7.26012">
        <ele>1008.2</ele>
        <time>2020-01-15T09:27:44.000Z</time>
      </trkpt>
      <trkpt lat="48.40578" lon="7.26012">
        <ele>1008.19</ele>
        <time>2020-01-15T09:27:54.000Z</time>
      </trkpt>
      <trkpt lat="48.40575" lon="7.26022">
        <ele>1007.25</ele>
        <time>2020-01-15T09:28:04.000Z</time>
      </trkpt>
      <trkpt lat="48.40576" lon="7.26032">
        <ele>1007.14</ele>
        <time>2020-01-15T09:28:14.000Z</time>
      </trkpt>
      <trkpt lat="48.4057" lon="7.26043">
        <ele>1006.41</ele>
        <time>2020-01-15T09:28:24.000Z</time>
      </trkpt>
      <trkpt lat="48.40574" lon="7.26044">
        <ele>1005.27</ele>
        <time>2020-01-15T09:28:34.000Z</time>
      </trkpt>
      <trkpt lat="48.40574" lon="7.26042">
        <ele>1005.2</ele>
        <time>2020-01-15T09:28:49.000Z</time>
      </trkpt>
      <trkpt lat="48.40571" lon="7.26042">
        <ele>1006.2</ele>
        <time>2020-01-15T09:28:59.000Z</time>
      </trkpt>
      <trkpt lat="48.40573" lon="7.26042">
        <ele>1005.45</ele>
        <time>2020-01-15T09:29:24.000Z</time>
      </trkpt>
      <trkpt lat="48.40574" lon="7.26044">
        <ele>1004.2</ele>
        <time>2020-01-15T09:29:34.000Z</time>
      </trkpt>
      <trkpt lat="48.40576" lon="7.26048">
        <ele>1004.64</ele>
        <time>2020-01-15T09:29:44.000Z</time>
      </trkpt>
      <trkpt lat="48.40575" lon="7.26054">
        <ele>1004.2</ele>
        <time>2020-01-15T09:29:54.000Z</time>
      </trkpt>
      <trkpt lat="48.40575" lon="7.26062">
        <ele>1004.2</ele>
        <time>2020-01-15T09:30:04.000Z</time>
      </trkpt>
      <trkpt lat="48.40578" lon="7.26076">
        <ele>1006.2</ele>
        <time>2020-01-15T09:30:14.000Z</time>
      </trkpt>
      <trkpt lat="48.40581" lon="7.2609">
        <ele>1006.95</ele>
        <time>2020-01-15T09:30:24.000Z</time>
      </trkpt>
      <trkpt lat="48.40583" lon="7.26105">
        <ele>1009.19</ele>
        <time>2020-01-15T09:30:34.000Z</time>
      </trkpt>
      <trkpt lat="48.40587" lon="7.26115">
        <ele>1010.2</ele>
        <time>2020-01-15T09:30:44.000Z</time>
      </trkpt>
      <trkpt lat="48.4059" lon="7.26126">
        <ele>1008.21</ele>
        <time>2020-01-15T09:30:54.000Z</time>
      </trkpt>
      <trkpt lat="48.40589" lon="7.26135">
        <ele>1011.95</ele>
        <time>2020-01-15T09:31:04.000Z</time>
      </trkpt>
      <trkpt lat="48.4059" lon="7.26147">
        <ele>1014.21</ele>
        <time>2020-01-15T09:31:14.000Z</time>
      </trkpt>
      <trkpt lat="48.4059" lon="7.26154">
        <ele>1015.2</ele>
        <time>2020-01-15T09:31:24.000Z</time>
      </trkpt>
      <trkpt lat="48.40593" lon="7.26162">
        <ele>1017.2</ele>
        <time>2020-01-15T09:31:34.000Z</time>
      </trkpt>
      <trkpt lat="48.40593" lon="7.2617">
        <ele>1019.2</ele>
        <time>2020-01-15T09:31:44.000Z</time>
      </trkpt>
      <trkpt lat="48.4059" lon="7.26178">
        <ele>1020.95</ele>
        <time>2020-01-15T09:31:54.000Z</time>
      </trkpt>
      <trkpt lat="48.4058" lon="7.26187">
        <ele>1022.2</ele>
        <time>2020-01-15T09:32:04.000Z</time>
      </trkpt>
      <trkpt lat="48.40571" lon="7.26196">
        <ele>1023.22</ele>
        <time>2020-01-15T09:32:14.000Z</time>
      </trkpt>
      <trkpt lat="48.40564" lon="7.26203">
        <ele>1025.19</ele>
        <time>2020-01-15T09:32:24.000Z</time>
      </trkpt>
      <trkpt lat="48.40554" lon="7.26213">
        <ele>1026.2</ele>
        <time>2020-01-15T09:32:34.000Z</time>
      </trkpt>
      <trkpt lat="48.40545" lon="7.26219">
        <ele>1025.96</ele>
        <time>2020-01-15T09:32:44.000Z</time>
      </trkpt>
      <trkpt lat="48.40535" lon="7.26226">
        <ele>1027.19</ele>
        <time>2020-01-15T09:32:54.000Z</time>
      </trkpt>
      <trkpt lat="48.40529" lon="7.26237">
        <ele>1025.45</ele>
        <time>2020-01-15T09:33:04.000Z</time>
      </trkpt>
      <trkpt lat="48.40522" lon="7.26249">
        <ele>1027.19</ele>
        <time>2020-01-15T09:33:14.000Z</time>
      </trkpt>
      <trkpt lat="48.40513" lon="7.2626">
        <ele>1028.2</ele>
        <time>2020-01-15T09:33:24.000Z</time>
      </trkpt>
      <trkpt lat="48.40505" lon="7.26272">
        <ele>1029.14</ele>
        <time>2020-01-15T09:33:34.000Z</time>
      </trkpt>
      <trkpt lat="48.40501" lon="7.26287">
        <ele>1028.27</ele>
        <time>2020-01-15T09:33:44.000Z</time>
      </trkpt>
      <trkpt lat="48.40494" lon="7.26299">
        <ele>1031.95</ele>
        <time>2020-01-15T09:33:54.000Z</time>
      </trkpt>
      <trkpt lat="48.40487" lon="7.26312">
        <ele>1032.2</ele>
        <time>2020-01-15T09:34:04.000Z</time>
      </trkpt>
      <trkpt lat="48.40481" lon="7.26322">
        <ele>1031.22</ele>
        <time>2020-01-15T09:34:14.000Z</time>
      </trkpt>
      <trkpt lat="48.40476" lon="7.2633">
        <ele>1032.2</ele>
        <time>2020-01-15T09:34:24.000Z</time>
      </trkpt>
      <trkpt lat="48.4047" lon="7.26345">
        <ele>1033.2</ele>
        <time>2020-01-15T09:34:34.000Z</time>
      </trkpt>
      <trkpt lat="48.40466" lon="7.26357">
        <ele>1033.2</ele>
        <time>2020-01-15T09:34:44.000Z</time>
      </trkpt>
      <trkpt lat="48.40461" lon="7.2637">
        <ele>1034.22</ele>
        <time>2020-01-15T09:34:54.000Z</time>
      </trkpt>
      <trkpt lat="48.40453" lon="7.26383">
        <ele>1034.27</ele>
        <time>2020-01-15T09:35:04.000Z</time>
      </trkpt>
      <trkpt lat="48.40446" lon="7.26397">
        <ele>1035.2</ele>
        <time>2020-01-15T09:35:14.000Z</time>
      </trkpt>
      <trkpt lat="48.4044" lon="7.26411">
        <ele>1035.25</ele>
        <time>2020-01-15T09:35:24.000Z</time>
      </trkpt>
      <trkpt lat="48.40432" lon="7.26425">
        <ele>1036.19</ele>
        <time>2020-01-15T09:35:34.000Z</time>
      </trkpt>
      <trkpt lat="48.40424" lon="7.26439">
        <ele>1039.14</ele>
        <time>2020-01-15T09:35:44.000Z</time>
      </trkpt>
      <trkpt lat="48.40415" lon="7.26454">
        <ele>1041.2</ele>
        <time>2020-01-15T09:35:54.000Z</time>
      </trkpt>
      <trkpt lat="48.40411" lon="7.26466">
        <ele>1042.2</ele>
        <time>2020-01-15T09:36:04.000Z</time>
      </trkpt>
      <trkpt lat="48.40404" lon="7.26479">
        <ele>1042.44</ele>
        <time>2020-01-15T09:36:14.000Z</time>
      </trkpt>
      <trkpt lat="48.40398" lon="7.26494">
        <ele>1044.2</ele>
        <time>2020-01-15T09:36:24.000Z</time>
      </trkpt>
      <trkpt lat="48.40391" lon="7.26507">
        <ele>1044.2</ele>
        <time>2020-01-15T09:36:34.000Z</time>
      </trkpt>
      <trkpt lat="48.40386" lon="7.26519">
        <ele>1045.2</ele>
        <time>2020-01-15T09:36:44.000Z</time>
      </trkpt>
      <trkpt lat="48.40379" lon="7.26534">
        <ele>1045.2</ele>
        <time>2020-01-15T09:36:54.000Z</time>
      </trkpt>
      <trkpt lat="48.40373" lon="7.26548">
        <ele>1047.95</ele>
        <time>2020-01-15T09:37:04.000Z</time>
      </trkpt>
      <trkpt lat="48.40373" lon="7.26557">
        <ele>1048.2</ele>
        <time>2020-01-15T09:37:14.000Z</time>
      </trkpt>
      <trkpt lat="48.40371" lon="7.26567">
        <ele>1048.2</ele>
        <time>2020-01-15T09:37:24.000Z</time>
      </trkpt>
      <trkpt lat="48.40366" lon="7.26579">
        <ele>1048.22</ele>
        <time>2020-01-15T09:37:34.000Z</time>
      </trkpt>
      <trkpt lat="48.40362" lon="7.2659">
        <ele>1049.14</ele>
        <time>2020-01-15T09:37:44.000Z</time>
      </trkpt>
      <trkpt lat="48.40355" lon="7.266">
        <ele>1048.45</ele>
        <time>2020-01-15T09:37:54.000Z</time>
      </trkpt>
      <trkpt lat="48.40348" lon="7.26609">
        <ele>1048.2</ele>
        <time>2020-01-15T09:38:04.000Z</time>
      </trkpt>
      <trkpt lat="48.40339" lon="7.26624">
        <ele>1048.2</ele>
        <time>2020-01-15T09:38:14.000Z</time>
      </trkpt>
      <trkpt lat="48.40332" lon="7.26639">
        <ele>1049.2</ele>
        <time>2020-01-15T09:38:24.000Z</time>
      </trkpt>
      <trkpt lat="48.40324" lon="7.26654">
        <ele>1050.2</ele>
        <time>2020-01-15T09:38:34.000Z</time>
      </trkpt>
      <trkpt lat="48.40318" lon="7.26667">
        <ele>1051.2</ele>
        <time>2020-01-15T09:38:44.000Z</time>
      </trkpt>
      <trkpt lat="48.4031" lon="7.26681">
        <ele>1053.95</ele>
        <time>2020-01-15T09:38:54.000Z</time>
      </trkpt>
      <trkpt lat="48.40303" lon="7.26695">
        <ele>1055.25</ele>
        <time>2020-01-15T09:39:04.000Z</time>
      </trkpt>
      <trkpt lat="48.40296" lon="7.26709">
        <ele>1056.2</ele>
        <time>2020-01-15T09:39:14.000Z</time>
      </trkpt>
      <trkpt lat="48.40289" lon="7.26723">
        <ele>1056.22</ele>
        <time>2020-01-15T09:39:24.000Z</time>
      </trkpt>
      <trkpt lat="48.40284" lon="7.26736">
        <ele>1058.2</ele>
        <time>2020-01-15T09:39:34.000Z</time>
      </trkpt>
      <trkpt lat="48.4028" lon="7.26752">
        <ele>1058.2</ele>
        <time>2020-01-15T09:39:44.000Z</time>
      </trkpt>
      <trkpt lat="48.40276" lon="7.26766">
        <ele>1058.2</ele>
        <time>2020-01-15T09:39:54.000Z</time>
      </trkpt>
      <trkpt lat="48.4027" lon="7.26778">
        <ele>1059.95</ele>
        <time>2020-01-15T09:40:04.000Z</time>
      </trkpt>
      <trkpt lat="48.40263" lon="7.26788">
        <ele>1059.45</ele>
        <time>2020-01-15T09:40:14.000Z</time>
      </trkpt>
      <trkpt lat="48.40254" lon="7.26802">
        <ele>1060.2</ele>
        <time>2020-01-15T09:40:24.000Z</time>
      </trkpt>
      <trkpt lat="48.40248" lon="7.26816">
        <ele>1060.95</ele>
        <time>2020-01-15T09:40:34.000Z</time>
      </trkpt>
      <trkpt lat="48.40247" lon="7.26834">
        <ele>1063.14</ele>
        <time>2020-01-15T09:40:44.000Z</time>
      </trkpt>
      <trkpt lat="48.40246" lon="7.26849">
        <ele>1064.2</ele>
        <time>2020-01-15T09:40:54.000Z</time>
      </trkpt>
      <trkpt lat="48.4025" lon="7.26863">
        <ele>1065.2</ele>
        <time>2020-01-15T09:41:04.000Z</time>
      </trkpt>
      <trkpt lat="48.4025" lon="7.26866">
        <ele>1065.21</ele>
        <time>2020-01-15T09:41:14.000Z</time>
      </trkpt>
      <trkpt lat="48.4025" lon="7.26868">
        <ele>1065.95</ele>
        <time>2020-01-15T09:41:25.000Z</time>
      </trkpt>
      <trkpt lat="48.40248" lon="7.26869">
        <ele>1065.39</ele>
        <time>2020-01-15T09:41:53.000Z</time>
      </trkpt>
      <trkpt lat="48.40241" lon="7.2688">
        <ele>1067.19</ele>
        <time>2020-01-15T09:42:03.000Z</time>
      </trkpt>
      <trkpt lat="48.40234" lon="7.26886">
        <ele>1067.95</ele>
        <time>2020-01-15T09:42:13.000Z</time>
      </trkpt>
      <trkpt lat="48.40227" lon="7.269">
        <ele>1068.27</ele>
        <time>2020-01-15T09:42:23.000Z</time>
      </trkpt>
      <trkpt lat="48.40221" lon="7.26913">
        <ele>1068.95</ele>
        <time>2020-01-15T09:42:33.000Z</time>
      </trkpt>
      <trkpt lat="48.40219" lon="7.26914">
        <ele>1071.2</ele>
        <time>2020-01-15T09:42:43.000Z</time>
      </trkpt>
      <trkpt lat="48.40219" lon="7.26916">
        <ele>1071.95</ele>
        <time>2020-01-15T09:42:58.000Z</time>
      </trkpt>
      <trkpt lat="48.40218" lon="7.26924">
        <ele>1073</ele>
        <time>2020-01-15T09:43:08.000Z</time>
      </trkpt>
      <trkpt lat="48.40218" lon="7.26923">
        <ele>1076.2</ele>
        <time>2020-01-15T09:43:18.000Z</time>
      </trkpt>
      <trkpt lat="48.40218" lon="7.2692">
        <ele>1077.2</ele>
        <time>2020-01-15T09:43:37.000Z</time>
      </trkpt>
      <trkpt lat="48.40218" lon="7.26918">
        <ele>1077.39</ele>
        <time>2020-01-15T09:43:50.000Z</time>
      </trkpt>
      <trkpt lat="48.40217" lon="7.26918">
        <ele>1077.95</ele>
        <time>2020-01-15T09:44:09.000Z</time>
      </trkpt>
      <trkpt lat="48.40217" lon="7.26922">
        <ele>1075.7</ele>
        <time>2020-01-15T09:44:43.000Z</time>
      </trkpt>
      <trkpt lat="48.40217" lon="7.26925">
        <ele>1073.27</ele>
        <time>2020-01-15T09:44:53.000Z</time>
      </trkpt>
      <trkpt lat="48.40215" lon="7.26937">
        <ele>1071.22</ele>
        <time>2020-01-15T09:45:03.000Z</time>
      </trkpt>
      <trkpt lat="48.40217" lon="7.26954">
        <ele>1072.19</ele>
        <time>2020-01-15T09:45:13.000Z</time>
      </trkpt>
      <trkpt lat="48.40224" lon="7.26967">
        <ele>1073.2</ele>
        <time>2020-01-15T09:45:23.000Z</time>
      </trkpt>
      <trkpt lat="48.40237" lon="7.26974">
        <ele>1073.14</ele>
        <time>2020-01-15T09:45:33.000Z</time>
      </trkpt>
      <trkpt lat="48.40249" lon="7.26976">
        <ele>1073.45</ele>
        <time>2020-01-15T09:45:43.000Z</time>
      </trkpt>
      <trkpt lat="48.40263" lon="7.2698">
        <ele>1074.95</ele>
        <time>2020-01-15T09:45:53.000Z</time>
      </trkpt>
      <trkpt lat="48.40274" lon="7.26982">
        <ele>1075.45</ele>
        <time>2020-01-15T09:46:03.000Z</time>
      </trkpt>
      <trkpt lat="48.40287" lon="7.26985">
        <ele>1075.45</ele>
        <time>2020-01-15T09:46:13.000Z</time>
      </trkpt>
      <trkpt lat="48.40299" lon="7.26987">
        <ele>1074.45</ele>
        <time>2020-01-15T09:46:23.000Z</time>
      </trkpt>
      <trkpt lat="48.40312" lon="7.26988">
        <ele>1074.19</ele>
        <time>2020-01-15T09:46:33.000Z</time>
      </trkpt>
      <trkpt lat="48.40324" lon="7.26986">
        <ele>1075.19</ele>
        <time>2020-01-15T09:46:43.000Z</time>
      </trkpt>
      <trkpt lat="48.40337" lon="7.26985">
        <ele>1075.2</ele>
        <time>2020-01-15T09:46:53.000Z</time>
      </trkpt>
      <trkpt lat="48.40348" lon="7.26983">
        <ele>1076.2</ele>
        <time>2020-01-15T09:47:03.000Z</time>
      </trkpt>
      <trkpt lat="48.4036" lon="7.26984">
        <ele>1077.21</ele>
        <time>2020-01-15T09:47:13.000Z</time>
      </trkpt>
      <trkpt lat="48.40372" lon="7.26983">
        <ele>1077.19</ele>
        <time>2020-01-15T09:47:23.000Z</time>
      </trkpt>
      <trkpt lat="48.40383" lon="7.26981">
        <ele>1077.19</ele>
        <time>2020-01-15T09:47:33.000Z</time>
      </trkpt>
      <trkpt lat="48.40394" lon="7.2698">
        <ele>1077.21</ele>
        <time>2020-01-15T09:47:43.000Z</time>
      </trkpt>
      <trkpt lat="48.40401" lon="7.26981">
        <ele>1076.2</ele>
        <time>2020-01-15T09:47:53.000Z</time>
      </trkpt>
      <trkpt lat="48.40413" lon="7.26984">
        <ele>1077.21</ele>
        <time>2020-01-15T09:48:03.000Z</time>
      </trkpt>
      <trkpt lat="48.40426" lon="7.26982">
        <ele>1078.46</ele>
        <time>2020-01-15T09:48:13.000Z</time>
      </trkpt>
      <trkpt lat="48.40436" lon="7.26982">
        <ele>1079.02</ele>
        <time>2020-01-15T09:48:23.000Z</time>
      </trkpt>
      <trkpt lat="48.40448" lon="7.26983">
        <ele>1080.26</ele>
        <time>2020-01-15T09:48:33.000Z</time>
      </trkpt>
      <trkpt lat="48.40456" lon="7.26983">
        <ele>1079.21</ele>
        <time>2020-01-15T09:48:43.000Z</time>
      </trkpt>
      <trkpt lat="48.40468" lon="7.26984">
        <ele>1079.96</ele>
        <time>2020-01-15T09:48:53.000Z</time>
      </trkpt>
      <trkpt lat="48.40479" lon="7.26988">
        <ele>1079.2</ele>
        <time>2020-01-15T09:49:03.000Z</time>
      </trkpt>
      <trkpt lat="48.40491" lon="7.26991">
        <ele>1078.21</ele>
        <time>2020-01-15T09:49:13.000Z</time>
      </trkpt>
      <trkpt lat="48.405" lon="7.26993">
        <ele>1076.22</ele>
        <time>2020-01-15T09:49:23.000Z</time>
      </trkpt>
      <trkpt lat="48.4051" lon="7.26997">
        <ele>1075.27</ele>
        <time>2020-01-15T09:49:33.000Z</time>
      </trkpt>
      <trkpt lat="48.40519" lon="7.27001">
        <ele>1074.21</ele>
        <time>2020-01-15T09:49:43.000Z</time>
      </trkpt>
      <trkpt lat="48.40531" lon="7.27006">
        <ele>1073.46</ele>
        <time>2020-01-15T09:49:53.000Z</time>
      </trkpt>
      <trkpt lat="48.40541" lon="7.27012">
        <ele>1073.22</ele>
        <time>2020-01-15T09:50:03.000Z</time>
      </trkpt>
      <trkpt lat="48.40553" lon="7.27019">
        <ele>1072.21</ele>
        <time>2020-01-15T09:50:13.000Z</time>
      </trkpt>
      <trkpt lat="48.40562" lon="7.27024">
        <ele>1074.21</ele>
        <time>2020-01-15T09:50:23.000Z</time>
      </trkpt>
      <trkpt lat="48.40572" lon="7.27032">
        <ele>1072.41</ele>
        <time>2020-01-15T09:50:33.000Z</time>
      </trkpt>
      <trkpt lat="48.40584" lon="7.27038">
        <ele>1074.21</ele>
        <time>2020-01-15T09:50:43.000Z</time>
      </trkpt>
      <trkpt lat="48.40595" lon="7.27044">
        <ele>1071.46</ele>
        <time>2020-01-15T09:50:53.000Z</time>
      </trkpt>
      <trkpt lat="48.40606" lon="7.27044">
        <ele>1070.27</ele>
        <time>2020-01-15T09:51:03.000Z</time>
      </trkpt>
      <trkpt lat="48.40612" lon="7.2704">
        <ele>1071.21</ele>
        <time>2020-01-15T09:51:13.000Z</time>
      </trkpt>
      <trkpt lat="48.40613" lon="7.2704">
        <ele>1065.46</ele>
        <time>2020-01-15T09:51:30.000Z</time>
      </trkpt>
      <trkpt lat="48.40615" lon="7.27039">
        <ele>1066.21</ele>
        <time>2020-01-15T09:51:40.000Z</time>
      </trkpt>
      <trkpt lat="48.40614" lon="7.27038">
        <ele>1067.71</ele>
        <time>2020-01-15T09:52:02.000Z</time>
      </trkpt>
      <trkpt lat="48.40612" lon="7.27039">
        <ele>1069.15</ele>
        <time>2020-01-15T09:52:25.000Z</time>
      </trkpt>
      <trkpt lat="48.4061" lon="7.27038">
        <ele>1070.15</ele>
        <time>2020-01-15T09:52:35.000Z</time>
      </trkpt>
      <trkpt lat="48.40608" lon="7.27037">
        <ele>1071.21</ele>
        <time>2020-01-15T09:52:45.000Z</time>
      </trkpt>
      <trkpt lat="48.40609" lon="7.27037">
        <ele>1069.71</ele>
        <time>2020-01-15T09:53:02.000Z</time>
      </trkpt>
      <trkpt lat="48.40612" lon="7.27045">
        <ele>1069.96</ele>
        <time>2020-01-15T09:53:12.000Z</time>
      </trkpt>
      <trkpt lat="48.4062" lon="7.27056">
        <ele>1068.22</ele>
        <time>2020-01-15T09:53:22.000Z</time>
      </trkpt>
      <trkpt lat="48.40631" lon="7.27064">
        <ele>1068.96</ele>
        <time>2020-01-15T09:53:32.000Z</time>
      </trkpt>
      <trkpt lat="48.40641" lon="7.27073">
        <ele>1068.46</ele>
        <time>2020-01-15T09:53:42.000Z</time>
      </trkpt>
      <trkpt lat="48.40651" lon="7.27081">
        <ele>1066.27</ele>
        <time>2020-01-15T09:53:52.000Z</time>
      </trkpt>
      <trkpt lat="48.40662" lon="7.27087">
        <ele>1065.21</ele>
        <time>2020-01-15T09:54:02.000Z</time>
      </trkpt>
      <trkpt lat="48.4067" lon="7.27096">
        <ele>1065.22</ele>
        <time>2020-01-15T09:54:12.000Z</time>
      </trkpt>
      <trkpt lat="48.4068" lon="7.27106">
        <ele>1065.21</ele>
        <time>2020-01-15T09:54:22.000Z</time>
      </trkpt>
      <trkpt lat="48.40688" lon="7.27112">
        <ele>1062.22</ele>
        <time>2020-01-15T09:54:32.000Z</time>
      </trkpt>
      <trkpt lat="48.40697" lon="7.27121">
        <ele>1062.19</ele>
        <time>2020-01-15T09:54:42.000Z</time>
      </trkpt>
      <trkpt lat="48.40705" lon="7.27131">
        <ele>1060.46</ele>
        <time>2020-01-15T09:54:52.000Z</time>
      </trkpt>
      <trkpt lat="48.40714" lon="7.27142">
        <ele>1060.46</ele>
        <time>2020-01-15T09:55:02.000Z</time>
      </trkpt>
      <trkpt lat="48.40723" lon="7.27155">
        <ele>1061.21</ele>
        <time>2020-01-15T09:55:12.000Z</time>
      </trkpt>
      <trkpt lat="48.40731" lon="7.27168">
        <ele>1061.46</ele>
        <time>2020-01-15T09:55:22.000Z</time>
      </trkpt>
      <trkpt lat="48.40738" lon="7.27181">
        <ele>1060.27</ele>
        <time>2020-01-15T09:55:32.000Z</time>
      </trkpt>
      <trkpt lat="48.40745" lon="7.27195">
        <ele>1059.21</ele>
        <time>2020-01-15T09:55:42.000Z</time>
      </trkpt>
      <trkpt lat="48.40754" lon="7.27193">
        <ele>1058.21</ele>
        <time>2020-01-15T09:55:52.000Z</time>
      </trkpt>
      <trkpt lat="48.40764" lon="7.27196">
        <ele>1057.23</ele>
        <time>2020-01-15T09:56:02.000Z</time>
      </trkpt>
      <trkpt lat="48.40776" lon="7.27202">
        <ele>1057.21</ele>
        <time>2020-01-15T09:56:12.000Z</time>
      </trkpt>
      <trkpt lat="48.40785" lon="7.27201">
        <ele>1057.46</ele>
        <time>2020-01-15T09:56:22.000Z</time>
      </trkpt>
      <trkpt lat="48.40794" lon="7.27209">
        <ele>1056.21</ele>
        <time>2020-01-15T09:56:32.000Z</time>
      </trkpt>
      <trkpt lat="48.408" lon="7.27198">
        <ele>1057.21</ele>
        <time>2020-01-15T09:56:42.000Z</time>
      </trkpt>
      <trkpt lat="48.40803" lon="7.27193">
        <ele>1056.27</ele>
        <time>2020-01-15T09:56:52.000Z</time>
      </trkpt>
      <trkpt lat="48.40804" lon="7.27185">
        <ele>1056.15</ele>
        <time>2020-01-15T09:57:02.000Z</time>
      </trkpt>
      <trkpt lat="48.40803" lon="7.27183">
        <ele>1056.21</ele>
        <time>2020-01-15T09:57:35.000Z</time>
      </trkpt>
      <trkpt lat="48.40805" lon="7.2717">
        <ele>1055.21</ele>
        <time>2020-01-15T09:57:45.000Z</time>
      </trkpt>
      <trkpt lat="48.40806" lon="7.27169">
        <ele>1055.21</ele>
        <time>2020-01-15T09:58:06.000Z</time>
      </trkpt>
      <trkpt lat="48.40809" lon="7.27157">
        <ele>1055.21</ele>
        <time>2020-01-15T09:58:16.000Z</time>
      </trkpt>
      <trkpt lat="48.40813" lon="7.27143">
        <ele>1055.21</ele>
        <time>2020-01-15T09:58:26.000Z</time>
      </trkpt>
      <trkpt lat="48.40817" lon="7.2713">
        <ele>1053.23</ele>
        <time>2020-01-15T09:58:36.000Z</time>
      </trkpt>
      <trkpt lat="48.40823" lon="7.27117">
        <ele>1052.21</ele>
        <time>2020-01-15T09:58:46.000Z</time>
      </trkpt>
      <trkpt lat="48.40822" lon="7.27114">
        <ele>1054.21</ele>
        <time>2020-01-15T09:58:56.000Z</time>
      </trkpt>
      <trkpt lat="48.40822" lon="7.27116">
        <ele>1053.46</ele>
        <time>2020-01-15T09:59:07.000Z</time>
      </trkpt>
      <trkpt lat="48.40823" lon="7.27114">
        <ele>1052.02</ele>
        <time>2020-01-15T09:59:24.000Z</time>
      </trkpt>
      <trkpt lat="48.40828" lon="7.27103">
        <ele>1051.27</ele>
        <time>2020-01-15T09:59:34.000Z</time>
      </trkpt>
      <trkpt lat="48.40832" lon="7.27096">
        <ele>1051.15</ele>
        <time>2020-01-15T09:59:44.000Z</time>
      </trkpt>
      <trkpt lat="48.40836" lon="7.27087">
        <ele>1050.23</ele>
        <time>2020-01-15T09:59:54.000Z</time>
      </trkpt>
      <trkpt lat="48.40842" lon="7.27075">
        <ele>1048.23</ele>
        <time>2020-01-15T10:00:04.000Z</time>
      </trkpt>
      <trkpt lat="48.40847" lon="7.27063">
        <ele>1048.21</ele>
        <time>2020-01-15T10:00:14.000Z</time>
      </trkpt>
      <trkpt lat="48.4085" lon="7.27053">
        <ele>1046.27</ele>
        <time>2020-01-15T10:00:24.000Z</time>
      </trkpt>
      <trkpt lat="48.40847" lon="7.27054">
        <ele>1047.21</ele>
        <time>2020-01-15T10:00:34.000Z</time>
      </trkpt>
      <trkpt lat="48.40847" lon="7.27052">
        <ele>1045.21</ele>
        <time>2020-01-15T10:00:44.000Z</time>
      </trkpt>
      <trkpt lat="48.40848" lon="7.27053">
        <ele>1045.21</ele>
        <time>2020-01-15T10:01:12.000Z</time>
      </trkpt>
      <trkpt lat="48.40856" lon="7.27045">
        <ele>1045.21</ele>
        <time>2020-01-15T10:01:22.000Z</time>
      </trkpt>
      <trkpt lat="48.40863" lon="7.2703">
        <ele>1045.21</ele>
        <time>2020-01-15T10:01:32.000Z</time>
      </trkpt>
      <trkpt lat="48.40869" lon="7.27017">
        <ele>1043.27</ele>
        <time>2020-01-15T10:01:42.000Z</time>
      </trkpt>
      <trkpt lat="48.40876" lon="7.27006">
        <ele>1041.21</ele>
        <time>2020-01-15T10:01:52.000Z</time>
      </trkpt>
      <trkpt lat="48.40884" lon="7.26993">
        <ele>1039.23</ele>
        <time>2020-01-15T10:02:02.000Z</time>
      </trkpt>
      <trkpt lat="48.4089" lon="7.26982">
        <ele>1037.27</ele>
        <time>2020-01-15T10:02:12.000Z</time>
      </trkpt>
      <trkpt lat="48.40897" lon="7.2697">
        <ele>1036.21</ele>
        <time>2020-01-15T10:02:22.000Z</time>
      </trkpt>
      <trkpt lat="48.40903" lon="7.26956">
        <ele>1035.23</ele>
        <time>2020-01-15T10:02:32.000Z</time>
      </trkpt>
      <trkpt lat="48.40909" lon="7.26946">
        <ele>1033.23</ele>
        <time>2020-01-15T10:02:42.000Z</time>
      </trkpt>
      <trkpt lat="48.40917" lon="7.26934">
        <ele>1031.26</ele>
        <time>2020-01-15T10:02:52.000Z</time>
      </trkpt>
      <trkpt lat="48.40924" lon="7.26922">
        <ele>1029.26</ele>
        <time>2020-01-15T10:03:02.000Z</time>
      </trkpt>
      <trkpt lat="48.40931" lon="7.26909">
        <ele>1027.21</ele>
        <time>2020-01-15T10:03:12.000Z</time>
      </trkpt>
      <trkpt lat="48.40938" lon="7.26895">
        <ele>1025.46</ele>
        <time>2020-01-15T10:03:22.000Z</time>
      </trkpt>
      <trkpt lat="48.40945" lon="7.26883">
        <ele>1023.27</ele>
        <time>2020-01-15T10:03:32.000Z</time>
      </trkpt>
      <trkpt lat="48.40953" lon="7.2687">
        <ele>1022.46</ele>
        <time>2020-01-15T10:03:42.000Z</time>
      </trkpt>
      <trkpt lat="48.40962" lon="7.26862">
        <ele>1020.21</ele>
        <time>2020-01-15T10:03:52.000Z</time>
      </trkpt>
      <trkpt lat="48.40971" lon="7.26855">
        <ele>1019.21</ele>
        <time>2020-01-15T10:04:02.000Z</time>
      </trkpt>
      <trkpt lat="48.40978" lon="7.26846">
        <ele>1017.23</ele>
        <time>2020-01-15T10:04:12.000Z</time>
      </trkpt>
      <trkpt lat="48.40986" lon="7.26832">
        <ele>1015.23</ele>
        <time>2020-01-15T10:04:22.000Z</time>
      </trkpt>
      <trkpt lat="48.40992" lon="7.26817">
        <ele>1013.26</ele>
        <time>2020-01-15T10:04:32.000Z</time>
      </trkpt>
      <trkpt lat="48.40997" lon="7.26802">
        <ele>1012.96</ele>
        <time>2020-01-15T10:04:42.000Z</time>
      </trkpt>
      <trkpt lat="48.41002" lon="7.26787">
        <ele>1010.21</ele>
        <time>2020-01-15T10:04:52.000Z</time>
      </trkpt>
      <trkpt lat="48.41" lon="7.2677">
        <ele>1009.23</ele>
        <time>2020-01-15T10:05:02.000Z</time>
      </trkpt>
      <trkpt lat="48.41002" lon="7.26767">
        <ele>1006.21</ele>
        <time>2020-01-15T10:05:12.000Z</time>
      </trkpt>
      <trkpt lat="48.41001" lon="7.26758">
        <ele>1006.96</ele>
        <time>2020-01-15T10:05:22.000Z</time>
      </trkpt>
      <trkpt lat="48.41001" lon="7.26757">
        <ele>1010.02</ele>
        <time>2020-01-15T10:05:38.000Z</time>
      </trkpt>
      <trkpt lat="48.41001" lon="7.26759">
        <ele>1009.46</ele>
        <time>2020-01-15T10:06:41.000Z</time>
      </trkpt>
      <trkpt lat="48.41002" lon="7.26761">
        <ele>1009.21</ele>
        <time>2020-01-15T10:06:51.000Z</time>
      </trkpt>
      <trkpt lat="48.41001" lon="7.2676">
        <ele>1008.27</ele>
        <time>2020-01-15T10:08:39.000Z</time>
      </trkpt>
      <trkpt lat="48.41005" lon="7.26759">
        <ele>1009.21</ele>
        <time>2020-01-15T10:08:49.000Z</time>
      </trkpt>
      <trkpt lat="48.41001" lon="7.2676">
        <ele>1009.21</ele>
        <time>2020-01-15T10:09:32.000Z</time>
      </trkpt>
      <trkpt lat="48.41003" lon="7.26757">
        <ele>1011.21</ele>
        <time>2020-01-15T10:09:42.000Z</time>
      </trkpt>
      <trkpt lat="48.41004" lon="7.26763">
        <ele>1009.46</ele>
        <time>2020-01-15T10:09:52.000Z</time>
      </trkpt>
      <trkpt lat="48.41001" lon="7.26763">
        <ele>1008.21</ele>
        <time>2020-01-15T10:10:02.000Z</time>
      </trkpt>
      <trkpt lat="48.41002" lon="7.26757">
        <ele>1008.15</ele>
        <time>2020-01-15T10:10:12.000Z</time>
      </trkpt>
      <trkpt lat="48.41003" lon="7.26753">
        <ele>1008.26</ele>
        <time>2020-01-15T10:10:22.000Z</time>
      </trkpt>
      <trkpt lat="48.40998" lon="7.26764">
        <ele>1007.21</ele>
        <time>2020-01-15T10:10:33.000Z</time>
      </trkpt>
      <trkpt lat="48.40982" lon="7.26763">
        <ele>1010.16</ele>
        <time>2020-01-15T10:11:05.000Z</time>
      </trkpt>
      <trkpt lat="48.40989" lon="7.26762">
        <ele>1016.44</ele>
        <time>2020-01-15T10:11:15.000Z</time>
      </trkpt>
      <trkpt lat="48.40995" lon="7.26762">
        <ele>1013.21</ele>
        <time>2020-01-15T10:11:25.000Z</time>
      </trkpt>
      <trkpt lat="48.41007" lon="7.26773">
        <ele>1011.46</ele>
        <time>2020-01-15T10:11:35.000Z</time>
      </trkpt>
      <trkpt lat="48.41011" lon="7.26772">
        <ele>1010.74</ele>
        <time>2020-01-15T10:11:45.000Z</time>
      </trkpt>
      <trkpt lat="48.41021" lon="7.26776">
        <ele>1010.28</ele>
        <time>2020-01-15T10:11:55.000Z</time>
      </trkpt>
      <trkpt lat="48.41019" lon="7.26773">
        <ele>1007.46</ele>
        <time>2020-01-15T10:12:05.000Z</time>
      </trkpt>
      <trkpt lat="48.41026" lon="7.26768">
        <ele>1007.22</ele>
        <time>2020-01-15T10:12:15.000Z</time>
      </trkpt>
      <trkpt lat="48.41025" lon="7.2677">
        <ele>1011.86</ele>
        <time>2020-01-15T10:12:25.000Z</time>
      </trkpt>
      <trkpt lat="48.41015" lon="7.26773">
        <ele>1012.21</ele>
        <time>2020-01-15T10:12:35.000Z</time>
      </trkpt>
      <trkpt lat="48.41015" lon="7.26776">
        <ele>1012.21</ele>
        <time>2020-01-15T10:12:45.000Z</time>
      </trkpt>
      <trkpt lat="48.41014" lon="7.26767">
        <ele>1012.21</ele>
        <time>2020-01-15T10:12:55.000Z</time>
      </trkpt>
      <trkpt lat="48.41011" lon="7.26774">
        <ele>1010.46</ele>
        <time>2020-01-15T10:13:05.000Z</time>
      </trkpt>
      <trkpt lat="48.4101" lon="7.26775">
        <ele>1009.46</ele>
        <time>2020-01-15T10:13:17.000Z</time>
      </trkpt>
      <trkpt lat="48.41018" lon="7.26775">
        <ele>1007.03</ele>
        <time>2020-01-15T10:13:27.000Z</time>
      </trkpt>
      <trkpt lat="48.41018" lon="7.26771">
        <ele>1003.17</ele>
        <time>2020-01-15T10:13:37.000Z</time>
      </trkpt>
      <trkpt lat="48.41009" lon="7.26768">
        <ele>1003.21</ele>
        <time>2020-01-15T10:13:47.000Z</time>
      </trkpt>
      <trkpt lat="48.41011" lon="7.26768">
        <ele>1001.21</ele>
        <time>2020-01-15T10:13:57.000Z</time>
      </trkpt>
      <trkpt lat="48.41009" lon="7.2677">
        <ele>1001.21</ele>
        <time>2020-01-15T10:14:07.000Z</time>
      </trkpt>
      <trkpt lat="48.41008" lon="7.26767">
        <ele>999.46</ele>
        <time>2020-01-15T10:14:17.000Z</time>
      </trkpt>
      <trkpt lat="48.4101" lon="7.26767">
        <ele>1000.21</ele>
        <time>2020-01-15T10:14:27.000Z</time>
      </trkpt>
      <trkpt lat="48.41005" lon="7.26766">
        <ele>1000.21</ele>
        <time>2020-01-15T10:14:48.000Z</time>
      </trkpt>
      <trkpt lat="48.41" lon="7.26762">
        <ele>1003.21</ele>
        <time>2020-01-15T10:14:58.000Z</time>
      </trkpt>
      <trkpt lat="48.41" lon="7.2676">
        <ele>1007.21</ele>
        <time>2020-01-15T10:15:54.000Z</time>
      </trkpt>
      <trkpt lat="48.41001" lon="7.26761">
        <ele>1009.19</ele>
        <time>2020-01-15T10:16:04.000Z</time>
      </trkpt>
      <trkpt lat="48.41" lon="7.26763">
        <ele>1008.16</ele>
        <time>2020-01-15T10:16:14.000Z</time>
      </trkpt>
      <trkpt lat="48.41002" lon="7.26765">
        <ele>1008.21</ele>
        <time>2020-01-15T10:16:24.000Z</time>
      </trkpt>
      <trkpt lat="48.41005" lon="7.26769">
        <ele>1010.13</ele>
        <time>2020-01-15T10:16:34.000Z</time>
      </trkpt>
      <trkpt lat="48.41003" lon="7.26765">
        <ele>1010.15</ele>
        <time>2020-01-15T10:16:44.000Z</time>
      </trkpt>
      <trkpt lat="48.41012" lon="7.26769">
        <ele>1009.21</ele>
        <time>2020-01-15T10:16:54.000Z</time>
      </trkpt>
      <trkpt lat="48.41019" lon="7.26774">
        <ele>1011.2</ele>
        <time>2020-01-15T10:17:04.000Z</time>
      </trkpt>
      <trkpt lat="48.41026" lon="7.26784">
        <ele>1010.21</ele>
        <time>2020-01-15T10:17:14.000Z</time>
      </trkpt>
      <trkpt lat="48.41028" lon="7.26792">
        <ele>1012.21</ele>
        <time>2020-01-15T10:17:24.000Z</time>
      </trkpt>
      <trkpt lat="48.41035" lon="7.26801">
        <ele>1012.21</ele>
        <time>2020-01-15T10:17:34.000Z</time>
      </trkpt>
      <trkpt lat="48.41039" lon="7.26813">
        <ele>1012.2</ele>
        <time>2020-01-15T10:17:44.000Z</time>
      </trkpt>
      <trkpt lat="48.41043" lon="7.26824">
        <ele>1015.19</ele>
        <time>2020-01-15T10:17:54.000Z</time>
      </trkpt>
      <trkpt lat="48.41046" lon="7.26835">
        <ele>1016.15</ele>
        <time>2020-01-15T10:18:04.000Z</time>
      </trkpt>
      <trkpt lat="48.4105" lon="7.26843">
        <ele>1020.13</ele>
        <time>2020-01-15T10:18:14.000Z</time>
      </trkpt>
      <trkpt lat="48.41052" lon="7.26843">
        <ele>1021.21</ele>
        <time>2020-01-15T10:18:59.000Z</time>
      </trkpt>
      <trkpt lat="48.41053" lon="7.26845">
        <ele>1021.21</ele>
        <time>2020-01-15T10:19:09.000Z</time>
      </trkpt>
      <trkpt lat="48.41055" lon="7.26849">
        <ele>1019.23</ele>
        <time>2020-01-15T10:19:19.000Z</time>
      </trkpt>
      <trkpt lat="48.41056" lon="7.26851">
        <ele>1019.27</ele>
        <time>2020-01-15T10:19:29.000Z</time>
      </trkpt>
      <trkpt lat="48.41057" lon="7.26851">
        <ele>1019.02</ele>
        <time>2020-01-15T10:19:44.000Z</time>
      </trkpt>
      <trkpt lat="48.41059" lon="7.26852">
        <ele>1018.21</ele>
        <time>2020-01-15T10:19:54.000Z</time>
      </trkpt>
      <trkpt lat="48.4106" lon="7.26854">
        <ele>1020.21</ele>
        <time>2020-01-15T10:20:04.000Z</time>
      </trkpt>
      <trkpt lat="48.4106" lon="7.26855">
        <ele>1020.96</ele>
        <time>2020-01-15T10:20:31.000Z</time>
      </trkpt>
      <trkpt lat="48.41063" lon="7.26862">
        <ele>1022.21</ele>
        <time>2020-01-15T10:20:41.000Z</time>
      </trkpt>
      <trkpt lat="48.41068" lon="7.26866">
        <ele>1022.02</ele>
        <time>2020-01-15T10:20:51.000Z</time>
      </trkpt>
      <trkpt lat="48.41067" lon="7.26868">
        <ele>1023.91</ele>
        <time>2020-01-15T10:21:06.000Z</time>
      </trkpt>
      <trkpt lat="48.4107" lon="7.26872">
        <ele>1025.21</ele>
        <time>2020-01-15T10:21:16.000Z</time>
      </trkpt>
      <trkpt lat="48.41076" lon="7.26879">
        <ele>1023.23</ele>
        <time>2020-01-15T10:21:26.000Z</time>
      </trkpt>
      <trkpt lat="48.41081" lon="7.26889">
        <ele>1023.15</ele>
        <time>2020-01-15T10:21:36.000Z</time>
      </trkpt>
      <trkpt lat="48.41083" lon="7.26896">
        <ele>1025.2</ele>
        <time>2020-01-15T10:21:46.000Z</time>
      </trkpt>
      <trkpt lat="48.41085" lon="7.26899">
        <ele>1024.21</ele>
        <time>2020-01-15T10:21:56.000Z</time>
      </trkpt>
      <trkpt lat="48.4109" lon="7.26909">
        <ele>1024.96</ele>
        <time>2020-01-15T10:22:06.000Z</time>
      </trkpt>
      <trkpt lat="48.41092" lon="7.26913">
        <ele>1024.21</ele>
        <time>2020-01-15T10:22:16.000Z</time>
      </trkpt>
      <trkpt lat="48.41091" lon="7.26915">
        <ele>1024.96</ele>
        <time>2020-01-15T10:22:26.000Z</time>
      </trkpt>
      <trkpt lat="48.41096" lon="7.26917">
        <ele>1024.21</ele>
        <time>2020-01-15T10:22:36.000Z</time>
      </trkpt>
      <trkpt lat="48.41097" lon="7.26916">
        <ele>1023.22</ele>
        <time>2020-01-15T10:22:46.000Z</time>
      </trkpt>
      <trkpt lat="48.41094" lon="7.26916">
        <ele>1026.21</ele>
        <time>2020-01-15T10:22:56.000Z</time>
      </trkpt>
      <trkpt lat="48.41095" lon="7.26917">
        <ele>1027.13</ele>
        <time>2020-01-15T10:23:07.000Z</time>
      </trkpt>
      <trkpt lat="48.41092" lon="7.26919">
        <ele>1025.46</ele>
        <time>2020-01-15T10:23:17.000Z</time>
      </trkpt>
      <trkpt lat="48.41095" lon="7.26917">
        <ele>1025.28</ele>
        <time>2020-01-15T10:23:27.000Z</time>
      </trkpt>
      <trkpt lat="48.41092" lon="7.26917">
        <ele>1026.22</ele>
        <time>2020-01-15T10:23:37.000Z</time>
      </trkpt>
      <trkpt lat="48.41091" lon="7.26918">
        <ele>1025.21</ele>
        <time>2020-01-15T10:23:47.000Z</time>
      </trkpt>
      <trkpt lat="48.41092" lon="7.26918">
        <ele>1026.15</ele>
        <time>2020-01-15T10:23:57.000Z</time>
      </trkpt>
      <trkpt lat="48.41092" lon="7.26919">
        <ele>1028.25</ele>
        <time>2020-01-15T10:24:10.000Z</time>
      </trkpt>
      <trkpt lat="48.41092" lon="7.2692">
        <ele>1025.28</ele>
        <time>2020-01-15T10:24:21.000Z</time>
      </trkpt>
      <trkpt lat="48.41093" lon="7.26919">
        <ele>1025.22</ele>
        <time>2020-01-15T10:24:39.000Z</time>
      </trkpt>
      <trkpt lat="48.41093" lon="7.26919">
        <ele>1024.21</ele>
        <time>2020-01-15T10:24:50.000Z</time>
      </trkpt>
      <trkpt lat="48.41093" lon="7.26916">
        <ele>1025.27</ele>
        <time>2020-01-15T10:25:00.000Z</time>
      </trkpt>
      <trkpt lat="48.4109" lon="7.26919">
        <ele>1027.21</ele>
        <time>2020-01-15T10:25:10.000Z</time>
      </trkpt>
      <trkpt lat="48.41092" lon="7.26916">
        <ele>1027.21</ele>
        <time>2020-01-15T10:25:20.000Z</time>
      </trkpt>
      <trkpt lat="48.41093" lon="7.26914">
        <ele>1027.15</ele>
        <time>2020-01-15T10:25:30.000Z</time>
      </trkpt>
      <trkpt lat="48.41088" lon="7.26916">
        <ele>1027.21</ele>
        <time>2020-01-15T10:25:40.000Z</time>
      </trkpt>
      <trkpt lat="48.41089" lon="7.26916">
        <ele>1026.46</ele>
        <time>2020-01-15T10:25:50.000Z</time>
      </trkpt>
      <trkpt lat="48.41093" lon="7.26914">
        <ele>1026.22</ele>
        <time>2020-01-15T10:26:00.000Z</time>
      </trkpt>
      <trkpt lat="48.41089" lon="7.26918">
        <ele>1026.21</ele>
        <time>2020-01-15T10:26:10.000Z</time>
      </trkpt>
      <trkpt lat="48.41085" lon="7.26919">
        <ele>1025.97</ele>
        <time>2020-01-15T10:26:20.000Z</time>
      </trkpt>
      <trkpt lat="48.41086" lon="7.26918">
        <ele>1026.02</ele>
        <time>2020-01-15T10:26:40.000Z</time>
      </trkpt>
      <trkpt lat="48.41094" lon="7.26916">
        <ele>1024.52</ele>
        <time>2020-01-15T10:26:50.000Z</time>
      </trkpt>
      <trkpt lat="48.41093" lon="7.26918">
        <ele>1025.22</ele>
        <time>2020-01-15T10:27:00.000Z</time>
      </trkpt>
      <trkpt lat="48.41094" lon="7.26918">
        <ele>1027.18</ele>
        <time>2020-01-15T10:27:10.000Z</time>
      </trkpt>
      <trkpt lat="48.41096" lon="7.26917">
        <ele>1026.2</ele>
        <time>2020-01-15T10:27:20.000Z</time>
      </trkpt>
      <trkpt lat="48.41094" lon="7.26917">
        <ele>1024.21</ele>
        <time>2020-01-15T10:27:30.000Z</time>
      </trkpt>
      <trkpt lat="48.41095" lon="7.26915">
        <ele>1024.21</ele>
        <time>2020-01-15T10:27:40.000Z</time>
      </trkpt>
      <trkpt lat="48.41093" lon="7.26916">
        <ele>1026.21</ele>
        <time>2020-01-15T10:27:50.000Z</time>
      </trkpt>
      <trkpt lat="48.41091" lon="7.26916">
        <ele>1028.21</ele>
        <time>2020-01-15T10:28:00.000Z</time>
      </trkpt>
      <trkpt lat="48.41091" lon="7.26913">
        <ele>1027.46</ele>
        <time>2020-01-15T10:28:15.000Z</time>
      </trkpt>
      <trkpt lat="48.41094" lon="7.26921">
        <ele>1025.23</ele>
        <time>2020-01-15T10:28:25.000Z</time>
      </trkpt>
      <trkpt lat="48.41095" lon="7.26923">
        <ele>1026.21</ele>
        <time>2020-01-15T10:28:35.000Z</time>
      </trkpt>
      <trkpt lat="48.41096" lon="7.26925">
        <ele>1026.23</ele>
        <time>2020-01-15T10:28:47.000Z</time>
      </trkpt>
      <trkpt lat="48.41098" lon="7.26928">
        <ele>1026.23</ele>
        <time>2020-01-15T10:28:57.000Z</time>
      </trkpt>
      <trkpt lat="48.41102" lon="7.26934">
        <ele>1025.47</ele>
        <time>2020-01-15T10:29:07.000Z</time>
      </trkpt>
      <trkpt lat="48.4111" lon="7.26943">
        <ele>1027.21</ele>
        <time>2020-01-15T10:29:17.000Z</time>
      </trkpt>
      <trkpt lat="48.41118" lon="7.26949">
        <ele>1028.21</ele>
        <time>2020-01-15T10:29:27.000Z</time>
      </trkpt>
      <trkpt lat="48.41126" lon="7.26957">
        <ele>1027.21</ele>
        <time>2020-01-15T10:29:37.000Z</time>
      </trkpt>
      <trkpt lat="48.41135" lon="7.26965">
        <ele>1024.46</ele>
        <time>2020-01-15T10:29:47.000Z</time>
      </trkpt>
      <trkpt lat="48.41139" lon="7.2697">
        <ele>1024.21</ele>
        <time>2020-01-15T10:29:57.000Z</time>
      </trkpt>
      <trkpt lat="48.41147" lon="7.26975">
        <ele>1022.21</ele>
        <time>2020-01-15T10:30:07.000Z</time>
      </trkpt>
      <trkpt lat="48.41156" lon="7.26984">
        <ele>1021.28</ele>
        <time>2020-01-15T10:30:17.000Z</time>
      </trkpt>
      <trkpt lat="48.41163" lon="7.26995">
        <ele>1021.46</ele>
        <time>2020-01-15T10:30:27.000Z</time>
      </trkpt>
      <trkpt lat="48.41172" lon="7.27005">
        <ele>1019.28</ele>
        <time>2020-01-15T10:30:37.000Z</time>
      </trkpt>
      <trkpt lat="48.4118" lon="7.27016">
        <ele>1017.21</ele>
        <time>2020-01-15T10:30:47.000Z</time>
      </trkpt>
      <trkpt lat="48.41186" lon="7.27022">
        <ele>1016.21</ele>
        <time>2020-01-15T10:30:57.000Z</time>
      </trkpt>
      <trkpt lat="48.41193" lon="7.27029">
        <ele>1013.21</ele>
        <time>2020-01-15T10:31:07.000Z</time>
      </trkpt>
      <trkpt lat="48.41199" lon="7.27038">
        <ele>1012.21</ele>
        <time>2020-01-15T10:31:17.000Z</time>
      </trkpt>
      <trkpt lat="48.4121" lon="7.27043">
        <ele>1011.21</ele>
        <time>2020-01-15T10:31:27.000Z</time>
      </trkpt>
      <trkpt lat="48.41217" lon="7.27044">
        <ele>1010.23</ele>
        <time>2020-01-15T10:31:37.000Z</time>
      </trkpt>
      <trkpt lat="48.41227" lon="7.27048">
        <ele>1009.46</ele>
        <time>2020-01-15T10:31:47.000Z</time>
      </trkpt>
      <trkpt lat="48.41237" lon="7.2705">
        <ele>1010.46</ele>
        <time>2020-01-15T10:31:57.000Z</time>
      </trkpt>
      <trkpt lat="48.41247" lon="7.27056">
        <ele>1012.2</ele>
        <time>2020-01-15T10:32:07.000Z</time>
      </trkpt>
      <trkpt lat="48.41253" lon="7.27062">
        <ele>1012.21</ele>
        <time>2020-01-15T10:32:17.000Z</time>
      </trkpt>
      <trkpt lat="48.41254" lon="7.27065">
        <ele>1019.19</ele>
        <time>2020-01-15T10:32:27.000Z</time>
      </trkpt>
      <trkpt lat="48.41263" lon="7.27071">
        <ele>1018.28</ele>
        <time>2020-01-15T10:32:37.000Z</time>
      </trkpt>
      <trkpt lat="48.4127" lon="7.27076">
        <ele>1017.21</ele>
        <time>2020-01-15T10:32:47.000Z</time>
      </trkpt>
      <trkpt lat="48.41274" lon="7.27077">
        <ele>1016.23</ele>
        <time>2020-01-15T10:32:57.000Z</time>
      </trkpt>
      <trkpt lat="48.41279" lon="7.27084">
        <ele>1013.22</ele>
        <time>2020-01-15T10:33:07.000Z</time>
      </trkpt>
      <trkpt lat="48.41287" lon="7.27089">
        <ele>1014.17</ele>
        <time>2020-01-15T10:33:17.000Z</time>
      </trkpt>
      <trkpt lat="48.41291" lon="7.27087">
        <ele>1014.96</ele>
        <time>2020-01-15T10:33:35.000Z</time>
      </trkpt>
      <trkpt lat="48.41296" lon="7.27087">
        <ele>1014.22</ele>
        <time>2020-01-15T10:33:45.000Z</time>
      </trkpt>
      <trkpt lat="48.41301" lon="7.27084">
        <ele>1012.23</ele>
        <time>2020-01-15T10:33:55.000Z</time>
      </trkpt>
      <trkpt lat="48.41306" lon="7.27079">
        <ele>1011.21</ele>
        <time>2020-01-15T10:34:05.000Z</time>
      </trkpt>
      <trkpt lat="48.41312" lon="7.27072">
        <ele>1009.22</ele>
        <time>2020-01-15T10:34:15.000Z</time>
      </trkpt>
      <trkpt lat="48.41321" lon="7.27066">
        <ele>1007.22</ele>
        <time>2020-01-15T10:34:25.000Z</time>
      </trkpt>
      <trkpt lat="48.41329" lon="7.27063">
        <ele>1005.98</ele>
        <time>2020-01-15T10:34:35.000Z</time>
      </trkpt>
      <trkpt lat="48.41334" lon="7.27057">
        <ele>1005.46</ele>
        <time>2020-01-15T10:34:45.000Z</time>
      </trkpt>
      <trkpt lat="48.4134" lon="7.27056">
        <ele>1004.22</ele>
        <time>2020-01-15T10:34:55.000Z</time>
      </trkpt>
      <trkpt lat="48.41345" lon="7.27049">
        <ele>1001.28</ele>
        <time>2020-01-15T10:35:05.000Z</time>
      </trkpt>
      <trkpt lat="48.41355" lon="7.27041">
        <ele>999.28</ele>
        <time>2020-01-15T10:35:15.000Z</time>
      </trkpt>
      <trkpt lat="48.41367" lon="7.27043">
        <ele>997.23</ele>
        <time>2020-01-15T10:35:25.000Z</time>
      </trkpt>
      <trkpt lat="48.41376" lon="7.27039">
        <ele>995.22</ele>
        <time>2020-01-15T10:35:35.000Z</time>
      </trkpt>
      <trkpt lat="48.41384" lon="7.27036">
        <ele>993.47</ele>
        <time>2020-01-15T10:35:45.000Z</time>
      </trkpt>
      <trkpt lat="48.41396" lon="7.27033">
        <ele>990.22</ele>
        <time>2020-01-15T10:35:55.000Z</time>
      </trkpt>
      <trkpt lat="48.41406" lon="7.2703">
        <ele>987.23</ele>
        <time>2020-01-15T10:36:05.000Z</time>
      </trkpt>
      <trkpt lat="48.41418" lon="7.27029">
        <ele>985.22</ele>
        <time>2020-01-15T10:36:15.000Z</time>
      </trkpt>
      <trkpt lat="48.4143" lon="7.27028">
        <ele>982.23</ele>
        <time>2020-01-15T10:36:25.000Z</time>
      </trkpt>
      <trkpt lat="48.41439" lon="7.27021">
        <ele>985.15</ele>
        <time>2020-01-15T10:36:35.000Z</time>
      </trkpt>
      <trkpt lat="48.41448" lon="7.2701">
        <ele>986.22</ele>
        <time>2020-01-15T10:36:45.000Z</time>
      </trkpt>
      <trkpt lat="48.41455" lon="7.27001">
        <ele>986.2</ele>
        <time>2020-01-15T10:36:55.000Z</time>
      </trkpt>
      <trkpt lat="48.41461" lon="7.26996">
        <ele>987.21</ele>
        <time>2020-01-15T10:37:05.000Z</time>
      </trkpt>
      <trkpt lat="48.4147" lon="7.26987">
        <ele>987.22</ele>
        <time>2020-01-15T10:37:15.000Z</time>
      </trkpt>
      <trkpt lat="48.41473" lon="7.26983">
        <ele>987.26</ele>
        <time>2020-01-15T10:37:25.000Z</time>
      </trkpt>
      <trkpt lat="48.4148" lon="7.26971">
        <ele>989.22</ele>
        <time>2020-01-15T10:37:35.000Z</time>
      </trkpt>
      <trkpt lat="48.41485" lon="7.26961">
        <ele>987.28</ele>
        <time>2020-01-15T10:37:45.000Z</time>
      </trkpt>
      <trkpt lat="48.41489" lon="7.26948">
        <ele>987.03</ele>
        <time>2020-01-15T10:37:55.000Z</time>
      </trkpt>
      <trkpt lat="48.41494" lon="7.26935">
        <ele>985.28</ele>
        <time>2020-01-15T10:38:05.000Z</time>
      </trkpt>
      <trkpt lat="48.41497" lon="7.26921">
        <ele>983.47</ele>
        <time>2020-01-15T10:38:15.000Z</time>
      </trkpt>
      <trkpt lat="48.41501" lon="7.26909">
        <ele>982.22</ele>
        <time>2020-01-15T10:38:25.000Z</time>
      </trkpt>
      <trkpt lat="48.41507" lon="7.26896">
        <ele>980.47</ele>
        <time>2020-01-15T10:38:35.000Z</time>
      </trkpt>
      <trkpt lat="48.41514" lon="7.26886">
        <ele>978.48</ele>
        <time>2020-01-15T10:38:45.000Z</time>
      </trkpt>
      <trkpt lat="48.41519" lon="7.26877">
        <ele>979.21</ele>
        <time>2020-01-15T10:38:55.000Z</time>
      </trkpt>
      <trkpt lat="48.41524" lon="7.26865">
        <ele>978.47</ele>
        <time>2020-01-15T10:39:05.000Z</time>
      </trkpt>
      <trkpt lat="48.41533" lon="7.26855">
        <ele>978.22</ele>
        <time>2020-01-15T10:39:15.000Z</time>
      </trkpt>
      <trkpt lat="48.41539" lon="7.26848">
        <ele>978.97</ele>
        <time>2020-01-15T10:39:25.000Z</time>
      </trkpt>
      <trkpt lat="48.41542" lon="7.26839">
        <ele>979.2</ele>
        <time>2020-01-15T10:39:35.000Z</time>
      </trkpt>
      <trkpt lat="48.41548" lon="7.26832">
        <ele>978.47</ele>
        <time>2020-01-15T10:39:45.000Z</time>
      </trkpt>
      <trkpt lat="48.41552" lon="7.26825">
        <ele>978.97</ele>
        <time>2020-01-15T10:39:55.000Z</time>
      </trkpt>
      <trkpt lat="48.41561" lon="7.26817">
        <ele>976.48</ele>
        <time>2020-01-15T10:40:05.000Z</time>
      </trkpt>
      <trkpt lat="48.41568" lon="7.26806">
        <ele>974.28</ele>
        <time>2020-01-15T10:40:15.000Z</time>
      </trkpt>
      <trkpt lat="48.41574" lon="7.26791">
        <ele>972.23</ele>
        <time>2020-01-15T10:40:25.000Z</time>
      </trkpt>
      <trkpt lat="48.41582" lon="7.26782">
        <ele>970.28</ele>
        <time>2020-01-15T10:40:35.000Z</time>
      </trkpt>
      <trkpt lat="48.4159" lon="7.2677">
        <ele>970.22</ele>
        <time>2020-01-15T10:40:45.000Z</time>
      </trkpt>
      <trkpt lat="48.41593" lon="7.26765">
        <ele>970.22</ele>
        <time>2020-01-15T10:40:55.000Z</time>
      </trkpt>
      <trkpt lat="48.416" lon="7.26765">
        <ele>973.97</ele>
        <time>2020-01-15T10:41:05.000Z</time>
      </trkpt>
      <trkpt lat="48.41602" lon="7.26755">
        <ele>975.21</ele>
        <time>2020-01-15T10:41:15.000Z</time>
      </trkpt>
      <trkpt lat="48.41604" lon="7.26751">
        <ele>976.22</ele>
        <time>2020-01-15T10:41:25.000Z</time>
      </trkpt>
      <trkpt lat="48.41606" lon="7.26751">
        <ele>976.22</ele>
        <time>2020-01-15T10:41:41.000Z</time>
      </trkpt>
      <trkpt lat="48.41607" lon="7.26748">
        <ele>974.22</ele>
        <time>2020-01-15T10:41:51.000Z</time>
      </trkpt>
      <trkpt lat="48.4161" lon="7.26746">
        <ele>974.28</ele>
        <time>2020-01-15T10:42:01.000Z</time>
      </trkpt>
      <trkpt lat="48.41615" lon="7.26744">
        <ele>975.9</ele>
        <time>2020-01-15T10:42:11.000Z</time>
      </trkpt>
      <trkpt lat="48.41617" lon="7.26742">
        <ele>977.97</ele>
        <time>2020-01-15T10:42:34.000Z</time>
      </trkpt>
      <trkpt lat="48.41623" lon="7.26733">
        <ele>976.22</ele>
        <time>2020-01-15T10:42:44.000Z</time>
      </trkpt>
      <trkpt lat="48.41629" lon="7.26731">
        <ele>976.16</ele>
        <time>2020-01-15T10:42:54.000Z</time>
      </trkpt>
      <trkpt lat="48.41634" lon="7.26723">
        <ele>976.23</ele>
        <time>2020-01-15T10:43:04.000Z</time>
      </trkpt>
      <trkpt lat="48.41641" lon="7.2671">
        <ele>974.22</ele>
        <time>2020-01-15T10:43:14.000Z</time>
      </trkpt>
      <trkpt lat="48.41651" lon="7.26703">
        <ele>972.24</ele>
        <time>2020-01-15T10:43:24.000Z</time>
      </trkpt>
      <trkpt lat="48.4166" lon="7.26695">
        <ele>968.48</ele>
        <time>2020-01-15T10:43:34.000Z</time>
      </trkpt>
      <trkpt lat="48.41669" lon="7.26686">
        <ele>966.23</ele>
        <time>2020-01-15T10:43:44.000Z</time>
      </trkpt>
      <trkpt lat="48.41679" lon="7.26681">
        <ele>965.97</ele>
        <time>2020-01-15T10:43:54.000Z</time>
      </trkpt>
      <trkpt lat="48.41686" lon="7.26675">
        <ele>962.28</ele>
        <time>2020-01-15T10:44:04.000Z</time>
      </trkpt>
      <trkpt lat="48.41692" lon="7.26673">
        <ele>959.23</ele>
        <time>2020-01-15T10:44:14.000Z</time>
      </trkpt>
      <trkpt lat="48.41697" lon="7.26666">
        <ele>957.22</ele>
        <time>2020-01-15T10:44:24.000Z</time>
      </trkpt>
      <trkpt lat="48.41705" lon="7.26654">
        <ele>950.55</ele>
        <time>2020-01-15T10:44:34.000Z</time>
      </trkpt>
      <trkpt lat="48.41713" lon="7.2664">
        <ele>945.49</ele>
        <time>2020-01-15T10:44:44.000Z</time>
      </trkpt>
      <trkpt lat="48.41722" lon="7.26633">
        <ele>943.97</ele>
        <time>2020-01-15T10:44:54.000Z</time>
      </trkpt>
      <trkpt lat="48.41731" lon="7.26621">
        <ele>941.23</ele>
        <time>2020-01-15T10:45:04.000Z</time>
      </trkpt>
      <trkpt lat="48.41737" lon="7.26615">
        <ele>941.28</ele>
        <time>2020-01-15T10:45:14.000Z</time>
      </trkpt>
      <trkpt lat="48.41748" lon="7.26612">
        <ele>939.23</ele>
        <time>2020-01-15T10:45:24.000Z</time>
      </trkpt>
      <trkpt lat="48.41755" lon="7.26607">
        <ele>939.22</ele>
        <time>2020-01-15T10:45:34.000Z</time>
      </trkpt>
      <trkpt lat="48.41761" lon="7.26602">
        <ele>939.39</ele>
        <time>2020-01-15T10:45:44.000Z</time>
      </trkpt>
      <trkpt lat="48.41765" lon="7.26602">
        <ele>943.2</ele>
        <time>2020-01-15T10:45:54.000Z</time>
      </trkpt>
      <trkpt lat="48.41763" lon="7.26612">
        <ele>943.21</ele>
        <time>2020-01-15T10:46:04.000Z</time>
      </trkpt>
      <trkpt lat="48.41766" lon="7.26611">
        <ele>943.22</ele>
        <time>2020-01-15T10:46:14.000Z</time>
      </trkpt>
      <trkpt lat="48.41774" lon="7.26615">
        <ele>948.2</ele>
        <time>2020-01-15T10:46:24.000Z</time>
      </trkpt>
      <trkpt lat="48.41778" lon="7.26612">
        <ele>953.22</ele>
        <time>2020-01-15T10:46:34.000Z</time>
      </trkpt>
      <trkpt lat="48.41779" lon="7.26609">
        <ele>957.22</ele>
        <time>2020-01-15T10:46:44.000Z</time>
      </trkpt>
      <trkpt lat="48.4178" lon="7.26608">
        <ele>961.97</ele>
        <time>2020-01-15T10:47:06.000Z</time>
      </trkpt>
      <trkpt lat="48.41781" lon="7.26605">
        <ele>961.47</ele>
        <time>2020-01-15T10:47:33.000Z</time>
      </trkpt>
      <trkpt lat="48.41785" lon="7.26601">
        <ele>957.24</ele>
        <time>2020-01-15T10:47:43.000Z</time>
      </trkpt>
      <trkpt lat="48.41791" lon="7.26594">
        <ele>954.47</ele>
        <time>2020-01-15T10:47:53.000Z</time>
      </trkpt>
      <trkpt lat="48.41795" lon="7.26593">
        <ele>952.22</ele>
        <time>2020-01-15T10:48:03.000Z</time>
      </trkpt>
      <trkpt lat="48.41803" lon="7.26587">
        <ele>947.3</ele>
        <time>2020-01-15T10:48:13.000Z</time>
      </trkpt>
      <trkpt lat="48.41811" lon="7.26584">
        <ele>942.28</ele>
        <time>2020-01-15T10:48:23.000Z</time>
      </trkpt>
      <trkpt lat="48.41818" lon="7.26579">
        <ele>940.23</ele>
        <time>2020-01-15T10:48:33.000Z</time>
      </trkpt>
      <trkpt lat="48.41825" lon="7.26577">
        <ele>937.23</ele>
        <time>2020-01-15T10:48:43.000Z</time>
      </trkpt>
      <trkpt lat="48.41837" lon="7.26575">
        <ele>935.28</ele>
        <time>2020-01-15T10:48:53.000Z</time>
      </trkpt>
      <trkpt lat="48.41844" lon="7.26574">
        <ele>931.23</ele>
        <time>2020-01-15T10:49:03.000Z</time>
      </trkpt>
      <trkpt lat="48.4186" lon="7.26574">
        <ele>926.23</ele>
        <time>2020-01-15T10:49:13.000Z</time>
      </trkpt>
      <trkpt lat="48.4187" lon="7.26576">
        <ele>923.28</ele>
        <time>2020-01-15T10:49:23.000Z</time>
      </trkpt>
      <trkpt lat="48.41877" lon="7.26577">
        <ele>921.22</ele>
        <time>2020-01-15T10:49:33.000Z</time>
      </trkpt>
      <trkpt lat="48.41891" lon="7.26583">
        <ele>919.28</ele>
        <time>2020-01-15T10:49:43.000Z</time>
      </trkpt>
      <trkpt lat="48.419" lon="7.26587">
        <ele>919.22</ele>
        <time>2020-01-15T10:49:53.000Z</time>
      </trkpt>
      <trkpt lat="48.41906" lon="7.26576">
        <ele>915.47</ele>
        <time>2020-01-15T10:50:03.000Z</time>
      </trkpt>
      <trkpt lat="48.41906" lon="7.26557">
        <ele>912.24</ele>
        <time>2020-01-15T10:50:13.000Z</time>
      </trkpt>
      <trkpt lat="48.41904" lon="7.26548">
        <ele>912.21</ele>
        <time>2020-01-15T10:50:23.000Z</time>
      </trkpt>
      <trkpt lat="48.41901" lon="7.26537">
        <ele>912.47</ele>
        <time>2020-01-15T10:50:33.000Z</time>
      </trkpt>
      <trkpt lat="48.41897" lon="7.26526">
        <ele>913.21</ele>
        <time>2020-01-15T10:50:43.000Z</time>
      </trkpt>
      <trkpt lat="48.41893" lon="7.26514">
        <ele>914.22</ele>
        <time>2020-01-15T10:50:53.000Z</time>
      </trkpt>
      <trkpt lat="48.41889" lon="7.26503">
        <ele>914.22</ele>
        <time>2020-01-15T10:51:03.000Z</time>
      </trkpt>
      <trkpt lat="48.41885" lon="7.26494">
        <ele>914.45</ele>
        <time>2020-01-15T10:51:13.000Z</time>
      </trkpt>
      <trkpt lat="48.41878" lon="7.26485">
        <ele>913.28</ele>
        <time>2020-01-15T10:51:23.000Z</time>
      </trkpt>
      <trkpt lat="48.41872" lon="7.26477">
        <ele>913.16</ele>
        <time>2020-01-15T10:51:33.000Z</time>
      </trkpt>
      <trkpt lat="48.41868" lon="7.26473">
        <ele>910.23</ele>
        <time>2020-01-15T10:51:43.000Z</time>
      </trkpt>
      <trkpt lat="48.41859" lon="7.26466">
        <ele>906.28</ele>
        <time>2020-01-15T10:51:53.000Z</time>
      </trkpt>
      <trkpt lat="48.41851" lon="7.26462">
        <ele>905.22</ele>
        <time>2020-01-15T10:52:03.000Z</time>
      </trkpt>
      <trkpt lat="48.41841" lon="7.26458">
        <ele>903.23</ele>
        <time>2020-01-15T10:52:13.000Z</time>
      </trkpt>
      <trkpt lat="48.41832" lon="7.26452">
        <ele>903.22</ele>
        <time>2020-01-15T10:52:23.000Z</time>
      </trkpt>
      <trkpt lat="48.4182" lon="7.26448">
        <ele>898.28</ele>
        <time>2020-01-15T10:52:33.000Z</time>
      </trkpt>
      <trkpt lat="48.41809" lon="7.26442">
        <ele>896.22</ele>
        <time>2020-01-15T10:52:43.000Z</time>
      </trkpt>
      <trkpt lat="48.41797" lon="7.26441">
        <ele>895.47</ele>
        <time>2020-01-15T10:52:53.000Z</time>
      </trkpt>
      <trkpt lat="48.41781" lon="7.26433">
        <ele>894.22</ele>
        <time>2020-01-15T10:53:03.000Z</time>
      </trkpt>
      <trkpt lat="48.41765" lon="7.26426">
        <ele>894.22</ele>
        <time>2020-01-15T10:53:13.000Z</time>
      </trkpt>
      <trkpt lat="48.4175" lon="7.26419">
        <ele>895.97</ele>
        <time>2020-01-15T10:53:23.000Z</time>
      </trkpt>
      <trkpt lat="48.41737" lon="7.2642">
        <ele>895.28</ele>
        <time>2020-01-15T10:53:33.000Z</time>
      </trkpt>
      <trkpt lat="48.41725" lon="7.26422">
        <ele>895.22</ele>
        <time>2020-01-15T10:53:43.000Z</time>
      </trkpt>
      <trkpt lat="48.41713" lon="7.26419">
        <ele>895.22</ele>
        <time>2020-01-15T10:53:53.000Z</time>
      </trkpt>
      <trkpt lat="48.41703" lon="7.26418">
        <ele>894.47</ele>
        <time>2020-01-15T10:54:03.000Z</time>
      </trkpt>
      <trkpt lat="48.41692" lon="7.26424">
        <ele>891.28</ele>
        <time>2020-01-15T10:54:13.000Z</time>
      </trkpt>
      <trkpt lat="48.41679" lon="7.26428">
        <ele>890.23</ele>
        <time>2020-01-15T10:54:23.000Z</time>
      </trkpt>
      <trkpt lat="48.41666" lon="7.26432">
        <ele>891.17</ele>
        <time>2020-01-15T10:54:33.000Z</time>
      </trkpt>
      <trkpt lat="48.41656" lon="7.26438">
        <ele>889.97</ele>
        <time>2020-01-15T10:54:43.000Z</time>
      </trkpt>
      <trkpt lat="48.41644" lon="7.2644">
        <ele>890.2</ele>
        <time>2020-01-15T10:54:53.000Z</time>
      </trkpt>
      <trkpt lat="48.41631" lon="7.26451">
        <ele>892.9</ele>
        <time>2020-01-15T10:55:03.000Z</time>
      </trkpt>
      <trkpt lat="48.4162" lon="7.26454">
        <ele>894.97</ele>
        <time>2020-01-15T10:55:13.000Z</time>
      </trkpt>
      <trkpt lat="48.41616" lon="7.26459">
        <ele>896.21</ele>
        <time>2020-01-15T10:55:23.000Z</time>
      </trkpt>
      <trkpt lat="48.41607" lon="7.26459">
        <ele>897.22</ele>
        <time>2020-01-15T10:55:33.000Z</time>
      </trkpt>
      <trkpt lat="48.41599" lon="7.26458">
        <ele>897.21</ele>
        <time>2020-01-15T10:55:43.000Z</time>
      </trkpt>
      <trkpt lat="48.41586" lon="7.26458">
        <ele>892.28</ele>
        <time>2020-01-15T10:55:53.000Z</time>
      </trkpt>
      <trkpt lat="48.41575" lon="7.26455">
        <ele>893.21</ele>
        <time>2020-01-15T10:56:03.000Z</time>
      </trkpt>
      <trkpt lat="48.41563" lon="7.26457">
        <ele>891.98</ele>
        <time>2020-01-15T10:56:13.000Z</time>
      </trkpt>
      <trkpt lat="48.41553" lon="7.26458">
        <ele>890.28</ele>
        <time>2020-01-15T10:56:23.000Z</time>
      </trkpt>
      <trkpt lat="48.4155" lon="7.26455">
        <ele>890.27</ele>
        <time>2020-01-15T10:56:33.000Z</time>
      </trkpt>
      <trkpt lat="48.41541" lon="7.26444">
        <ele>889.48</ele>
        <time>2020-01-15T10:56:43.000Z</time>
      </trkpt>
      <trkpt lat="48.41537" lon="7.26433">
        <ele>891.2</ele>
        <time>2020-01-15T10:56:53.000Z</time>
      </trkpt>
      <trkpt lat="48.41532" lon="7.26417">
        <ele>892.41</ele>
        <time>2020-01-15T10:57:03.000Z</time>
      </trkpt>
      <trkpt lat="48.41527" lon="7.26406">
        <ele>893.21</ele>
        <time>2020-01-15T10:57:13.000Z</time>
      </trkpt>
      <trkpt lat="48.41523" lon="7.26392">
        <ele>892.2</ele>
        <time>2020-01-15T10:57:23.000Z</time>
      </trkpt>
      <trkpt lat="48.41519" lon="7.2638">
        <ele>891.21</ele>
        <time>2020-01-15T10:57:33.000Z</time>
      </trkpt>
      <trkpt lat="48.41519" lon="7.2637">
        <ele>887.28</ele>
        <time>2020-01-15T10:57:43.000Z</time>
      </trkpt>
      <trkpt lat="48.41519" lon="7.26365">
        <ele>886.32</ele>
        <time>2020-01-15T10:57:53.000Z</time>
      </trkpt>
      <trkpt lat="48.41523" lon="7.26365">
        <ele>887.21</ele>
        <time>2020-01-15T10:58:03.000Z</time>
      </trkpt>
      <trkpt lat="48.41526" lon="7.26364">
        <ele>886.97</ele>
        <time>2020-01-15T10:58:13.000Z</time>
      </trkpt>
      <trkpt lat="48.41529" lon="7.26364">
        <ele>886.21</ele>
        <time>2020-01-15T10:58:23.000Z</time>
      </trkpt>
      <trkpt lat="48.41539" lon="7.2637">
        <ele>884.28</ele>
        <time>2020-01-15T10:58:33.000Z</time>
      </trkpt>
      <trkpt lat="48.41549" lon="7.26369">
        <ele>881.41</ele>
        <time>2020-01-15T10:58:43.000Z</time>
      </trkpt>
      <trkpt lat="48.41557" lon="7.26358">
        <ele>878.28</ele>
        <time>2020-01-15T10:58:53.000Z</time>
      </trkpt>
      <trkpt lat="48.4156" lon="7.26346">
        <ele>877.27</ele>
        <time>2020-01-15T10:59:03.000Z</time>
      </trkpt>
      <trkpt lat="48.41564" lon="7.26335">
        <ele>874.22</ele>
        <time>2020-01-15T10:59:13.000Z</time>
      </trkpt>
      <trkpt lat="48.41567" lon="7.26324">
        <ele>870.29</ele>
        <time>2020-01-15T10:59:23.000Z</time>
      </trkpt>
      <trkpt lat="48.41572" lon="7.26314">
        <ele>868.22</ele>
        <time>2020-01-15T10:59:33.000Z</time>
      </trkpt>
      <trkpt lat="48.41578" lon="7.26302">
        <ele>866.21</ele>
        <time>2020-01-15T10:59:43.000Z</time>
      </trkpt>
      <trkpt lat="48.41582" lon="7.26293">
        <ele>865.03</ele>
        <time>2020-01-15T10:59:53.000Z</time>
      </trkpt>
      <trkpt lat="48.41591" lon="7.26286">
        <ele>862.22</ele>
        <time>2020-01-15T11:00:03.000Z</time>
      </trkpt>
      <trkpt lat="48.41601" lon="7.26277">
        <ele>858.47</ele>
        <time>2020-01-15T11:00:13.000Z</time>
      </trkpt>
      <trkpt lat="48.41607" lon="7.26269">
        <ele>857.21</ele>
        <time>2020-01-15T11:00:23.000Z</time>
      </trkpt>
      <trkpt lat="48.41614" lon="7.26261">
        <ele>855.22</ele>
        <time>2020-01-15T11:00:33.000Z</time>
      </trkpt>
      <trkpt lat="48.41622" lon="7.26248">
        <ele>853.28</ele>
        <time>2020-01-15T11:00:43.000Z</time>
      </trkpt>
      <trkpt lat="48.4163" lon="7.26234">
        <ele>852.21</ele>
        <time>2020-01-15T11:00:53.000Z</time>
      </trkpt>
      <trkpt lat="48.41636" lon="7.26225">
        <ele>851.28</ele>
        <time>2020-01-15T11:01:03.000Z</time>
      </trkpt>
      <trkpt lat="48.41643" lon="7.26215">
        <ele>849.22</ele>
        <time>2020-01-15T11:01:13.000Z</time>
      </trkpt>
      <trkpt lat="48.41649" lon="7.26205">
        <ele>848.98</ele>
        <time>2020-01-15T11:01:23.000Z</time>
      </trkpt>
      <trkpt lat="48.41652" lon="7.26193">
        <ele>847.23</ele>
        <time>2020-01-15T11:01:33.000Z</time>
      </trkpt>
      <trkpt lat="48.41659" lon="7.26181">
        <ele>845.23</ele>
        <time>2020-01-15T11:01:43.000Z</time>
      </trkpt>
      <trkpt lat="48.41664" lon="7.26166">
        <ele>843.28</ele>
        <time>2020-01-15T11:01:53.000Z</time>
      </trkpt>
      <trkpt lat="48.41672" lon="7.26157">
        <ele>842.21</ele>
        <time>2020-01-15T11:02:03.000Z</time>
      </trkpt>
      <trkpt lat="48.41678" lon="7.26148">
        <ele>839.23</ele>
        <time>2020-01-15T11:02:13.000Z</time>
      </trkpt>
      <trkpt lat="48.41682" lon="7.26138">
        <ele>838.22</ele>
        <time>2020-01-15T11:02:23.000Z</time>
      </trkpt>
      <trkpt lat="48.41691" lon="7.26125">
        <ele>836.17</ele>
        <time>2020-01-15T11:02:33.000Z</time>
      </trkpt>
      <trkpt lat="48.417" lon="7.2612">
        <ele>835.2</ele>
        <time>2020-01-15T11:02:43.000Z</time>
      </trkpt>
      <trkpt lat="48.41705" lon="7.26115">
        <ele>835.21</ele>
        <time>2020-01-15T11:02:53.000Z</time>
      </trkpt>
      <trkpt lat="48.41716" lon="7.26105">
        <ele>832.28</ele>
        <time>2020-01-15T11:03:03.000Z</time>
      </trkpt>
      <trkpt lat="48.41724" lon="7.26095">
        <ele>830.97</ele>
        <time>2020-01-15T11:03:13.000Z</time>
      </trkpt>
      <trkpt lat="48.4173" lon="7.26083">
        <ele>829.22</ele>
        <time>2020-01-15T11:03:23.000Z</time>
      </trkpt>
      <trkpt lat="48.41741" lon="7.26074">
        <ele>827.28</ele>
        <time>2020-01-15T11:03:33.000Z</time>
      </trkpt>
      <trkpt lat="48.4175" lon="7.2607">
        <ele>826.28</ele>
        <time>2020-01-15T11:03:43.000Z</time>
      </trkpt>
      <trkpt lat="48.41755" lon="7.26058">
        <ele>824.22</ele>
        <time>2020-01-15T11:03:53.000Z</time>
      </trkpt>
      <trkpt lat="48.41766" lon="7.26055">
        <ele>822.47</ele>
        <time>2020-01-15T11:04:03.000Z</time>
      </trkpt>
      <trkpt lat="48.41773" lon="7.26048">
        <ele>822.97</ele>
        <time>2020-01-15T11:04:13.000Z</time>
      </trkpt>
      <trkpt lat="48.41782" lon="7.26039">
        <ele>823.22</ele>
        <time>2020-01-15T11:04:23.000Z</time>
      </trkpt>
      <trkpt lat="48.41788" lon="7.26032">
        <ele>822.39</ele>
        <time>2020-01-15T11:04:33.000Z</time>
      </trkpt>
      <trkpt lat="48.41795" lon="7.26025">
        <ele>822.22</ele>
        <time>2020-01-15T11:04:43.000Z</time>
      </trkpt>
      <trkpt lat="48.41802" lon="7.26018">
        <ele>821.28</ele>
        <time>2020-01-15T11:04:53.000Z</time>
      </trkpt>
      <trkpt lat="48.41811" lon="7.26011">
        <ele>821.46</ele>
        <time>2020-01-15T11:05:03.000Z</time>
      </trkpt>
      <trkpt lat="48.41818" lon="7.26006">
        <ele>820.23</ele>
        <time>2020-01-15T11:05:13.000Z</time>
      </trkpt>
      <trkpt lat="48.41824" lon="7.26">
        <ele>817.48</ele>
        <time>2020-01-15T11:05:23.000Z</time>
      </trkpt>
      <trkpt lat="48.41831" lon="7.25996">
        <ele>816.23</ele>
        <time>2020-01-15T11:05:33.000Z</time>
      </trkpt>
      <trkpt lat="48.41838" lon="7.25992">
        <ele>815.22</ele>
        <time>2020-01-15T11:05:43.000Z</time>
      </trkpt>
      <trkpt lat="48.41845" lon="7.25989">
        <ele>813.22</ele>
        <time>2020-01-15T11:05:53.000Z</time>
      </trkpt>
      <trkpt lat="48.41847" lon="7.25979">
        <ele>813.7</ele>
        <time>2020-01-15T11:06:03.000Z</time>
      </trkpt>
      <trkpt lat="48.41848" lon="7.25976">
        <ele>815.46</ele>
        <time>2020-01-15T11:06:13.000Z</time>
      </trkpt>
      <trkpt lat="48.41851" lon="7.25977">
        <ele>818.18</ele>
        <time>2020-01-15T11:06:23.000Z</time>
      </trkpt>
      <trkpt lat="48.41854" lon="7.25969">
        <ele>824.21</ele>
        <time>2020-01-15T11:06:33.000Z</time>
      </trkpt>
      <trkpt lat="48.41854" lon="7.2597">
        <ele>826.2</ele>
        <time>2020-01-15T11:06:48.000Z</time>
      </trkpt>
      <trkpt lat="48.41853" lon="7.25969">
        <ele>828.22</ele>
        <time>2020-01-15T11:07:25.000Z</time>
      </trkpt>
      <trkpt lat="48.41852" lon="7.25971">
        <ele>827.22</ele>
        <time>2020-01-15T11:07:35.000Z</time>
      </trkpt>
      <trkpt lat="48.41861" lon="7.25972">
        <ele>824.29</ele>
        <time>2020-01-15T11:07:45.000Z</time>
      </trkpt>
      <trkpt lat="48.4187" lon="7.25969">
        <ele>822.27</ele>
        <time>2020-01-15T11:07:55.000Z</time>
      </trkpt>
      <trkpt lat="48.41878" lon="7.25963">
        <ele>820.28</ele>
        <time>2020-01-15T11:08:05.000Z</time>
      </trkpt>
      <trkpt lat="48.41882" lon="7.25959">
        <ele>820.22</ele>
        <time>2020-01-15T11:08:15.000Z</time>
      </trkpt>
      <trkpt lat="48.41881" lon="7.25961">
        <ele>819.47</ele>
        <time>2020-01-15T11:08:28.000Z</time>
      </trkpt>
      <trkpt lat="48.41887" lon="7.25961">
        <ele>816.28</ele>
        <time>2020-01-15T11:08:38.000Z</time>
      </trkpt>
      <trkpt lat="48.41894" lon="7.25958">
        <ele>814.27</ele>
        <time>2020-01-15T11:08:48.000Z</time>
      </trkpt>
      <trkpt lat="48.41901" lon="7.25954">
        <ele>811.47</ele>
        <time>2020-01-15T11:08:58.000Z</time>
      </trkpt>
      <trkpt lat="48.41909" lon="7.25954">
        <ele>808.48</ele>
        <time>2020-01-15T11:09:08.000Z</time>
      </trkpt>
      <trkpt lat="48.41916" lon="7.25954">
        <ele>808.17</ele>
        <time>2020-01-15T11:09:18.000Z</time>
      </trkpt>
      <trkpt lat="48.41926" lon="7.25956">
        <ele>808.22</ele>
        <time>2020-01-15T11:09:28.000Z</time>
      </trkpt>
      <trkpt lat="48.41934" lon="7.2595">
        <ele>807.22</ele>
        <time>2020-01-15T11:09:38.000Z</time>
      </trkpt>
      <trkpt lat="48.41941" lon="7.25944">
        <ele>806.23</ele>
        <time>2020-01-15T11:09:48.000Z</time>
      </trkpt>
      <trkpt lat="48.41948" lon="7.25934">
        <ele>804.22</ele>
        <time>2020-01-15T11:09:58.000Z</time>
      </trkpt>
      <trkpt lat="48.41955" lon="7.25925">
        <ele>800.28</ele>
        <time>2020-01-15T11:10:08.000Z</time>
      </trkpt>
      <trkpt lat="48.41966" lon="7.25921">
        <ele>800.95</ele>
        <time>2020-01-15T11:10:18.000Z</time>
      </trkpt>
      <trkpt lat="48.41974" lon="7.25913">
        <ele>801.02</ele>
        <time>2020-01-15T11:10:28.000Z</time>
      </trkpt>
      <trkpt lat="48.41982" lon="7.25906">
        <ele>801.22</ele>
        <time>2020-01-15T11:10:38.000Z</time>
      </trkpt>
      <trkpt lat="48.41987" lon="7.25899">
        <ele>798.48</ele>
        <time>2020-01-15T11:10:48.000Z</time>
      </trkpt>
      <trkpt lat="48.41995" lon="7.25893">
        <ele>796.28</ele>
        <time>2020-01-15T11:10:58.000Z</time>
      </trkpt>
      <trkpt lat="48.42003" lon="7.25884">
        <ele>793.28</ele>
        <time>2020-01-15T11:11:08.000Z</time>
      </trkpt>
      <trkpt lat="48.42011" lon="7.2588">
        <ele>792.2</ele>
        <time>2020-01-15T11:11:18.000Z</time>
      </trkpt>
      <trkpt lat="48.42019" lon="7.2588">
        <ele>790.47</ele>
        <time>2020-01-15T11:11:28.000Z</time>
      </trkpt>
      <trkpt lat="48.42027" lon="7.25881">
        <ele>789.22</ele>
        <time>2020-01-15T11:11:38.000Z</time>
      </trkpt>
      <trkpt lat="48.42037" lon="7.25881">
        <ele>787.97</ele>
        <time>2020-01-15T11:11:48.000Z</time>
      </trkpt>
      <trkpt lat="48.42047" lon="7.25882">
        <ele>787.97</ele>
        <time>2020-01-15T11:11:58.000Z</time>
      </trkpt>
      <trkpt lat="48.42054" lon="7.25882">
        <ele>785.22</ele>
        <time>2020-01-15T11:12:08.000Z</time>
      </trkpt>
      <trkpt lat="48.42065" lon="7.25885">
        <ele>788.21</ele>
        <time>2020-01-15T11:12:18.000Z</time>
      </trkpt>
      <trkpt lat="48.42073" lon="7.2589">
        <ele>786.47</ele>
        <time>2020-01-15T11:12:28.000Z</time>
      </trkpt>
      <trkpt lat="48.42083" lon="7.25889">
        <ele>782.42</ele>
        <time>2020-01-15T11:12:38.000Z</time>
      </trkpt>
      <trkpt lat="48.42091" lon="7.2589">
        <ele>782.23</ele>
        <time>2020-01-15T11:12:48.000Z</time>
      </trkpt>
      <trkpt lat="48.421" lon="7.25894">
        <ele>778.28</ele>
        <time>2020-01-15T11:12:58.000Z</time>
      </trkpt>
      <trkpt lat="48.42106" lon="7.25893">
        <ele>777.22</ele>
        <time>2020-01-15T11:13:08.000Z</time>
      </trkpt>
      <trkpt lat="48.42112" lon="7.25898">
        <ele>777.22</ele>
        <time>2020-01-15T11:13:18.000Z</time>
      </trkpt>
      <trkpt lat="48.42116" lon="7.259">
        <ele>776.22</ele>
        <time>2020-01-15T11:13:28.000Z</time>
      </trkpt>
      <trkpt lat="48.42126" lon="7.25904">
        <ele>772.23</ele>
        <time>2020-01-15T11:13:38.000Z</time>
      </trkpt>
      <trkpt lat="48.42133" lon="7.2591">
        <ele>771.16</ele>
        <time>2020-01-15T11:13:48.000Z</time>
      </trkpt>
      <trkpt lat="48.42141" lon="7.25912">
        <ele>767.31</ele>
        <time>2020-01-15T11:13:58.000Z</time>
      </trkpt>
      <trkpt lat="48.42151" lon="7.25914">
        <ele>766.22</ele>
        <time>2020-01-15T11:14:08.000Z</time>
      </trkpt>
      <trkpt lat="48.42159" lon="7.25915">
        <ele>766.22</ele>
        <time>2020-01-15T11:14:18.000Z</time>
      </trkpt>
      <trkpt lat="48.4217" lon="7.25917">
        <ele>767.22</ele>
        <time>2020-01-15T11:14:28.000Z</time>
      </trkpt>
      <trkpt lat="48.4218" lon="7.25918">
        <ele>765.28</ele>
        <time>2020-01-15T11:14:38.000Z</time>
      </trkpt>
      <trkpt lat="48.42186" lon="7.25917">
        <ele>762.22</ele>
        <time>2020-01-15T11:14:48.000Z</time>
      </trkpt>
      <trkpt lat="48.42192" lon="7.25914">
        <ele>761.2</ele>
        <time>2020-01-15T11:14:58.000Z</time>
      </trkpt>
      <trkpt lat="48.42201" lon="7.25918">
        <ele>761.23</ele>
        <time>2020-01-15T11:15:08.000Z</time>
      </trkpt>
      <trkpt lat="48.4221" lon="7.25922">
        <ele>758.28</ele>
        <time>2020-01-15T11:15:18.000Z</time>
      </trkpt>
      <trkpt lat="48.4222" lon="7.25926">
        <ele>758.45</ele>
        <time>2020-01-15T11:15:28.000Z</time>
      </trkpt>
      <trkpt lat="48.42228" lon="7.25932">
        <ele>760.91</ele>
        <time>2020-01-15T11:15:38.000Z</time>
      </trkpt>
      <trkpt lat="48.42237" lon="7.25939">
        <ele>760.28</ele>
        <time>2020-01-15T11:15:48.000Z</time>
      </trkpt>
      <trkpt lat="48.42244" lon="7.25935">
        <ele>759.22</ele>
        <time>2020-01-15T11:15:58.000Z</time>
      </trkpt>
      <trkpt lat="48.42251" lon="7.25936">
        <ele>756.47</ele>
        <time>2020-01-15T11:16:08.000Z</time>
      </trkpt>
      <trkpt lat="48.42259" lon="7.25934">
        <ele>756.22</ele>
        <time>2020-01-15T11:16:18.000Z</time>
      </trkpt>
      <trkpt lat="48.4227" lon="7.25932">
        <ele>753.24</ele>
        <time>2020-01-15T11:16:28.000Z</time>
      </trkpt>
      <trkpt lat="48.42277" lon="7.25927">
        <ele>751.22</ele>
        <time>2020-01-15T11:16:38.000Z</time>
      </trkpt>
      <trkpt lat="48.42285" lon="7.25922">
        <ele>750.24</ele>
        <time>2020-01-15T11:16:48.000Z</time>
      </trkpt>
      <trkpt lat="48.42296" lon="7.25921">
        <ele>748.47</ele>
        <time>2020-01-15T11:16:58.000Z</time>
      </trkpt>
      <trkpt lat="48.42303" lon="7.25915">
        <ele>746.23</ele>
        <time>2020-01-15T11:17:08.000Z</time>
      </trkpt>
      <trkpt lat="48.42311" lon="7.25916">
        <ele>751.4</ele>
        <time>2020-01-15T11:17:18.000Z</time>
      </trkpt>
      <trkpt lat="48.42315" lon="7.25912">
        <ele>751.22</ele>
        <time>2020-01-15T11:17:28.000Z</time>
      </trkpt>
      <trkpt lat="48.42324" lon="7.25911">
        <ele>750.22</ele>
        <time>2020-01-15T11:17:38.000Z</time>
      </trkpt>
      <trkpt lat="48.42326" lon="7.25908">
        <ele>745.29</ele>
        <time>2020-01-15T11:17:48.000Z</time>
      </trkpt>
      <trkpt lat="48.42332" lon="7.25907">
        <ele>744.22</ele>
        <time>2020-01-15T11:17:58.000Z</time>
      </trkpt>
      <trkpt lat="48.42341" lon="7.25909">
        <ele>743.46</ele>
        <time>2020-01-15T11:18:08.000Z</time>
      </trkpt>
      <trkpt lat="48.42348" lon="7.25913">
        <ele>744.49</ele>
        <time>2020-01-15T11:18:18.000Z</time>
      </trkpt>
      <trkpt lat="48.42355" lon="7.2592">
        <ele>743.22</ele>
        <time>2020-01-15T11:18:28.000Z</time>
      </trkpt>
      <trkpt lat="48.42362" lon="7.25921">
        <ele>741.29</ele>
        <time>2020-01-15T11:18:38.000Z</time>
      </trkpt>
      <trkpt lat="48.42365" lon="7.25918">
        <ele>739.22</ele>
        <time>2020-01-15T11:18:48.000Z</time>
      </trkpt>
      <trkpt lat="48.42365" lon="7.25907">
        <ele>739.22</ele>
        <time>2020-01-15T11:18:58.000Z</time>
      </trkpt>
      <trkpt lat="48.42367" lon="7.2591">
        <ele>738.22</ele>
        <time>2020-01-15T11:19:08.000Z</time>
      </trkpt>
      <trkpt lat="48.42366" lon="7.25908">
        <ele>738.22</ele>
        <time>2020-01-15T11:19:25.000Z</time>
      </trkpt>
      <trkpt lat="48.42365" lon="7.25905">
        <ele>736.22</ele>
        <time>2020-01-15T11:19:35.000Z</time>
      </trkpt>
      <trkpt lat="48.42369" lon="7.25905">
        <ele>735.47</ele>
        <time>2020-01-15T11:19:45.000Z</time>
      </trkpt>
      <trkpt lat="48.42372" lon="7.25903">
        <ele>733.29</ele>
        <time>2020-01-15T11:19:55.000Z</time>
      </trkpt>
      <trkpt lat="48.42372" lon="7.259">
        <ele>732.28</ele>
        <time>2020-01-15T11:20:05.000Z</time>
      </trkpt>
      <trkpt lat="48.42372" lon="7.25897">
        <ele>733.72</ele>
        <time>2020-01-15T11:20:22.000Z</time>
      </trkpt>
      <trkpt lat="48.42371" lon="7.25895">
        <ele>734.22</ele>
        <time>2020-01-15T11:20:32.000Z</time>
      </trkpt>
      <trkpt lat="48.42373" lon="7.25897">
        <ele>734.22</ele>
        <time>2020-01-15T11:20:48.000Z</time>
      </trkpt>
      <trkpt lat="48.4238" lon="7.25891">
        <ele>732.47</ele>
        <time>2020-01-15T11:20:58.000Z</time>
      </trkpt>
      <trkpt lat="48.42382" lon="7.25889">
        <ele>730.24</ele>
        <time>2020-01-15T11:21:08.000Z</time>
      </trkpt>
      <trkpt lat="48.42385" lon="7.25891">
        <ele>731.22</ele>
        <time>2020-01-15T11:21:18.000Z</time>
      </trkpt>
      <trkpt lat="48.42385" lon="7.2589">
        <ele>728.97</ele>
        <time>2020-01-15T11:21:51.000Z</time>
      </trkpt>
      <trkpt lat="48.4239" lon="7.25891">
        <ele>727.17</ele>
        <time>2020-01-15T11:22:01.000Z</time>
      </trkpt>
      <trkpt lat="48.42393" lon="7.25893">
        <ele>726.22</ele>
        <time>2020-01-15T11:22:11.000Z</time>
      </trkpt>
      <trkpt lat="48.42394" lon="7.25894">
        <ele>726.22</ele>
        <time>2020-01-15T11:22:21.000Z</time>
      </trkpt>
      <trkpt lat="48.42397" lon="7.25893">
        <ele>725.22</ele>
        <time>2020-01-15T11:22:31.000Z</time>
      </trkpt>
      <trkpt lat="48.42398" lon="7.25891">
        <ele>724.47</ele>
        <time>2020-01-15T11:22:41.000Z</time>
      </trkpt>
      <trkpt lat="48.42399" lon="7.25894">
        <ele>720.22</ele>
        <time>2020-01-15T11:22:51.000Z</time>
      </trkpt>
      <trkpt lat="48.42399" lon="7.25888">
        <ele>719.24</ele>
        <time>2020-01-15T11:23:01.000Z</time>
      </trkpt>
      <trkpt lat="48.42404" lon="7.25886">
        <ele>720.22</ele>
        <time>2020-01-15T11:23:11.000Z</time>
      </trkpt>
      <trkpt lat="48.42408" lon="7.25888">
        <ele>722.95</ele>
        <time>2020-01-15T11:23:21.000Z</time>
      </trkpt>
      <trkpt lat="48.42406" lon="7.25892">
        <ele>721.24</ele>
        <time>2020-01-15T11:23:31.000Z</time>
      </trkpt>
      <trkpt lat="48.42408" lon="7.25896">
        <ele>718.72</ele>
        <time>2020-01-15T11:23:41.000Z</time>
      </trkpt>
      <trkpt lat="48.4241" lon="7.25899">
        <ele>715.22</ele>
        <time>2020-01-15T11:23:51.000Z</time>
      </trkpt>
      <trkpt lat="48.42414" lon="7.25905">
        <ele>716.16</ele>
        <time>2020-01-15T11:24:01.000Z</time>
      </trkpt>
      <trkpt lat="48.4242" lon="7.25911">
        <ele>715.49</ele>
        <time>2020-01-15T11:24:11.000Z</time>
      </trkpt>
      <trkpt lat="48.42417" lon="7.2591">
        <ele>716.22</ele>
        <time>2020-01-15T11:24:21.000Z</time>
      </trkpt>
      <trkpt lat="48.42417" lon="7.25906">
        <ele>715.22</ele>
        <time>2020-01-15T11:24:31.000Z</time>
      </trkpt>
      <trkpt lat="48.42414" lon="7.25903">
        <ele>713.24</ele>
        <time>2020-01-15T11:24:41.000Z</time>
      </trkpt>
      <trkpt lat="48.42413" lon="7.25902">
        <ele>715.19</ele>
        <time>2020-01-15T11:24:51.000Z</time>
      </trkpt>
      <trkpt lat="48.42413" lon="7.259">
        <ele>716.72</ele>
        <time>2020-01-15T11:25:25.000Z</time>
      </trkpt>
      <trkpt lat="48.42412" lon="7.25899">
        <ele>718.97</ele>
        <time>2020-01-15T11:25:47.000Z</time>
      </trkpt>
      <trkpt lat="48.4241" lon="7.25898">
        <ele>719.22</ele>
        <time>2020-01-15T11:25:57.000Z</time>
      </trkpt>
      <trkpt lat="48.4241" lon="7.25899">
        <ele>717.72</ele>
        <time>2020-01-15T11:26:21.000Z</time>
      </trkpt>
      <trkpt lat="48.42412" lon="7.25902">
        <ele>717.47</ele>
        <time>2020-01-15T11:26:51.000Z</time>
      </trkpt>
      <trkpt lat="48.42412" lon="7.25903">
        <ele>717.97</ele>
        <time>2020-01-15T11:27:27.000Z</time>
      </trkpt>
      <trkpt lat="48.42413" lon="7.25907">
        <ele>720.16</ele>
        <time>2020-01-15T11:27:37.000Z</time>
      </trkpt>
      <trkpt lat="48.42412" lon="7.25904">
        <ele>720.45</ele>
        <time>2020-01-15T11:27:47.000Z</time>
      </trkpt>
      <trkpt lat="48.42413" lon="7.25901">
        <ele>718.24</ele>
        <time>2020-01-15T11:27:57.000Z</time>
      </trkpt>
      <trkpt lat="48.42412" lon="7.25895">
        <ele>717.22</ele>
        <time>2020-01-15T11:28:07.000Z</time>
      </trkpt>
      <trkpt lat="48.42413" lon="7.25893">
        <ele>716.19</ele>
        <time>2020-01-15T11:28:17.000Z</time>
      </trkpt>
      <trkpt lat="48.42415" lon="7.25894">
        <ele>713.22</ele>
        <time>2020-01-15T11:28:27.000Z</time>
      </trkpt>
      <trkpt lat="48.42416" lon="7.2589">
        <ele>710.22</ele>
        <time>2020-01-15T11:28:37.000Z</time>
      </trkpt>
      <trkpt lat="48.42413" lon="7.2589">
        <ele>710.97</ele>
        <time>2020-01-15T11:28:47.000Z</time>
      </trkpt>
      <trkpt lat="48.42411" lon="7.25887">
        <ele>713.97</ele>
        <time>2020-01-15T11:29:01.000Z</time>
      </trkpt>
      <trkpt lat="48.42403" lon="7.25883">
        <ele>716.96</ele>
        <time>2020-01-15T11:29:11.000Z</time>
      </trkpt>
      <trkpt lat="48.42401" lon="7.25881">
        <ele>717.22</ele>
        <time>2020-01-15T11:29:21.000Z</time>
      </trkpt>
      <trkpt lat="48.42398" lon="7.25879">
        <ele>720.28</ele>
        <time>2020-01-15T11:29:31.000Z</time>
      </trkpt>
      <trkpt lat="48.42394" lon="7.25878">
        <ele>721.2</ele>
        <time>2020-01-15T11:29:41.000Z</time>
      </trkpt>
      <trkpt lat="48.42393" lon="7.25874">
        <ele>721.22</ele>
        <time>2020-01-15T11:29:51.000Z</time>
      </trkpt>
      <trkpt lat="48.42386" lon="7.25881">
        <ele>717.28</ele>
        <time>2020-01-15T11:30:01.000Z</time>
      </trkpt>
      <trkpt lat="48.42381" lon="7.25878">
        <ele>718.97</ele>
        <time>2020-01-15T11:30:11.000Z</time>
      </trkpt>
      <trkpt lat="48.42377" lon="7.2587">
        <ele>722.23</ele>
        <time>2020-01-15T11:30:21.000Z</time>
      </trkpt>
      <trkpt lat="48.42375" lon="7.2587">
        <ele>725.15</ele>
        <time>2020-01-15T11:30:31.000Z</time>
      </trkpt>
      <trkpt lat="48.42371" lon="7.25876">
        <ele>729.95</ele>
        <time>2020-01-15T11:30:41.000Z</time>
      </trkpt>
      <trkpt lat="48.42366" lon="7.25874">
        <ele>735.09</ele>
        <time>2020-01-15T11:30:51.000Z</time>
      </trkpt>
      <trkpt lat="48.42359" lon="7.25872">
        <ele>735.21</ele>
        <time>2020-01-15T11:31:01.000Z</time>
      </trkpt>
      <trkpt lat="48.42356" lon="7.25871">
        <ele>733.28</ele>
        <time>2020-01-15T11:31:11.000Z</time>
      </trkpt>
      <trkpt lat="48.42349" lon="7.25868">
        <ele>733.91</ele>
        <time>2020-01-15T11:31:21.000Z</time>
      </trkpt>
      <trkpt lat="48.4234" lon="7.25868">
        <ele>737.1</ele>
        <time>2020-01-15T11:31:31.000Z</time>
      </trkpt>
      <trkpt lat="48.4233" lon="7.25865">
        <ele>737.22</ele>
        <time>2020-01-15T11:31:41.000Z</time>
      </trkpt>
      <trkpt lat="48.42325" lon="7.25862">
        <ele>742.95</ele>
        <time>2020-01-15T11:31:51.000Z</time>
      </trkpt>
      <trkpt lat="48.4232" lon="7.25859">
        <ele>745.2</ele>
        <time>2020-01-15T11:32:01.000Z</time>
      </trkpt>
      <trkpt lat="48.42312" lon="7.25853">
        <ele>748.95</ele>
        <time>2020-01-15T11:32:11.000Z</time>
      </trkpt>
      <trkpt lat="48.423" lon="7.25846">
        <ele>751.14</ele>
        <time>2020-01-15T11:32:21.000Z</time>
      </trkpt>
      <trkpt lat="48.42295" lon="7.25839">
        <ele>752.97</ele>
        <time>2020-01-15T11:32:31.000Z</time>
      </trkpt>
      <trkpt lat="48.42294" lon="7.2583">
        <ele>752.97</ele>
        <time>2020-01-15T11:32:41.000Z</time>
      </trkpt>
      <trkpt lat="48.42302" lon="7.25829">
        <ele>750.25</ele>
        <time>2020-01-15T11:32:51.000Z</time>
      </trkpt>
      <trkpt lat="48.42311" lon="7.25831">
        <ele>751.17</ele>
        <time>2020-01-15T11:33:01.000Z</time>
      </trkpt>
      <trkpt lat="48.42321" lon="7.25838">
        <ele>749.28</ele>
        <time>2020-01-15T11:33:11.000Z</time>
      </trkpt>
      <trkpt lat="48.42326" lon="7.25836">
        <ele>754.14</ele>
        <time>2020-01-15T11:33:21.000Z</time>
      </trkpt>
      <trkpt lat="48.42326" lon="7.25835">
        <ele>755.16</ele>
        <time>2020-01-15T11:33:58.000Z</time>
      </trkpt>
      <trkpt lat="48.42327" lon="7.25834">
        <ele>756.22</ele>
        <time>2020-01-15T11:34:12.000Z</time>
      </trkpt>
      <trkpt lat="48.42327" lon="7.25835">
        <ele>756.22</ele>
        <time>2020-01-15T11:34:22.000Z</time>
      </trkpt>
      <trkpt lat="48.42326" lon="7.25835">
        <ele>758.47</ele>
        <time>2020-01-15T11:34:37.000Z</time>
      </trkpt>
      <trkpt lat="48.42325" lon="7.25835">
        <ele>759.22</ele>
        <time>2020-01-15T11:35:06.000Z</time>
      </trkpt>
      <trkpt lat="48.42324" lon="7.25834">
        <ele>758.42</ele>
        <time>2020-01-15T11:35:18.000Z</time>
      </trkpt>
      <trkpt lat="48.42321" lon="7.25835">
        <ele>759.19</ele>
        <time>2020-01-15T11:35:28.000Z</time>
      </trkpt>
      <trkpt lat="48.4232" lon="7.25837">
        <ele>757.72</ele>
        <time>2020-01-15T11:35:51.000Z</time>
      </trkpt>
      <trkpt lat="48.42321" lon="7.25839">
        <ele>761.09</ele>
        <time>2020-01-15T11:36:01.000Z</time>
      </trkpt>
      <trkpt lat="48.42322" lon="7.25837">
        <ele>762.97</ele>
        <time>2020-01-15T11:36:16.000Z</time>
      </trkpt>
      <trkpt lat="48.42323" lon="7.25838">
        <ele>762.72</ele>
        <time>2020-01-15T11:36:41.000Z</time>
      </trkpt>
      <trkpt lat="48.42325" lon="7.25835">
        <ele>762.22</ele>
        <time>2020-01-15T11:36:51.000Z</time>
      </trkpt>
      <trkpt lat="48.42327" lon="7.25839">
        <ele>761.47</ele>
        <time>2020-01-15T11:37:03.000Z</time>
      </trkpt>
      <trkpt lat="48.42335" lon="7.25846">
        <ele>762.22</ele>
        <time>2020-01-15T11:37:13.000Z</time>
      </trkpt>
      <trkpt lat="48.42346" lon="7.25849">
        <ele>762.22</ele>
        <time>2020-01-15T11:37:23.000Z</time>
      </trkpt>
      <trkpt lat="48.42352" lon="7.25845">
        <ele>763.16</ele>
        <time>2020-01-15T11:37:33.000Z</time>
      </trkpt>
      <trkpt lat="48.42363" lon="7.25835">
        <ele>762.47</ele>
        <time>2020-01-15T11:37:43.000Z</time>
      </trkpt>
      <trkpt lat="48.42376" lon="7.25828">
        <ele>763.97</ele>
        <time>2020-01-15T11:37:53.000Z</time>
      </trkpt>
      <trkpt lat="48.42385" lon="7.25822">
        <ele>762.28</ele>
        <time>2020-01-15T11:38:03.000Z</time>
      </trkpt>
      <trkpt lat="48.42393" lon="7.25811">
        <ele>761.22</ele>
        <time>2020-01-15T11:38:13.000Z</time>
      </trkpt>
      <trkpt lat="48.424" lon="7.25796">
        <ele>760.99</ele>
        <time>2020-01-15T11:38:23.000Z</time>
      </trkpt>
      <trkpt lat="48.42404" lon="7.25779">
        <ele>760.28</ele>
        <time>2020-01-15T11:38:33.000Z</time>
      </trkpt>
      <trkpt lat="48.42406" lon="7.25768">
        <ele>761.22</ele>
        <time>2020-01-15T11:38:43.000Z</time>
      </trkpt>
      <trkpt lat="48.4241" lon="7.25753">
        <ele>763.2</ele>
        <time>2020-01-15T11:38:53.000Z</time>
      </trkpt>
      <trkpt lat="48.42413" lon="7.25739">
        <ele>762.17</ele>
        <time>2020-01-15T11:39:03.000Z</time>
      </trkpt>
      <trkpt lat="48.42416" lon="7.2574">
        <ele>762.05</ele>
        <time>2020-01-15T11:39:13.000Z</time>
      </trkpt>
      <trkpt lat="48.42417" lon="7.25739">
        <ele>762.97</ele>
        <time>2020-01-15T11:39:36.000Z</time>
      </trkpt>
      <trkpt lat="48.42422" lon="7.25738">
        <ele>764.2</ele>
        <time>2020-01-15T11:39:46.000Z</time>
      </trkpt>
      <trkpt lat="48.42425" lon="7.25734">
        <ele>765.2</ele>
        <time>2020-01-15T11:39:56.000Z</time>
      </trkpt>
      <trkpt lat="48.42428" lon="7.25729">
        <ele>766.22</ele>
        <time>2020-01-15T11:40:06.000Z</time>
      </trkpt>
      <trkpt lat="48.42435" lon="7.25723">
        <ele>766.28</ele>
        <time>2020-01-15T11:40:16.000Z</time>
      </trkpt>
      <trkpt lat="48.42447" lon="7.2571">
        <ele>767.16</ele>
        <time>2020-01-15T11:40:26.000Z</time>
      </trkpt>
      <trkpt lat="48.42456" lon="7.25704">
        <ele>768.02</ele>
        <time>2020-01-15T11:40:36.000Z</time>
      </trkpt>
      <trkpt lat="48.42466" lon="7.25694">
        <ele>768.16</ele>
        <time>2020-01-15T11:40:46.000Z</time>
      </trkpt>
      <trkpt lat="48.42469" lon="7.2568">
        <ele>767.52</ele>
        <time>2020-01-15T11:40:56.000Z</time>
      </trkpt>
      <trkpt lat="48.42476" lon="7.25667">
        <ele>768.16</ele>
        <time>2020-01-15T11:41:06.000Z</time>
      </trkpt>
      <trkpt lat="48.42482" lon="7.25654">
        <ele>767.2</ele>
        <time>2020-01-15T11:41:16.000Z</time>
      </trkpt>
      <trkpt lat="48.42489" lon="7.25643">
        <ele>769.16</ele>
        <time>2020-01-15T11:41:26.000Z</time>
      </trkpt>
      <trkpt lat="48.42493" lon="7.25632">
        <ele>769.22</ele>
        <time>2020-01-15T11:41:36.000Z</time>
      </trkpt>
      <trkpt lat="48.42501" lon="7.25619">
        <ele>770.47</ele>
        <time>2020-01-15T11:41:46.000Z</time>
      </trkpt>
      <trkpt lat="48.42511" lon="7.2561">
        <ele>771.4</ele>
        <time>2020-01-15T11:41:56.000Z</time>
      </trkpt>
      <trkpt lat="48.42519" lon="7.25605">
        <ele>773.22</ele>
        <time>2020-01-15T11:42:06.000Z</time>
      </trkpt>
      <trkpt lat="48.42532" lon="7.25613">
        <ele>773.22</ele>
        <time>2020-01-15T11:42:16.000Z</time>
      </trkpt>
      <trkpt lat="48.42541" lon="7.25623">
        <ele>770.92</ele>
        <time>2020-01-15T11:42:26.000Z</time>
      </trkpt>
      <trkpt lat="48.42552" lon="7.25628">
        <ele>771.97</ele>
        <time>2020-01-15T11:42:36.000Z</time>
      </trkpt>
      <trkpt lat="48.42562" lon="7.25626">
        <ele>774.23</ele>
        <time>2020-01-15T11:42:46.000Z</time>
      </trkpt>
      <trkpt lat="48.42573" lon="7.25615">
        <ele>774.22</ele>
        <time>2020-01-15T11:42:56.000Z</time>
      </trkpt>
      <trkpt lat="48.4258" lon="7.25607">
        <ele>776.97</ele>
        <time>2020-01-15T11:43:06.000Z</time>
      </trkpt>
      <trkpt lat="48.42589" lon="7.25594">
        <ele>778.97</ele>
        <time>2020-01-15T11:43:16.000Z</time>
      </trkpt>
      <trkpt lat="48.42597" lon="7.25584">
        <ele>779.22</ele>
        <time>2020-01-15T11:43:26.000Z</time>
      </trkpt>
      <trkpt lat="48.42607" lon="7.25577">
        <ele>779.22</ele>
        <time>2020-01-15T11:43:36.000Z</time>
      </trkpt>
      <trkpt lat="48.42616" lon="7.25567">
        <ele>780.22</ele>
        <time>2020-01-15T11:43:46.000Z</time>
      </trkpt>
      <trkpt lat="48.42617" lon="7.25554">
        <ele>779.42</ele>
        <time>2020-01-15T11:43:56.000Z</time>
      </trkpt>
      <trkpt lat="48.42621" lon="7.25539">
        <ele>778.22</ele>
        <time>2020-01-15T11:44:06.000Z</time>
      </trkpt>
      <trkpt lat="48.42627" lon="7.25537">
        <ele>780.21</ele>
        <time>2020-01-15T11:44:16.000Z</time>
      </trkpt>
      <trkpt lat="48.42632" lon="7.2553">
        <ele>780.22</ele>
        <time>2020-01-15T11:44:26.000Z</time>
      </trkpt>
      <trkpt lat="48.4264" lon="7.25537">
        <ele>779.49</ele>
        <time>2020-01-15T11:44:36.000Z</time>
      </trkpt>
      <trkpt lat="48.42639" lon="7.25546">
        <ele>777.24</ele>
        <time>2020-01-15T11:44:46.000Z</time>
      </trkpt>
      <trkpt lat="48.42642" lon="7.25554">
        <ele>774.49</ele>
        <time>2020-01-15T11:44:56.000Z</time>
      </trkpt>
      <trkpt lat="48.42644" lon="7.25561">
        <ele>774.22</ele>
        <time>2020-01-15T11:45:06.000Z</time>
      </trkpt>
      <trkpt lat="48.42648" lon="7.2556">
        <ele>772.23</ele>
        <time>2020-01-15T11:45:16.000Z</time>
      </trkpt>
      <trkpt lat="48.42652" lon="7.25566">
        <ele>771.24</ele>
        <time>2020-01-15T11:45:26.000Z</time>
      </trkpt>
      <trkpt lat="48.42652" lon="7.25572">
        <ele>768.24</ele>
        <time>2020-01-15T11:45:36.000Z</time>
      </trkpt>
      <trkpt lat="48.42654" lon="7.25582">
        <ele>766.97</ele>
        <time>2020-01-15T11:45:46.000Z</time>
      </trkpt>
      <trkpt lat="48.42651" lon="7.25585">
        <ele>766.28</ele>
        <time>2020-01-15T11:45:56.000Z</time>
      </trkpt>
      <trkpt lat="48.4265" lon="7.25586">
        <ele>766.97</ele>
        <time>2020-01-15T11:46:13.000Z</time>
      </trkpt>
      <trkpt lat="48.42649" lon="7.25585">
        <ele>766.3</ele>
        <time>2020-01-15T11:46:28.000Z</time>
      </trkpt>
      <trkpt lat="48.4265" lon="7.25588">
        <ele>765.22</ele>
        <time>2020-01-15T11:46:38.000Z</time>
      </trkpt>
      <trkpt lat="48.42647" lon="7.25593">
        <ele>764.22</ele>
        <time>2020-01-15T11:46:48.000Z</time>
      </trkpt>
      <trkpt lat="48.42645" lon="7.25599">
        <ele>763.22</ele>
        <time>2020-01-15T11:46:58.000Z</time>
      </trkpt>
      <trkpt lat="48.42643" lon="7.25604">
        <ele>760.24</ele>
        <time>2020-01-15T11:47:08.000Z</time>
      </trkpt>
      <trkpt lat="48.4264" lon="7.25613">
        <ele>757.24</ele>
        <time>2020-01-15T11:47:18.000Z</time>
      </trkpt>
      <trkpt lat="48.42635" lon="7.25625">
        <ele>757.17</ele>
        <time>2020-01-15T11:47:28.000Z</time>
      </trkpt>
      <trkpt lat="48.42632" lon="7.25633">
        <ele>757.22</ele>
        <time>2020-01-15T11:47:38.000Z</time>
      </trkpt>
      <trkpt lat="48.42629" lon="7.25641">
        <ele>753.24</ele>
        <time>2020-01-15T11:47:48.000Z</time>
      </trkpt>
      <trkpt lat="48.42633" lon="7.25643">
        <ele>753.3</ele>
        <time>2020-01-15T11:47:58.000Z</time>
      </trkpt>
      <trkpt lat="48.42636" lon="7.2564">
        <ele>753.22</ele>
        <time>2020-01-15T11:48:08.000Z</time>
      </trkpt>
      <trkpt lat="48.42642" lon="7.25632">
        <ele>750.43</ele>
        <time>2020-01-15T11:48:18.000Z</time>
      </trkpt>
      <trkpt lat="48.42646" lon="7.25623">
        <ele>749.28</ele>
        <time>2020-01-15T11:48:28.000Z</time>
      </trkpt>
      <trkpt lat="48.42653" lon="7.25614">
        <ele>748.97</ele>
        <time>2020-01-15T11:48:38.000Z</time>
      </trkpt>
      <trkpt lat="48.42657" lon="7.2561">
        <ele>748.22</ele>
        <time>2020-01-15T11:48:48.000Z</time>
      </trkpt>
      <trkpt lat="48.4266" lon="7.25607">
        <ele>749.97</ele>
        <time>2020-01-15T11:48:58.000Z</time>
      </trkpt>
      <trkpt lat="48.4266" lon="7.25604">
        <ele>751.22</ele>
        <time>2020-01-15T11:49:08.000Z</time>
      </trkpt>
      <trkpt lat="48.42658" lon="7.25604">
        <ele>748.3</ele>
        <time>2020-01-15T11:49:19.000Z</time>
      </trkpt>
      <trkpt lat="48.42658" lon="7.25606">
        <ele>748.22</ele>
        <time>2020-01-15T11:49:31.000Z</time>
      </trkpt>
      <trkpt lat="48.42659" lon="7.25609">
        <ele>746.21</ele>
        <time>2020-01-15T11:49:41.000Z</time>
      </trkpt>
      <trkpt lat="48.42658" lon="7.25609">
        <ele>748.47</ele>
        <time>2020-01-15T11:50:05.000Z</time>
      </trkpt>
      <trkpt lat="48.42659" lon="7.2561">
        <ele>751.97</ele>
        <time>2020-01-15T11:50:30.000Z</time>
      </trkpt>
      <trkpt lat="48.42659" lon="7.25609">
        <ele>751.47</ele>
        <time>2020-01-15T11:50:43.000Z</time>
      </trkpt>
      <trkpt lat="48.42659" lon="7.25607">
        <ele>751.22</ele>
        <time>2020-01-15T11:50:53.000Z</time>
      </trkpt>
      <trkpt lat="48.42656" lon="7.25609">
        <ele>750.22</ele>
        <time>2020-01-15T11:51:03.000Z</time>
      </trkpt>
      <trkpt lat="48.42655" lon="7.25605">
        <ele>750.22</ele>
        <time>2020-01-15T11:51:16.000Z</time>
      </trkpt>
      <trkpt lat="48.42654" lon="7.25604">
        <ele>750.97</ele>
        <time>2020-01-15T11:51:34.000Z</time>
      </trkpt>
      <trkpt lat="48.42654" lon="7.25608">
        <ele>751.22</ele>
        <time>2020-01-15T11:51:44.000Z</time>
      </trkpt>
      <trkpt lat="48.42647" lon="7.25619">
        <ele>749.23</ele>
        <time>2020-01-15T11:51:54.000Z</time>
      </trkpt>
      <trkpt lat="48.42643" lon="7.25629">
        <ele>748.23</ele>
        <time>2020-01-15T11:52:04.000Z</time>
      </trkpt>
      <trkpt lat="48.42635" lon="7.2564">
        <ele>747.47</ele>
        <time>2020-01-15T11:52:14.000Z</time>
      </trkpt>
      <trkpt lat="48.42628" lon="7.25643">
        <ele>746.22</ele>
        <time>2020-01-15T11:52:24.000Z</time>
      </trkpt>
      <trkpt lat="48.42626" lon="7.25636">
        <ele>745.22</ele>
        <time>2020-01-15T11:52:34.000Z</time>
      </trkpt>
      <trkpt lat="48.42627" lon="7.2563">
        <ele>742.22</ele>
        <time>2020-01-15T11:52:44.000Z</time>
      </trkpt>
      <trkpt lat="48.42629" lon="7.25621">
        <ele>744.22</ele>
        <time>2020-01-15T11:52:54.000Z</time>
      </trkpt>
      <trkpt lat="48.42635" lon="7.25611">
        <ele>746.22</ele>
        <time>2020-01-15T11:53:04.000Z</time>
      </trkpt>
      <trkpt lat="48.42638" lon="7.2561">
        <ele>747.22</ele>
        <time>2020-01-15T11:53:14.000Z</time>
      </trkpt>
      <trkpt lat="48.42638" lon="7.25604">
        <ele>748.22</ele>
        <time>2020-01-15T11:53:24.000Z</time>
      </trkpt>
      <trkpt lat="48.42639" lon="7.25596">
        <ele>753.94</ele>
        <time>2020-01-15T11:53:34.000Z</time>
      </trkpt>
      <trkpt lat="48.42641" lon="7.25593">
        <ele>755.22</ele>
        <time>2020-01-15T11:53:44.000Z</time>
      </trkpt>
      <trkpt lat="48.42645" lon="7.25589">
        <ele>756.23</ele>
        <time>2020-01-15T11:53:54.000Z</time>
      </trkpt>
      <trkpt lat="48.42647" lon="7.25585">
        <ele>758.22</ele>
        <time>2020-01-15T11:54:04.000Z</time>
      </trkpt>
      <trkpt lat="48.4265" lon="7.25583">
        <ele>761.24</ele>
        <time>2020-01-15T11:54:14.000Z</time>
      </trkpt>
      <trkpt lat="48.42656" lon="7.25577">
        <ele>763.47</ele>
        <time>2020-01-15T11:54:24.000Z</time>
      </trkpt>
      <trkpt lat="48.42657" lon="7.25572">
        <ele>761.49</ele>
        <time>2020-01-15T11:54:34.000Z</time>
      </trkpt>
      <trkpt lat="48.4266" lon="7.2556">
        <ele>759.28</ele>
        <time>2020-01-15T11:54:44.000Z</time>
      </trkpt>
      <trkpt lat="48.42656" lon="7.25553">
        <ele>757.22</ele>
        <time>2020-01-15T11:54:54.000Z</time>
      </trkpt>
      <trkpt lat="48.42658" lon="7.25557">
        <ele>756.47</ele>
        <time>2020-01-15T11:55:12.000Z</time>
      </trkpt>
      <trkpt lat="48.42658" lon="7.25559">
        <ele>757.22</ele>
        <time>2020-01-15T11:55:22.000Z</time>
      </trkpt>
      <trkpt lat="48.4266" lon="7.2556">
        <ele>757.22</ele>
        <time>2020-01-15T11:55:41.000Z</time>
      </trkpt>
      <trkpt lat="48.42658" lon="7.25563">
        <ele>758.22</ele>
        <time>2020-01-15T11:55:51.000Z</time>
      </trkpt>
      <trkpt lat="48.42658" lon="7.25567">
        <ele>755.22</ele>
        <time>2020-01-15T11:56:01.000Z</time>
      </trkpt>
      <trkpt lat="48.42659" lon="7.25565">
        <ele>756.72</ele>
        <time>2020-01-15T11:59:10.000Z</time>
      </trkpt>
      <trkpt lat="48.42659" lon="7.25564">
        <ele>760.22</ele>
        <time>2020-01-15T11:59:20.000Z</time>
      </trkpt>
      <trkpt lat="48.42659" lon="7.25565">
        <ele>760.97</ele>
        <time>2020-01-15T12:00:27.000Z</time>
      </trkpt>
      <trkpt lat="48.42658" lon="7.25565">
        <ele>761.22</ele>
        <time>2020-01-15T12:03:47.000Z</time>
      </trkpt>
      <trkpt lat="48.42658" lon="7.25563">
        <ele>761.22</ele>
        <time>2020-01-15T12:03:57.000Z</time>
      </trkpt>
      <trkpt lat="48.42659" lon="7.25567">
        <ele>761.22</ele>
        <time>2020-01-15T12:04:07.000Z</time>
      </trkpt>
      <trkpt lat="48.42659" lon="7.25562">
        <ele>759.22</ele>
        <time>2020-01-15T12:04:17.000Z</time>
      </trkpt>
      <trkpt lat="48.42659" lon="7.2556">
        <ele>758.22</ele>
        <time>2020-01-15T12:04:50.000Z</time>
      </trkpt>
      <trkpt lat="48.42658" lon="7.25562">
        <ele>759.97</ele>
        <time>2020-01-15T12:05:11.000Z</time>
      </trkpt>
      <trkpt lat="48.42657" lon="7.25563">
        <ele>762.22</ele>
        <time>2020-01-15T12:05:21.000Z</time>
      </trkpt>
      <trkpt lat="48.42657" lon="7.25561">
        <ele>759.22</ele>
        <time>2020-01-15T12:06:16.000Z</time>
      </trkpt>
      <trkpt lat="48.42659" lon="7.25561">
        <ele>760.22</ele>
        <time>2020-01-15T12:06:26.000Z</time>
      </trkpt>
      <trkpt lat="48.42657" lon="7.25563">
        <ele>760.22</ele>
        <time>2020-01-15T12:06:36.000Z</time>
      </trkpt>
      <trkpt lat="48.42649" lon="7.25567">
        <ele>760.22</ele>
        <time>2020-01-15T12:06:46.000Z</time>
      </trkpt>
      <trkpt lat="48.42644" lon="7.2556">
        <ele>761.16</ele>
        <time>2020-01-15T12:06:56.000Z</time>
      </trkpt>
      <trkpt lat="48.42638" lon="7.25558">
        <ele>761.22</ele>
        <time>2020-01-15T12:07:06.000Z</time>
      </trkpt>
      <trkpt lat="48.42635" lon="7.25552">
        <ele>763.15</ele>
        <time>2020-01-15T12:07:16.000Z</time>
      </trkpt>
      <trkpt lat="48.42633" lon="7.25544">
        <ele>761.25</ele>
        <time>2020-01-15T12:07:26.000Z</time>
      </trkpt>
      <trkpt lat="48.42637" lon="7.25537">
        <ele>764.22</ele>
        <time>2020-01-15T12:07:36.000Z</time>
      </trkpt>
      <trkpt lat="48.42632" lon="7.25533">
        <ele>766.91</ele>
        <time>2020-01-15T12:07:46.000Z</time>
      </trkpt>
      <trkpt lat="48.42628" lon="7.25531">
        <ele>766.23</ele>
        <time>2020-01-15T12:07:56.000Z</time>
      </trkpt>
      <trkpt lat="48.42623" lon="7.25523">
        <ele>766.22</ele>
        <time>2020-01-15T12:08:06.000Z</time>
      </trkpt>
      <trkpt lat="48.42622" lon="7.25516">
        <ele>767.99</ele>
        <time>2020-01-15T12:08:16.000Z</time>
      </trkpt>
      <trkpt lat="48.42629" lon="7.25503">
        <ele>772.95</ele>
        <time>2020-01-15T12:08:26.000Z</time>
      </trkpt>
      <trkpt lat="48.42632" lon="7.2549">
        <ele>774.21</ele>
        <time>2020-01-15T12:08:36.000Z</time>
      </trkpt>
      <trkpt lat="48.42634" lon="7.25491">
        <ele>774.22</ele>
        <time>2020-01-15T12:08:48.000Z</time>
      </trkpt>
      <trkpt lat="48.42641" lon="7.25478">
        <ele>774.22</ele>
        <time>2020-01-15T12:08:58.000Z</time>
      </trkpt>
      <trkpt lat="48.42648" lon="7.25468">
        <ele>776.97</ele>
        <time>2020-01-15T12:09:08.000Z</time>
      </trkpt>
      <trkpt lat="48.42655" lon="7.25457">
        <ele>779.16</ele>
        <time>2020-01-15T12:09:18.000Z</time>
      </trkpt>
      <trkpt lat="48.42668" lon="7.25444">
        <ele>779.22</ele>
        <time>2020-01-15T12:09:28.000Z</time>
      </trkpt>
      <trkpt lat="48.42676" lon="7.25436">
        <ele>781.97</ele>
        <time>2020-01-15T12:09:38.000Z</time>
      </trkpt>
      <trkpt lat="48.42686" lon="7.25428">
        <ele>783.97</ele>
        <time>2020-01-15T12:09:48.000Z</time>
      </trkpt>
      <trkpt lat="48.42696" lon="7.25426">
        <ele>783.47</ele>
        <time>2020-01-15T12:09:58.000Z</time>
      </trkpt>
      <trkpt lat="48.42705" lon="7.25416">
        <ele>783.27</ele>
        <time>2020-01-15T12:10:08.000Z</time>
      </trkpt>
      <trkpt lat="48.42715" lon="7.25407">
        <ele>780.28</ele>
        <time>2020-01-15T12:10:18.000Z</time>
      </trkpt>
      <trkpt lat="48.42723" lon="7.25396">
        <ele>780.27</ele>
        <time>2020-01-15T12:10:28.000Z</time>
      </trkpt>
      <trkpt lat="48.42736" lon="7.25385">
        <ele>779.22</ele>
        <time>2020-01-15T12:10:38.000Z</time>
      </trkpt>
      <trkpt lat="48.42747" lon="7.25378">
        <ele>780.16</ele>
        <time>2020-01-15T12:10:48.000Z</time>
      </trkpt>
      <trkpt lat="48.42757" lon="7.25371">
        <ele>780.22</ele>
        <time>2020-01-15T12:10:58.000Z</time>
      </trkpt>
      <trkpt lat="48.42768" lon="7.25363">
        <ele>779.24</ele>
        <time>2020-01-15T12:11:08.000Z</time>
      </trkpt>
      <trkpt lat="48.4278" lon="7.25352">
        <ele>777.46</ele>
        <time>2020-01-15T12:11:18.000Z</time>
      </trkpt>
      <trkpt lat="48.42789" lon="7.25339">
        <ele>779.22</ele>
        <time>2020-01-15T12:11:28.000Z</time>
      </trkpt>
      <trkpt lat="48.42791" lon="7.25326">
        <ele>780.16</ele>
        <time>2020-01-15T12:11:38.000Z</time>
      </trkpt>
      <trkpt lat="48.42791" lon="7.25321">
        <ele>779.24</ele>
        <time>2020-01-15T12:11:48.000Z</time>
      </trkpt>
      <trkpt lat="48.42787" lon="7.25316">
        <ele>778.23</ele>
        <time>2020-01-15T12:11:58.000Z</time>
      </trkpt>
      <trkpt lat="48.42785" lon="7.25319">
        <ele>777.97</ele>
        <time>2020-01-15T12:12:08.000Z</time>
      </trkpt>
      <trkpt lat="48.4278" lon="7.25327">
        <ele>780.22</ele>
        <time>2020-01-15T12:12:18.000Z</time>
      </trkpt>
      <trkpt lat="48.42772" lon="7.25331">
        <ele>780.22</ele>
        <time>2020-01-15T12:12:28.000Z</time>
      </trkpt>
      <trkpt lat="48.42772" lon="7.25318">
        <ele>780.47</ele>
        <time>2020-01-15T12:12:38.000Z</time>
      </trkpt>
      <trkpt lat="48.42771" lon="7.25309">
        <ele>781.22</ele>
        <time>2020-01-15T12:12:48.000Z</time>
      </trkpt>
      <trkpt lat="48.4277" lon="7.25312">
        <ele>782.97</ele>
        <time>2020-01-15T12:12:58.000Z</time>
      </trkpt>
      <trkpt lat="48.42763" lon="7.25322">
        <ele>783.23</ele>
        <time>2020-01-15T12:13:08.000Z</time>
      </trkpt>
      <trkpt lat="48.42758" lon="7.25316">
        <ele>781.98</ele>
        <time>2020-01-15T12:13:18.000Z</time>
      </trkpt>
      <trkpt lat="48.4276" lon="7.25305">
        <ele>783.16</ele>
        <time>2020-01-15T12:13:28.000Z</time>
      </trkpt>
      <trkpt lat="48.42756" lon="7.25306">
        <ele>783.22</ele>
        <time>2020-01-15T12:13:38.000Z</time>
      </trkpt>
      <trkpt lat="48.42749" lon="7.2531">
        <ele>788.15</ele>
        <time>2020-01-15T12:13:48.000Z</time>
      </trkpt>
      <trkpt lat="48.42742" lon="7.25311">
        <ele>790.22</ele>
        <time>2020-01-15T12:13:58.000Z</time>
      </trkpt>
      <trkpt lat="48.42738" lon="7.25311">
        <ele>793.27</ele>
        <time>2020-01-15T12:14:08.000Z</time>
      </trkpt>
      <trkpt lat="48.42731" lon="7.25317">
        <ele>797.4</ele>
        <time>2020-01-15T12:14:18.000Z</time>
      </trkpt>
      <trkpt lat="48.42723" lon="7.25321">
        <ele>799.22</ele>
        <time>2020-01-15T12:14:28.000Z</time>
      </trkpt>
      <trkpt lat="48.42719" lon="7.25326">
        <ele>801.21</ele>
        <time>2020-01-15T12:14:38.000Z</time>
      </trkpt>
      <trkpt lat="48.42712" lon="7.25327">
        <ele>802.22</ele>
        <time>2020-01-15T12:14:48.000Z</time>
      </trkpt>
      <trkpt lat="48.42707" lon="7.25333">
        <ele>804.99</ele>
        <time>2020-01-15T12:14:58.000Z</time>
      </trkpt>
      <trkpt lat="48.427" lon="7.25341">
        <ele>807.94</ele>
        <time>2020-01-15T12:15:08.000Z</time>
      </trkpt>
      <trkpt lat="48.42694" lon="7.2534">
        <ele>807.47</ele>
        <time>2020-01-15T12:15:18.000Z</time>
      </trkpt>
      <trkpt lat="48.42699" lon="7.25327">
        <ele>808.16</ele>
        <time>2020-01-15T12:15:28.000Z</time>
      </trkpt>
      <trkpt lat="48.42701" lon="7.25315">
        <ele>808.23</ele>
        <time>2020-01-15T12:15:38.000Z</time>
      </trkpt>
      <trkpt lat="48.42708" lon="7.25303">
        <ele>811.91</ele>
        <time>2020-01-15T12:15:48.000Z</time>
      </trkpt>
      <trkpt lat="48.42711" lon="7.25289">
        <ele>815.41</ele>
        <time>2020-01-15T12:15:58.000Z</time>
      </trkpt>
      <trkpt lat="48.42713" lon="7.25277">
        <ele>817.16</ele>
        <time>2020-01-15T12:16:08.000Z</time>
      </trkpt>
      <trkpt lat="48.42708" lon="7.25271">
        <ele>818.45</ele>
        <time>2020-01-15T12:16:18.000Z</time>
      </trkpt>
      <trkpt lat="48.42702" lon="7.25286">
        <ele>818.22</ele>
        <time>2020-01-15T12:16:28.000Z</time>
      </trkpt>
      <trkpt lat="48.42697" lon="7.25294">
        <ele>820.46</ele>
        <time>2020-01-15T12:16:38.000Z</time>
      </trkpt>
      <trkpt lat="48.42697" lon="7.25285">
        <ele>820.21</ele>
        <time>2020-01-15T12:16:48.000Z</time>
      </trkpt>
      <trkpt lat="48.42698" lon="7.25275">
        <ele>823.1</ele>
        <time>2020-01-15T12:16:58.000Z</time>
      </trkpt>
      <trkpt lat="48.42697" lon="7.25263">
        <ele>824.17</ele>
        <time>2020-01-15T12:17:08.000Z</time>
      </trkpt>
      <trkpt lat="48.42697" lon="7.25252">
        <ele>825.97</ele>
        <time>2020-01-15T12:17:18.000Z</time>
      </trkpt>
      <trkpt lat="48.42697" lon="7.25242">
        <ele>827.28</ele>
        <time>2020-01-15T12:17:28.000Z</time>
      </trkpt>
      <trkpt lat="48.42697" lon="7.2523">
        <ele>831.21</ele>
        <time>2020-01-15T12:17:38.000Z</time>
      </trkpt>
      <trkpt lat="48.42698" lon="7.25218">
        <ele>834.16</ele>
        <time>2020-01-15T12:17:48.000Z</time>
      </trkpt>
      <trkpt lat="48.427" lon="7.25208">
        <ele>836.16</ele>
        <time>2020-01-15T12:17:58.000Z</time>
      </trkpt>
      <trkpt lat="48.42704" lon="7.25196">
        <ele>835.21</ele>
        <time>2020-01-15T12:18:08.000Z</time>
      </trkpt>
      <trkpt lat="48.4271" lon="7.25184">
        <ele>834.22</ele>
        <time>2020-01-15T12:18:18.000Z</time>
      </trkpt>
      <trkpt lat="48.42716" lon="7.25175">
        <ele>835.47</ele>
        <time>2020-01-15T12:18:28.000Z</time>
      </trkpt>
      <trkpt lat="48.4272" lon="7.2517">
        <ele>837.22</ele>
        <time>2020-01-15T12:18:38.000Z</time>
      </trkpt>
      <trkpt lat="48.42726" lon="7.25161">
        <ele>838.16</ele>
        <time>2020-01-15T12:18:48.000Z</time>
      </trkpt>
      <trkpt lat="48.4273" lon="7.25157">
        <ele>840.22</ele>
        <time>2020-01-15T12:18:58.000Z</time>
      </trkpt>
      <trkpt lat="48.42735" lon="7.25147">
        <ele>841.47</ele>
        <time>2020-01-15T12:19:08.000Z</time>
      </trkpt>
      <trkpt lat="48.42744" lon="7.25139">
        <ele>841.27</ele>
        <time>2020-01-15T12:19:18.000Z</time>
      </trkpt>
      <trkpt lat="48.4275" lon="7.25132">
        <ele>842.96</ele>
        <time>2020-01-15T12:19:28.000Z</time>
      </trkpt>
      <trkpt lat="48.42758" lon="7.25122">
        <ele>846.03</ele>
        <time>2020-01-15T12:19:38.000Z</time>
      </trkpt>
      <trkpt lat="48.42764" lon="7.25108">
        <ele>846.97</ele>
        <time>2020-01-15T12:19:48.000Z</time>
      </trkpt>
      <trkpt lat="48.42765" lon="7.25096">
        <ele>847.22</ele>
        <time>2020-01-15T12:19:58.000Z</time>
      </trkpt>
      <trkpt lat="48.42767" lon="7.25083">
        <ele>847.22</ele>
        <time>2020-01-15T12:20:08.000Z</time>
      </trkpt>
      <trkpt lat="48.42771" lon="7.25068">
        <ele>848.21</ele>
        <time>2020-01-15T12:20:18.000Z</time>
      </trkpt>
      <trkpt lat="48.42776" lon="7.25058">
        <ele>849.22</ele>
        <time>2020-01-15T12:20:28.000Z</time>
      </trkpt>
      <trkpt lat="48.42779" lon="7.25042">
        <ele>849.21</ele>
        <time>2020-01-15T12:20:38.000Z</time>
      </trkpt>
      <trkpt lat="48.42784" lon="7.25042">
        <ele>850.02</ele>
        <time>2020-01-15T12:20:48.000Z</time>
      </trkpt>
      <trkpt lat="48.42786" lon="7.25041">
        <ele>849.22</ele>
        <time>2020-01-15T12:20:58.000Z</time>
      </trkpt>
      <trkpt lat="48.42794" lon="7.25037">
        <ele>848.22</ele>
        <time>2020-01-15T12:21:08.000Z</time>
      </trkpt>
      <trkpt lat="48.428" lon="7.25024">
        <ele>847.24</ele>
        <time>2020-01-15T12:21:18.000Z</time>
      </trkpt>
      <trkpt lat="48.42805" lon="7.25012">
        <ele>846.22</ele>
        <time>2020-01-15T12:21:28.000Z</time>
      </trkpt>
      <trkpt lat="48.42811" lon="7.24999">
        <ele>847.22</ele>
        <time>2020-01-15T12:21:38.000Z</time>
      </trkpt>
      <trkpt lat="48.42813" lon="7.24987">
        <ele>846.22</ele>
        <time>2020-01-15T12:21:48.000Z</time>
      </trkpt>
      <trkpt lat="48.42817" lon="7.24971">
        <ele>846.22</ele>
        <time>2020-01-15T12:21:58.000Z</time>
      </trkpt>
      <trkpt lat="48.42815" lon="7.24953">
        <ele>844.29</ele>
        <time>2020-01-15T12:22:08.000Z</time>
      </trkpt>
      <trkpt lat="48.42816" lon="7.24943">
        <ele>844.22</ele>
        <time>2020-01-15T12:22:18.000Z</time>
      </trkpt>
      <trkpt lat="48.42816" lon="7.24926">
        <ele>846.89</ele>
        <time>2020-01-15T12:22:28.000Z</time>
      </trkpt>
      <trkpt lat="48.42819" lon="7.2491">
        <ele>847.16</ele>
        <time>2020-01-15T12:22:38.000Z</time>
      </trkpt>
      <trkpt lat="48.4282" lon="7.24896">
        <ele>844.3</ele>
        <time>2020-01-15T12:22:48.000Z</time>
      </trkpt>
      <trkpt lat="48.42822" lon="7.24882">
        <ele>842.97</ele>
        <time>2020-01-15T12:22:58.000Z</time>
      </trkpt>
      <trkpt lat="48.42825" lon="7.2488">
        <ele>840.47</ele>
        <time>2020-01-15T12:23:08.000Z</time>
      </trkpt>
      <trkpt lat="48.42825" lon="7.24871">
        <ele>836.22</ele>
        <time>2020-01-15T12:23:18.000Z</time>
      </trkpt>
      <trkpt lat="48.42826" lon="7.24868">
        <ele>836.97</ele>
        <time>2020-01-15T12:23:28.000Z</time>
      </trkpt>
      <trkpt lat="48.42828" lon="7.24855">
        <ele>834.22</ele>
        <time>2020-01-15T12:23:38.000Z</time>
      </trkpt>
      <trkpt lat="48.4283" lon="7.2484">
        <ele>838.16</ele>
        <time>2020-01-15T12:23:48.000Z</time>
      </trkpt>
      <trkpt lat="48.42829" lon="7.24831">
        <ele>835.22</ele>
        <time>2020-01-15T12:23:58.000Z</time>
      </trkpt>
      <trkpt lat="48.42828" lon="7.24826">
        <ele>835.22</ele>
        <time>2020-01-15T12:24:08.000Z</time>
      </trkpt>
      <trkpt lat="48.42824" lon="7.2481">
        <ele>835.22</ele>
        <time>2020-01-15T12:24:18.000Z</time>
      </trkpt>
      <trkpt lat="48.42823" lon="7.24792">
        <ele>834.22</ele>
        <time>2020-01-15T12:24:28.000Z</time>
      </trkpt>
      <trkpt lat="48.42824" lon="7.2478">
        <ele>834.22</ele>
        <time>2020-01-15T12:24:38.000Z</time>
      </trkpt>
      <trkpt lat="48.42824" lon="7.24774">
        <ele>835.97</ele>
        <time>2020-01-15T12:24:48.000Z</time>
      </trkpt>
      <trkpt lat="48.42822" lon="7.24766">
        <ele>833.22</ele>
        <time>2020-01-15T12:24:58.000Z</time>
      </trkpt>
      <trkpt lat="48.42818" lon="7.24753">
        <ele>833.22</ele>
        <time>2020-01-15T12:25:08.000Z</time>
      </trkpt>
      <trkpt lat="48.42811" lon="7.2474">
        <ele>832.21</ele>
        <time>2020-01-15T12:25:18.000Z</time>
      </trkpt>
      <trkpt lat="48.42806" lon="7.24727">
        <ele>831.22</ele>
        <time>2020-01-15T12:25:28.000Z</time>
      </trkpt>
      <trkpt lat="48.42808" lon="7.24712">
        <ele>832.22</ele>
        <time>2020-01-15T12:25:38.000Z</time>
      </trkpt>
      <trkpt lat="48.42805" lon="7.24694">
        <ele>832.22</ele>
        <time>2020-01-15T12:25:48.000Z</time>
      </trkpt>
      <trkpt lat="48.42805" lon="7.24682">
        <ele>831.47</ele>
        <time>2020-01-15T12:25:58.000Z</time>
      </trkpt>
      <trkpt lat="48.42806" lon="7.24666">
        <ele>831.23</ele>
        <time>2020-01-15T12:26:08.000Z</time>
      </trkpt>
      <trkpt lat="48.42811" lon="7.24663">
        <ele>828.29</ele>
        <time>2020-01-15T12:26:18.000Z</time>
      </trkpt>
      <trkpt lat="48.42813" lon="7.24666">
        <ele>826.97</ele>
        <time>2020-01-15T12:26:29.000Z</time>
      </trkpt>
      <trkpt lat="48.42803" lon="7.2466">
        <ele>825.41</ele>
        <time>2020-01-15T12:27:01.000Z</time>
      </trkpt>
      <trkpt lat="48.42806" lon="7.24669">
        <ele>819.22</ele>
        <time>2020-01-15T12:27:11.000Z</time>
      </trkpt>
      <trkpt lat="48.42807" lon="7.24672">
        <ele>818.22</ele>
        <time>2020-01-15T12:27:21.000Z</time>
      </trkpt>
      <trkpt lat="48.42808" lon="7.24675">
        <ele>820.47</ele>
        <time>2020-01-15T12:27:39.000Z</time>
      </trkpt>
      <trkpt lat="48.42808" lon="7.24678">
        <ele>823.22</ele>
        <time>2020-01-15T12:27:49.000Z</time>
      </trkpt>
      <trkpt lat="48.42806" lon="7.24676">
        <ele>822.47</ele>
        <time>2020-01-15T12:28:15.000Z</time>
      </trkpt>
      <trkpt lat="48.42806" lon="7.24661">
        <ele>818.24</ele>
        <time>2020-01-15T12:28:25.000Z</time>
      </trkpt>
      <trkpt lat="48.42806" lon="7.24642">
        <ele>816.28</ele>
        <time>2020-01-15T12:28:35.000Z</time>
      </trkpt>
      <trkpt lat="48.428" lon="7.24626">
        <ele>813.47</ele>
        <time>2020-01-15T12:28:45.000Z</time>
      </trkpt>
      <trkpt lat="48.42793" lon="7.24613">
        <ele>811.27</ele>
        <time>2020-01-15T12:28:55.000Z</time>
      </trkpt>
      <trkpt lat="48.42786" lon="7.24595">
        <ele>811.2</ele>
        <time>2020-01-15T12:29:05.000Z</time>
      </trkpt>
      <trkpt lat="48.4278" lon="7.2458">
        <ele>813.97</ele>
        <time>2020-01-15T12:29:15.000Z</time>
      </trkpt>
      <trkpt lat="48.42773" lon="7.24569">
        <ele>813.24</ele>
        <time>2020-01-15T12:29:25.000Z</time>
      </trkpt>
      <trkpt lat="48.4277" lon="7.24558">
        <ele>814.22</ele>
        <time>2020-01-15T12:29:35.000Z</time>
      </trkpt>
      <trkpt lat="48.42768" lon="7.24557">
        <ele>813.47</ele>
        <time>2020-01-15T12:29:50.000Z</time>
      </trkpt>
      <trkpt lat="48.42764" lon="7.24548">
        <ele>815.2</ele>
        <time>2020-01-15T12:30:00.000Z</time>
      </trkpt>
      <trkpt lat="48.42757" lon="7.24534">
        <ele>816.16</ele>
        <time>2020-01-15T12:30:10.000Z</time>
      </trkpt>
      <trkpt lat="48.4275" lon="7.2452">
        <ele>815.47</ele>
        <time>2020-01-15T12:30:20.000Z</time>
      </trkpt>
      <trkpt lat="48.42743" lon="7.24507">
        <ele>814.28</ele>
        <time>2020-01-15T12:30:30.000Z</time>
      </trkpt>
      <trkpt lat="48.42734" lon="7.24491">
        <ele>814.97</ele>
        <time>2020-01-15T12:30:40.000Z</time>
      </trkpt>
      <trkpt lat="48.42725" lon="7.24474">
        <ele>817.47</ele>
        <time>2020-01-15T12:30:50.000Z</time>
      </trkpt>
      <trkpt lat="48.4272" lon="7.24462">
        <ele>817.23</ele>
        <time>2020-01-15T12:31:00.000Z</time>
      </trkpt>
      <trkpt lat="48.42714" lon="7.24445">
        <ele>816.22</ele>
        <time>2020-01-15T12:31:10.000Z</time>
      </trkpt>
      <trkpt lat="48.42707" lon="7.2443">
        <ele>816.22</ele>
        <time>2020-01-15T12:31:20.000Z</time>
      </trkpt>
      <trkpt lat="48.42703" lon="7.24414">
        <ele>812.97</ele>
        <time>2020-01-15T12:31:30.000Z</time>
      </trkpt>
      <trkpt lat="48.427" lon="7.24398">
        <ele>814.22</ele>
        <time>2020-01-15T12:31:40.000Z</time>
      </trkpt>
      <trkpt lat="48.42691" lon="7.24384">
        <ele>814.22</ele>
        <time>2020-01-15T12:31:50.000Z</time>
      </trkpt>
      <trkpt lat="48.42685" lon="7.24365">
        <ele>815.28</ele>
        <time>2020-01-15T12:32:00.000Z</time>
      </trkpt>
      <trkpt lat="48.42678" lon="7.24347">
        <ele>815.28</ele>
        <time>2020-01-15T12:32:10.000Z</time>
      </trkpt>
      <trkpt lat="48.42675" lon="7.24334">
        <ele>813.47</ele>
        <time>2020-01-15T12:32:20.000Z</time>
      </trkpt>
      <trkpt lat="48.42668" lon="7.24318">
        <ele>813.2</ele>
        <time>2020-01-15T12:32:30.000Z</time>
      </trkpt>
      <trkpt lat="48.42659" lon="7.24303">
        <ele>812.22</ele>
        <time>2020-01-15T12:32:40.000Z</time>
      </trkpt>
      <trkpt lat="48.42653" lon="7.24287">
        <ele>812.2</ele>
        <time>2020-01-15T12:32:50.000Z</time>
      </trkpt>
      <trkpt lat="48.42642" lon="7.24274">
        <ele>811.23</ele>
        <time>2020-01-15T12:33:00.000Z</time>
      </trkpt>
      <trkpt lat="48.42632" lon="7.2426">
        <ele>808.53</ele>
        <time>2020-01-15T12:33:10.000Z</time>
      </trkpt>
      <trkpt lat="48.42626" lon="7.24248">
        <ele>807.23</ele>
        <time>2020-01-15T12:33:20.000Z</time>
      </trkpt>
      <trkpt lat="48.42614" lon="7.24244">
        <ele>806.22</ele>
        <time>2020-01-15T12:33:30.000Z</time>
      </trkpt>
      <trkpt lat="48.42603" lon="7.24243">
        <ele>805.22</ele>
        <time>2020-01-15T12:33:40.000Z</time>
      </trkpt>
      <trkpt lat="48.42594" lon="7.24241">
        <ele>804.28</ele>
        <time>2020-01-15T12:33:50.000Z</time>
      </trkpt>
      <trkpt lat="48.42591" lon="7.24226">
        <ele>806.15</ele>
        <time>2020-01-15T12:34:00.000Z</time>
      </trkpt>
      <trkpt lat="48.42595" lon="7.24221">
        <ele>803.55</ele>
        <time>2020-01-15T12:34:10.000Z</time>
      </trkpt>
      <trkpt lat="48.42602" lon="7.24212">
        <ele>800.48</ele>
        <time>2020-01-15T12:34:20.000Z</time>
      </trkpt>
      <trkpt lat="48.42614" lon="7.24202">
        <ele>800.22</ele>
        <time>2020-01-15T12:34:30.000Z</time>
      </trkpt>
      <trkpt lat="48.42622" lon="7.2419">
        <ele>799.97</ele>
        <time>2020-01-15T12:34:40.000Z</time>
      </trkpt>
      <trkpt lat="48.42631" lon="7.24177">
        <ele>799.22</ele>
        <time>2020-01-15T12:34:50.000Z</time>
      </trkpt>
      <trkpt lat="48.42634" lon="7.24163">
        <ele>797.23</ele>
        <time>2020-01-15T12:35:00.000Z</time>
      </trkpt>
      <trkpt lat="48.4264" lon="7.24146">
        <ele>794.3</ele>
        <time>2020-01-15T12:35:10.000Z</time>
      </trkpt>
      <trkpt lat="48.42643" lon="7.24132">
        <ele>792.47</ele>
        <time>2020-01-15T12:35:20.000Z</time>
      </trkpt>
      <trkpt lat="48.42648" lon="7.24117">
        <ele>790.28</ele>
        <time>2020-01-15T12:35:30.000Z</time>
      </trkpt>
      <trkpt lat="48.42654" lon="7.24102">
        <ele>789.22</ele>
        <time>2020-01-15T12:35:40.000Z</time>
      </trkpt>
      <trkpt lat="48.42658" lon="7.24086">
        <ele>788.26</ele>
        <time>2020-01-15T12:35:50.000Z</time>
      </trkpt>
      <trkpt lat="48.42662" lon="7.24066">
        <ele>786.22</ele>
        <time>2020-01-15T12:36:00.000Z</time>
      </trkpt>
      <trkpt lat="48.42663" lon="7.24051">
        <ele>786.22</ele>
        <time>2020-01-15T12:36:10.000Z</time>
      </trkpt>
      <trkpt lat="48.42666" lon="7.24034">
        <ele>784.22</ele>
        <time>2020-01-15T12:36:20.000Z</time>
      </trkpt>
      <trkpt lat="48.42669" lon="7.24012">
        <ele>782.03</ele>
        <time>2020-01-15T12:36:30.000Z</time>
      </trkpt>
      <trkpt lat="48.42676" lon="7.23998">
        <ele>785.96</ele>
        <time>2020-01-15T12:36:40.000Z</time>
      </trkpt>
      <trkpt lat="48.4268" lon="7.23989">
        <ele>788.21</ele>
        <time>2020-01-15T12:36:50.000Z</time>
      </trkpt>
      <trkpt lat="48.42686" lon="7.23974">
        <ele>790.28</ele>
        <time>2020-01-15T12:37:00.000Z</time>
      </trkpt>
      <trkpt lat="48.42694" lon="7.23966">
        <ele>785.24</ele>
        <time>2020-01-15T12:37:10.000Z</time>
      </trkpt>
      <trkpt lat="48.42701" lon="7.23962">
        <ele>785.22</ele>
        <time>2020-01-15T12:37:20.000Z</time>
      </trkpt>
      <trkpt lat="48.42708" lon="7.23955">
        <ele>783.23</ele>
        <time>2020-01-15T12:37:30.000Z</time>
      </trkpt>
      <trkpt lat="48.42716" lon="7.23948">
        <ele>782.17</ele>
        <time>2020-01-15T12:37:40.000Z</time>
      </trkpt>
      <trkpt lat="48.42724" lon="7.23937">
        <ele>781.23</ele>
        <time>2020-01-15T12:37:50.000Z</time>
      </trkpt>
      <trkpt lat="48.4273" lon="7.23929">
        <ele>780.22</ele>
        <time>2020-01-15T12:38:00.000Z</time>
      </trkpt>
      <trkpt lat="48.42739" lon="7.23921">
        <ele>778.22</ele>
        <time>2020-01-15T12:38:10.000Z</time>
      </trkpt>
      <trkpt lat="48.4275" lon="7.23912">
        <ele>778.22</ele>
        <time>2020-01-15T12:38:20.000Z</time>
      </trkpt>
      <trkpt lat="48.42761" lon="7.23904">
        <ele>776.47</ele>
        <time>2020-01-15T12:38:30.000Z</time>
      </trkpt>
      <trkpt lat="48.4277" lon="7.23893">
        <ele>776.22</ele>
        <time>2020-01-15T12:38:40.000Z</time>
      </trkpt>
      <trkpt lat="48.42779" lon="7.2388">
        <ele>775.28</ele>
        <time>2020-01-15T12:38:50.000Z</time>
      </trkpt>
      <trkpt lat="48.42787" lon="7.23868">
        <ele>776.14</ele>
        <time>2020-01-15T12:39:00.000Z</time>
      </trkpt>
      <trkpt lat="48.42794" lon="7.23854">
        <ele>776.16</ele>
        <time>2020-01-15T12:39:10.000Z</time>
      </trkpt>
      <trkpt lat="48.42804" lon="7.23839">
        <ele>777.22</ele>
        <time>2020-01-15T12:39:20.000Z</time>
      </trkpt>
      <trkpt lat="48.4281" lon="7.23825">
        <ele>777.03</ele>
        <time>2020-01-15T12:39:30.000Z</time>
      </trkpt>
      <trkpt lat="48.42816" lon="7.2381">
        <ele>777.17</ele>
        <time>2020-01-15T12:39:40.000Z</time>
      </trkpt>
      <trkpt lat="48.42823" lon="7.23797">
        <ele>777.22</ele>
        <time>2020-01-15T12:39:50.000Z</time>
      </trkpt>
      <trkpt lat="48.42826" lon="7.23777">
        <ele>778.03</ele>
        <time>2020-01-15T12:40:00.000Z</time>
      </trkpt>
      <trkpt lat="48.4283" lon="7.23762">
        <ele>778.98</ele>
        <time>2020-01-15T12:40:10.000Z</time>
      </trkpt>
      <trkpt lat="48.42834" lon="7.23758">
        <ele>787.22</ele>
        <time>2020-01-15T12:40:20.000Z</time>
      </trkpt>
      <trkpt lat="48.42836" lon="7.23759">
        <ele>788.21</ele>
        <time>2020-01-15T12:40:30.000Z</time>
      </trkpt>
      <trkpt lat="48.42836" lon="7.23761">
        <ele>787.47</ele>
        <time>2020-01-15T12:41:39.000Z</time>
      </trkpt>
      <trkpt lat="48.42838" lon="7.23762">
        <ele>788.72</ele>
        <time>2020-01-15T12:41:53.000Z</time>
      </trkpt>
      <trkpt lat="48.42844" lon="7.23753">
        <ele>788.23</ele>
        <time>2020-01-15T12:42:03.000Z</time>
      </trkpt>
      <trkpt lat="48.4285" lon="7.2374">
        <ele>786.47</ele>
        <time>2020-01-15T12:42:13.000Z</time>
      </trkpt>
      <trkpt lat="48.42858" lon="7.23726">
        <ele>788.2</ele>
        <time>2020-01-15T12:42:23.000Z</time>
      </trkpt>
      <trkpt lat="48.42863" lon="7.23711">
        <ele>788.47</ele>
        <time>2020-01-15T12:42:33.000Z</time>
      </trkpt>
      <trkpt lat="48.42866" lon="7.23694">
        <ele>789.2</ele>
        <time>2020-01-15T12:42:43.000Z</time>
      </trkpt>
      <trkpt lat="48.42871" lon="7.23679">
        <ele>787.47</ele>
        <time>2020-01-15T12:42:53.000Z</time>
      </trkpt>
      <trkpt lat="48.42872" lon="7.23662">
        <ele>785.28</ele>
        <time>2020-01-15T12:43:03.000Z</time>
      </trkpt>
      <trkpt lat="48.42874" lon="7.23648">
        <ele>785.22</ele>
        <time>2020-01-15T12:43:13.000Z</time>
      </trkpt>
      <trkpt lat="48.42881" lon="7.23636">
        <ele>786.2</ele>
        <time>2020-01-15T12:43:23.000Z</time>
      </trkpt>
      <trkpt lat="48.42888" lon="7.23627">
        <ele>784.22</ele>
        <time>2020-01-15T12:43:33.000Z</time>
      </trkpt>
      <trkpt lat="48.42896" lon="7.23618">
        <ele>781.47</ele>
        <time>2020-01-15T12:43:43.000Z</time>
      </trkpt>
      <trkpt lat="48.42903" lon="7.23603">
        <ele>781.28</ele>
        <time>2020-01-15T12:43:53.000Z</time>
      </trkpt>
      <trkpt lat="48.4291" lon="7.23591">
        <ele>780.22</ele>
        <time>2020-01-15T12:44:03.000Z</time>
      </trkpt>
      <trkpt lat="48.42917" lon="7.23576">
        <ele>779.46</ele>
        <time>2020-01-15T12:44:13.000Z</time>
      </trkpt>
      <trkpt lat="48.42923" lon="7.2356">
        <ele>780.2</ele>
        <time>2020-01-15T12:44:23.000Z</time>
      </trkpt>
      <trkpt lat="48.42929" lon="7.23546">
        <ele>779.22</ele>
        <time>2020-01-15T12:44:33.000Z</time>
      </trkpt>
      <trkpt lat="48.42938" lon="7.23528">
        <ele>780.22</ele>
        <time>2020-01-15T12:44:43.000Z</time>
      </trkpt>
      <trkpt lat="48.42942" lon="7.23512">
        <ele>781.22</ele>
        <time>2020-01-15T12:44:53.000Z</time>
      </trkpt>
      <trkpt lat="48.42949" lon="7.23499">
        <ele>784.22</ele>
        <time>2020-01-15T12:45:03.000Z</time>
      </trkpt>
      <trkpt lat="48.42954" lon="7.23488">
        <ele>782.99</ele>
        <time>2020-01-15T12:45:13.000Z</time>
      </trkpt>
      <trkpt lat="48.42957" lon="7.23478">
        <ele>784.22</ele>
        <time>2020-01-15T12:45:23.000Z</time>
      </trkpt>
      <trkpt lat="48.4296" lon="7.23462">
        <ele>782.22</ele>
        <time>2020-01-15T12:45:33.000Z</time>
      </trkpt>
      <trkpt lat="48.4296" lon="7.23448">
        <ele>782.21</ele>
        <time>2020-01-15T12:45:43.000Z</time>
      </trkpt>
      <trkpt lat="48.42955" lon="7.23434">
        <ele>782.22</ele>
        <time>2020-01-15T12:45:53.000Z</time>
      </trkpt>
      <trkpt lat="48.42946" lon="7.23421">
        <ele>779.22</ele>
        <time>2020-01-15T12:46:03.000Z</time>
      </trkpt>
      <trkpt lat="48.42941" lon="7.23415">
        <ele>777.23</ele>
        <time>2020-01-15T12:46:13.000Z</time>
      </trkpt>
      <trkpt lat="48.42932" lon="7.23408">
        <ele>775.97</ele>
        <time>2020-01-15T12:46:23.000Z</time>
      </trkpt>
      <trkpt lat="48.42924" lon="7.23403">
        <ele>777.22</ele>
        <time>2020-01-15T12:46:33.000Z</time>
      </trkpt>
      <trkpt lat="48.42917" lon="7.23395">
        <ele>775.28</ele>
        <time>2020-01-15T12:46:43.000Z</time>
      </trkpt>
      <trkpt lat="48.42912" lon="7.23388">
        <ele>773.28</ele>
        <time>2020-01-15T12:46:53.000Z</time>
      </trkpt>
      <trkpt lat="48.42905" lon="7.23378">
        <ele>771.03</ele>
        <time>2020-01-15T12:47:03.000Z</time>
      </trkpt>
      <trkpt lat="48.42896" lon="7.23373">
        <ele>767.29</ele>
        <time>2020-01-15T12:47:13.000Z</time>
      </trkpt>
      <trkpt lat="48.42888" lon="7.23363">
        <ele>764.46</ele>
        <time>2020-01-15T12:47:23.000Z</time>
      </trkpt>
      <trkpt lat="48.4288" lon="7.23353">
        <ele>761.22</ele>
        <time>2020-01-15T12:47:33.000Z</time>
      </trkpt>
      <trkpt lat="48.42873" lon="7.23345">
        <ele>761.22</ele>
        <time>2020-01-15T12:47:43.000Z</time>
      </trkpt>
      <trkpt lat="48.42864" lon="7.23327">
        <ele>762.22</ele>
        <time>2020-01-15T12:47:53.000Z</time>
      </trkpt>
      <trkpt lat="48.42856" lon="7.23311">
        <ele>761.28</ele>
        <time>2020-01-15T12:48:03.000Z</time>
      </trkpt>
      <trkpt lat="48.42849" lon="7.23302">
        <ele>762.22</ele>
        <time>2020-01-15T12:48:13.000Z</time>
      </trkpt>
      <trkpt lat="48.42841" lon="7.23287">
        <ele>760.23</ele>
        <time>2020-01-15T12:48:23.000Z</time>
      </trkpt>
      <trkpt lat="48.42835" lon="7.23267">
        <ele>758.03</ele>
        <time>2020-01-15T12:48:33.000Z</time>
      </trkpt>
      <trkpt lat="48.42832" lon="7.23248">
        <ele>755.15</ele>
        <time>2020-01-15T12:48:43.000Z</time>
      </trkpt>
      <trkpt lat="48.42826" lon="7.23232">
        <ele>756.22</ele>
        <time>2020-01-15T12:48:53.000Z</time>
      </trkpt>
      <trkpt lat="48.4282" lon="7.23217">
        <ele>755.17</ele>
        <time>2020-01-15T12:49:03.000Z</time>
      </trkpt>
      <trkpt lat="48.42817" lon="7.23206">
        <ele>752.22</ele>
        <time>2020-01-15T12:49:13.000Z</time>
      </trkpt>
      <trkpt lat="48.42812" lon="7.23191">
        <ele>748.47</ele>
        <time>2020-01-15T12:49:23.000Z</time>
      </trkpt>
      <trkpt lat="48.42806" lon="7.23176">
        <ele>745.03</ele>
        <time>2020-01-15T12:49:33.000Z</time>
      </trkpt>
      <trkpt lat="48.42801" lon="7.23161">
        <ele>745.97</ele>
        <time>2020-01-15T12:49:43.000Z</time>
      </trkpt>
      <trkpt lat="48.42797" lon="7.23143">
        <ele>747.21</ele>
        <time>2020-01-15T12:49:53.000Z</time>
      </trkpt>
      <trkpt lat="48.4279" lon="7.23127">
        <ele>747.22</ele>
        <time>2020-01-15T12:50:03.000Z</time>
      </trkpt>
      <trkpt lat="48.42784" lon="7.23111">
        <ele>745.22</ele>
        <time>2020-01-15T12:50:13.000Z</time>
      </trkpt>
      <trkpt lat="48.42779" lon="7.23098">
        <ele>743.98</ele>
        <time>2020-01-15T12:50:23.000Z</time>
      </trkpt>
      <trkpt lat="48.42771" lon="7.23084">
        <ele>744.22</ele>
        <time>2020-01-15T12:50:33.000Z</time>
      </trkpt>
      <trkpt lat="48.42766" lon="7.23072">
        <ele>745.2</ele>
        <time>2020-01-15T12:50:43.000Z</time>
      </trkpt>
      <trkpt lat="48.42759" lon="7.23055">
        <ele>743.48</ele>
        <time>2020-01-15T12:50:53.000Z</time>
      </trkpt>
      <trkpt lat="48.42755" lon="7.23044">
        <ele>743.22</ele>
        <time>2020-01-15T12:51:03.000Z</time>
      </trkpt>
      <trkpt lat="48.42747" lon="7.23031">
        <ele>741.22</ele>
        <time>2020-01-15T12:51:13.000Z</time>
      </trkpt>
      <trkpt lat="48.42741" lon="7.23019">
        <ele>740.23</ele>
        <time>2020-01-15T12:51:23.000Z</time>
      </trkpt>
      <trkpt lat="48.42736" lon="7.23008">
        <ele>739.23</ele>
        <time>2020-01-15T12:51:33.000Z</time>
      </trkpt>
      <trkpt lat="48.42731" lon="7.22995">
        <ele>736.53</ele>
        <time>2020-01-15T12:51:43.000Z</time>
      </trkpt>
      <trkpt lat="48.42725" lon="7.22982">
        <ele>734.28</ele>
        <time>2020-01-15T12:51:53.000Z</time>
      </trkpt>
      <trkpt lat="48.4272" lon="7.22974">
        <ele>735.21</ele>
        <time>2020-01-15T12:52:03.000Z</time>
      </trkpt>
      <trkpt lat="48.42713" lon="7.2296">
        <ele>733.47</ele>
        <time>2020-01-15T12:52:13.000Z</time>
      </trkpt>
      <trkpt lat="48.42709" lon="7.22947">
        <ele>731.47</ele>
        <time>2020-01-15T12:52:23.000Z</time>
      </trkpt>
      <trkpt lat="48.42703" lon="7.22936">
        <ele>729.23</ele>
        <time>2020-01-15T12:52:33.000Z</time>
      </trkpt>
      <trkpt lat="48.42702" lon="7.2292">
        <ele>731.21</ele>
        <time>2020-01-15T12:52:43.000Z</time>
      </trkpt>
      <trkpt lat="48.42701" lon="7.22906">
        <ele>730.27</ele>
        <time>2020-01-15T12:52:53.000Z</time>
      </trkpt>
      <trkpt lat="48.42697" lon="7.22891">
        <ele>730.15</ele>
        <time>2020-01-15T12:53:03.000Z</time>
      </trkpt>
      <trkpt lat="48.42695" lon="7.22875">
        <ele>727.48</ele>
        <time>2020-01-15T12:53:13.000Z</time>
      </trkpt>
      <trkpt lat="48.42691" lon="7.22863">
        <ele>726.22</ele>
        <time>2020-01-15T12:53:23.000Z</time>
      </trkpt>
      <trkpt lat="48.42687" lon="7.22853">
        <ele>724.23</ele>
        <time>2020-01-15T12:53:33.000Z</time>
      </trkpt>
      <trkpt lat="48.42683" lon="7.22844">
        <ele>722.48</ele>
        <time>2020-01-15T12:53:43.000Z</time>
      </trkpt>
      <trkpt lat="48.4268" lon="7.22831">
        <ele>717.47</ele>
        <time>2020-01-15T12:53:53.000Z</time>
      </trkpt>
      <trkpt lat="48.42676" lon="7.22817">
        <ele>717.28</ele>
        <time>2020-01-15T12:54:03.000Z</time>
      </trkpt>
      <trkpt lat="48.42671" lon="7.22801">
        <ele>714.29</ele>
        <time>2020-01-15T12:54:13.000Z</time>
      </trkpt>
      <trkpt lat="48.42668" lon="7.22788">
        <ele>712.23</ele>
        <time>2020-01-15T12:54:23.000Z</time>
      </trkpt>
      <trkpt lat="48.42669" lon="7.22774">
        <ele>709.28</ele>
        <time>2020-01-15T12:54:33.000Z</time>
      </trkpt>
      <trkpt lat="48.4267" lon="7.22758">
        <ele>706.28</ele>
        <time>2020-01-15T12:54:43.000Z</time>
      </trkpt>
      <trkpt lat="48.42672" lon="7.22738">
        <ele>705.28</ele>
        <time>2020-01-15T12:54:53.000Z</time>
      </trkpt>
      <trkpt lat="48.42679" lon="7.22721">
        <ele>706.21</ele>
        <time>2020-01-15T12:55:03.000Z</time>
      </trkpt>
      <trkpt lat="48.42681" lon="7.22705">
        <ele>706.21</ele>
        <time>2020-01-15T12:55:13.000Z</time>
      </trkpt>
      <trkpt lat="48.42684" lon="7.22691">
        <ele>705.22</ele>
        <time>2020-01-15T12:55:23.000Z</time>
      </trkpt>
      <trkpt lat="48.42691" lon="7.22674">
        <ele>704.21</ele>
        <time>2020-01-15T12:55:33.000Z</time>
      </trkpt>
      <trkpt lat="48.42695" lon="7.22658">
        <ele>702.46</ele>
        <time>2020-01-15T12:55:43.000Z</time>
      </trkpt>
      <trkpt lat="48.42697" lon="7.22644">
        <ele>703.21</ele>
        <time>2020-01-15T12:55:53.000Z</time>
      </trkpt>
      <trkpt lat="48.42701" lon="7.22625">
        <ele>703.21</ele>
        <time>2020-01-15T12:56:03.000Z</time>
      </trkpt>
      <trkpt lat="48.42702" lon="7.22606">
        <ele>703.26</ele>
        <time>2020-01-15T12:56:13.000Z</time>
      </trkpt>
      <trkpt lat="48.42704" lon="7.22591">
        <ele>704.21</ele>
        <time>2020-01-15T12:56:23.000Z</time>
      </trkpt>
      <trkpt lat="48.42707" lon="7.22569">
        <ele>704.97</ele>
        <time>2020-01-15T12:56:33.000Z</time>
      </trkpt>
      <trkpt lat="48.42708" lon="7.22545">
        <ele>706.96</ele>
        <time>2020-01-15T12:56:43.000Z</time>
      </trkpt>
      <trkpt lat="48.42711" lon="7.22522">
        <ele>711.95</ele>
        <time>2020-01-15T12:56:53.000Z</time>
      </trkpt>
      <trkpt lat="48.42712" lon="7.2252">
        <ele>714.21</ele>
        <time>2020-01-15T12:57:03.000Z</time>
      </trkpt>
      <trkpt lat="48.42713" lon="7.22518">
        <ele>715.21</ele>
        <time>2020-01-15T12:57:16.000Z</time>
      </trkpt>
      <trkpt lat="48.42715" lon="7.22505">
        <ele>715.2</ele>
        <time>2020-01-15T12:57:26.000Z</time>
      </trkpt>
      <trkpt lat="48.42714" lon="7.22503">
        <ele>715.21</ele>
        <time>2020-01-15T12:57:45.000Z</time>
      </trkpt>
      <trkpt lat="48.42715" lon="7.22486">
        <ele>716.22</ele>
        <time>2020-01-15T12:57:55.000Z</time>
      </trkpt>
      <trkpt lat="48.42716" lon="7.22468">
        <ele>715.98</ele>
        <time>2020-01-15T12:58:05.000Z</time>
      </trkpt>
      <trkpt lat="48.42715" lon="7.22449">
        <ele>716.2</ele>
        <time>2020-01-15T12:58:15.000Z</time>
      </trkpt>
      <trkpt lat="48.42715" lon="7.22434">
        <ele>718.21</ele>
        <time>2020-01-15T12:58:25.000Z</time>
      </trkpt>
      <trkpt lat="48.42713" lon="7.22418">
        <ele>716.23</ele>
        <time>2020-01-15T12:58:35.000Z</time>
      </trkpt>
      <trkpt lat="48.42711" lon="7.22403">
        <ele>717.21</ele>
        <time>2020-01-15T12:58:45.000Z</time>
      </trkpt>
      <trkpt lat="48.42711" lon="7.22391">
        <ele>717.21</ele>
        <time>2020-01-15T12:58:55.000Z</time>
      </trkpt>
      <trkpt lat="48.42716" lon="7.22386">
        <ele>715.22</ele>
        <time>2020-01-15T12:59:05.000Z</time>
      </trkpt>
      <trkpt lat="48.42714" lon="7.22386">
        <ele>715.21</ele>
        <time>2020-01-15T12:59:54.000Z</time>
      </trkpt>
      <trkpt lat="48.42712" lon="7.22372">
        <ele>715.15</ele>
        <time>2020-01-15T13:00:04.000Z</time>
      </trkpt>
      <trkpt lat="48.42709" lon="7.22354">
        <ele>715.23</ele>
        <time>2020-01-15T13:00:14.000Z</time>
      </trkpt>
      <trkpt lat="48.42706" lon="7.22339">
        <ele>713.41</ele>
        <time>2020-01-15T13:00:24.000Z</time>
      </trkpt>
      <trkpt lat="48.42702" lon="7.22323">
        <ele>713.23</ele>
        <time>2020-01-15T13:00:34.000Z</time>
      </trkpt>
      <trkpt lat="48.42699" lon="7.22307">
        <ele>713.21</ele>
        <time>2020-01-15T13:00:44.000Z</time>
      </trkpt>
      <trkpt lat="48.42694" lon="7.22293">
        <ele>712.4</ele>
        <time>2020-01-15T13:00:54.000Z</time>
      </trkpt>
      <trkpt lat="48.42694" lon="7.22275">
        <ele>711.47</ele>
        <time>2020-01-15T13:01:04.000Z</time>
      </trkpt>
      <trkpt lat="48.42695" lon="7.22258">
        <ele>710.21</ele>
        <time>2020-01-15T13:01:14.000Z</time>
      </trkpt>
      <trkpt lat="48.42694" lon="7.22238">
        <ele>711.03</ele>
        <time>2020-01-15T13:01:24.000Z</time>
      </trkpt>
      <trkpt lat="48.42694" lon="7.22234">
        <ele>710.21</ele>
        <time>2020-01-15T13:01:34.000Z</time>
      </trkpt>
      <trkpt lat="48.42693" lon="7.22221">
        <ele>710.96</ele>
        <time>2020-01-15T13:01:44.000Z</time>
      </trkpt>
      <trkpt lat="48.42691" lon="7.22204">
        <ele>711.96</ele>
        <time>2020-01-15T13:01:54.000Z</time>
      </trkpt>
      <trkpt lat="48.42687" lon="7.2219">
        <ele>712.97</ele>
        <time>2020-01-15T13:02:04.000Z</time>
      </trkpt>
      <trkpt lat="48.42684" lon="7.22175">
        <ele>713.21</ele>
        <time>2020-01-15T13:02:14.000Z</time>
      </trkpt>
      <trkpt lat="48.42682" lon="7.22158">
        <ele>713.21</ele>
        <time>2020-01-15T13:02:24.000Z</time>
      </trkpt>
      <trkpt lat="48.42679" lon="7.22142">
        <ele>712.21</ele>
        <time>2020-01-15T13:02:34.000Z</time>
      </trkpt>
      <trkpt lat="48.42676" lon="7.22124">
        <ele>712.23</ele>
        <time>2020-01-15T13:02:44.000Z</time>
      </trkpt>
      <trkpt lat="48.42673" lon="7.22109">
        <ele>711.98</ele>
        <time>2020-01-15T13:02:54.000Z</time>
      </trkpt>
      <trkpt lat="48.42675" lon="7.22094">
        <ele>711.21</ele>
        <time>2020-01-15T13:03:04.000Z</time>
      </trkpt>
      <trkpt lat="48.42674" lon="7.22082">
        <ele>711.46</ele>
        <time>2020-01-15T13:03:14.000Z</time>
      </trkpt>
      <trkpt lat="48.42673" lon="7.2207">
        <ele>710.96</ele>
        <time>2020-01-15T13:03:24.000Z</time>
      </trkpt>
      <trkpt lat="48.42674" lon="7.22055">
        <ele>709.46</ele>
        <time>2020-01-15T13:03:34.000Z</time>
      </trkpt>
      <trkpt lat="48.42672" lon="7.22038">
        <ele>709.21</ele>
        <time>2020-01-15T13:03:44.000Z</time>
      </trkpt>
      <trkpt lat="48.42668" lon="7.2202">
        <ele>707.21</ele>
        <time>2020-01-15T13:03:54.000Z</time>
      </trkpt>
      <trkpt lat="48.42664" lon="7.22005">
        <ele>708.21</ele>
        <time>2020-01-15T13:04:04.000Z</time>
      </trkpt>
      <trkpt lat="48.4266" lon="7.21991">
        <ele>707.21</ele>
        <time>2020-01-15T13:04:14.000Z</time>
      </trkpt>
      <trkpt lat="48.42657" lon="7.21981">
        <ele>708.21</ele>
        <time>2020-01-15T13:04:24.000Z</time>
      </trkpt>
      <trkpt lat="48.42652" lon="7.21969">
        <ele>708.21</ele>
        <time>2020-01-15T13:04:34.000Z</time>
      </trkpt>
      <trkpt lat="48.42651" lon="7.21968">
        <ele>707.28</ele>
        <time>2020-01-15T13:05:17.000Z</time>
      </trkpt>
      <trkpt lat="48.42645" lon="7.21954">
        <ele>708.26</ele>
        <time>2020-01-15T13:05:27.000Z</time>
      </trkpt>
      <trkpt lat="48.42641" lon="7.21939">
        <ele>707.28</ele>
        <time>2020-01-15T13:05:37.000Z</time>
      </trkpt>
      <trkpt lat="48.42637" lon="7.21926">
        <ele>706.22</ele>
        <time>2020-01-15T13:05:47.000Z</time>
      </trkpt>
      <trkpt lat="48.42632" lon="7.21908">
        <ele>706.21</ele>
        <time>2020-01-15T13:05:57.000Z</time>
      </trkpt>
      <trkpt lat="48.42627" lon="7.21891">
        <ele>705.22</ele>
        <time>2020-01-15T13:06:07.000Z</time>
      </trkpt>
      <trkpt lat="48.42623" lon="7.21874">
        <ele>705.98</ele>
        <time>2020-01-15T13:06:17.000Z</time>
      </trkpt>
      <trkpt lat="48.42618" lon="7.21856">
        <ele>706.21</ele>
        <time>2020-01-15T13:06:27.000Z</time>
      </trkpt>
      <trkpt lat="48.42614" lon="7.21839">
        <ele>706.21</ele>
        <time>2020-01-15T13:06:37.000Z</time>
      </trkpt>
      <trkpt lat="48.42609" lon="7.21823">
        <ele>704.23</ele>
        <time>2020-01-15T13:06:47.000Z</time>
      </trkpt>
      <trkpt lat="48.42604" lon="7.21806">
        <ele>704.21</ele>
        <time>2020-01-15T13:06:57.000Z</time>
      </trkpt>
      <trkpt lat="48.42602" lon="7.21791">
        <ele>703.22</ele>
        <time>2020-01-15T13:07:07.000Z</time>
      </trkpt>
      <trkpt lat="48.42601" lon="7.21792">
        <ele>701.46</ele>
        <time>2020-01-15T13:07:26.000Z</time>
      </trkpt>
      <trkpt lat="48.426" lon="7.21791">
        <ele>700.46</ele>
        <time>2020-01-15T13:07:37.000Z</time>
      </trkpt>
      <trkpt lat="48.42594" lon="7.21779">
        <ele>701.22</ele>
        <time>2020-01-15T13:07:47.000Z</time>
      </trkpt>
      <trkpt lat="48.42587" lon="7.21765">
        <ele>703.21</ele>
        <time>2020-01-15T13:07:57.000Z</time>
      </trkpt>
      <trkpt lat="48.42583" lon="7.21751">
        <ele>701.28</ele>
        <time>2020-01-15T13:08:07.000Z</time>
      </trkpt>
      <trkpt lat="48.42582" lon="7.21752">
        <ele>701.21</ele>
        <time>2020-01-15T13:08:17.000Z</time>
      </trkpt>
      <trkpt lat="48.42576" lon="7.21759">
        <ele>698.21</ele>
        <time>2020-01-15T13:08:27.000Z</time>
      </trkpt>
      <trkpt lat="48.42576" lon="7.21757">
        <ele>698.02</ele>
        <time>2020-01-15T13:08:37.000Z</time>
      </trkpt>
      <trkpt lat="48.42578" lon="7.21756">
        <ele>698.46</ele>
        <time>2020-01-15T13:09:29.000Z</time>
      </trkpt>
      <trkpt lat="48.42578" lon="7.21753">
        <ele>699.21</ele>
        <time>2020-01-15T13:09:39.000Z</time>
      </trkpt>
      <trkpt lat="48.42579" lon="7.21755">
        <ele>697.46</ele>
        <time>2020-01-15T13:10:06.000Z</time>
      </trkpt>
      <trkpt lat="48.42577" lon="7.21753">
        <ele>697.21</ele>
        <time>2020-01-15T13:10:16.000Z</time>
      </trkpt>
      <trkpt lat="48.42575" lon="7.21755">
        <ele>696.27</ele>
        <time>2020-01-15T13:10:26.000Z</time>
      </trkpt>
      <trkpt lat="48.42576" lon="7.21767">
        <ele>698.2</ele>
        <time>2020-01-15T13:10:36.000Z</time>
      </trkpt>
      <trkpt lat="48.42573" lon="7.21781">
        <ele>696.46</ele>
        <time>2020-01-15T13:10:46.000Z</time>
      </trkpt>
      <trkpt lat="48.42568" lon="7.21793">
        <ele>697.15</ele>
        <time>2020-01-15T13:10:56.000Z</time>
      </trkpt>
      <trkpt lat="48.42567" lon="7.21799">
        <ele>696.47</ele>
        <time>2020-01-15T13:11:06.000Z</time>
      </trkpt>
      <trkpt lat="48.42565" lon="7.21804">
        <ele>696.21</ele>
        <time>2020-01-15T13:11:16.000Z</time>
      </trkpt>
      <trkpt lat="48.42566" lon="7.21808">
        <ele>696.21</ele>
        <time>2020-01-15T13:11:26.000Z</time>
      </trkpt>
      <trkpt lat="48.42568" lon="7.2182">
        <ele>696.46</ele>
        <time>2020-01-15T13:11:36.000Z</time>
      </trkpt>
      <trkpt lat="48.42568" lon="7.21835">
        <ele>698.2</ele>
        <time>2020-01-15T13:11:46.000Z</time>
      </trkpt>
      <trkpt lat="48.42565" lon="7.21847">
        <ele>697.46</ele>
        <time>2020-01-15T13:11:56.000Z</time>
      </trkpt>
      <trkpt lat="48.42562" lon="7.21859">
        <ele>698.21</ele>
        <time>2020-01-15T13:12:06.000Z</time>
      </trkpt>
      <trkpt lat="48.4256" lon="7.21875">
        <ele>700.15</ele>
        <time>2020-01-15T13:12:16.000Z</time>
      </trkpt>
      <trkpt lat="48.42559" lon="7.21891">
        <ele>701.2</ele>
        <time>2020-01-15T13:12:26.000Z</time>
      </trkpt>
      <trkpt lat="48.42558" lon="7.21904">
        <ele>702.2</ele>
        <time>2020-01-15T13:12:36.000Z</time>
      </trkpt>
      <trkpt lat="48.42557" lon="7.21917">
        <ele>703.21</ele>
        <time>2020-01-15T13:12:46.000Z</time>
      </trkpt>
      <trkpt lat="48.42557" lon="7.21931">
        <ele>704.21</ele>
        <time>2020-01-15T13:12:56.000Z</time>
      </trkpt>
      <trkpt lat="48.42556" lon="7.21945">
        <ele>705.2</ele>
        <time>2020-01-15T13:13:06.000Z</time>
      </trkpt>
      <trkpt lat="48.42552" lon="7.2196">
        <ele>706.96</ele>
        <time>2020-01-15T13:13:16.000Z</time>
      </trkpt>
      <trkpt lat="48.4255" lon="7.21972">
        <ele>707.15</ele>
        <time>2020-01-15T13:13:26.000Z</time>
      </trkpt>
      <trkpt lat="48.4255" lon="7.21977">
        <ele>709.21</ele>
        <time>2020-01-15T13:13:36.000Z</time>
      </trkpt>
      <trkpt lat="48.4255" lon="7.21978">
        <ele>709.21</ele>
        <time>2020-01-15T13:13:47.000Z</time>
      </trkpt>
      <trkpt lat="48.4255" lon="7.21977">
        <ele>710.21</ele>
        <time>2020-01-15T13:14:02.000Z</time>
      </trkpt>
      <trkpt lat="48.4255" lon="7.21976">
        <ele>711.21</ele>
        <time>2020-01-15T13:15:15.000Z</time>
      </trkpt>
      <trkpt lat="48.4255" lon="7.21979">
        <ele>711.46</ele>
        <time>2020-01-15T13:20:10.000Z</time>
      </trkpt>
      <trkpt lat="48.42551" lon="7.21978">
        <ele>711.21</ele>
        <time>2020-01-15T13:20:31.000Z</time>
      </trkpt>
      <trkpt lat="48.42549" lon="7.21977">
        <ele>712.41</ele>
        <time>2020-01-15T13:20:54.000Z</time>
      </trkpt>
      <trkpt lat="48.42544" lon="7.21987">
        <ele>715.15</ele>
        <time>2020-01-15T13:21:04.000Z</time>
      </trkpt>
      <trkpt lat="48.42539" lon="7.21996">
        <ele>716.96</ele>
        <time>2020-01-15T13:21:14.000Z</time>
      </trkpt>
      <trkpt lat="48.42533" lon="7.22008">
        <ele>718.21</ele>
        <time>2020-01-15T13:21:24.000Z</time>
      </trkpt>
      <trkpt lat="48.42528" lon="7.22018">
        <ele>718.21</ele>
        <time>2020-01-15T13:21:34.000Z</time>
      </trkpt>
      <trkpt lat="48.42523" lon="7.22029">
        <ele>720.21</ele>
        <time>2020-01-15T13:21:44.000Z</time>
      </trkpt>
      <trkpt lat="48.42518" lon="7.22038">
        <ele>722.21</ele>
        <time>2020-01-15T13:21:54.000Z</time>
      </trkpt>
      <trkpt lat="48.42513" lon="7.22048">
        <ele>725.15</ele>
        <time>2020-01-15T13:22:04.000Z</time>
      </trkpt>
      <trkpt lat="48.42509" lon="7.22059">
        <ele>725.4</ele>
        <time>2020-01-15T13:22:14.000Z</time>
      </trkpt>
      <trkpt lat="48.42507" lon="7.2207">
        <ele>727.15</ele>
        <time>2020-01-15T13:22:24.000Z</time>
      </trkpt>
      <trkpt lat="48.42505" lon="7.22082">
        <ele>729.15</ele>
        <time>2020-01-15T13:22:34.000Z</time>
      </trkpt>
      <trkpt lat="48.42503" lon="7.22092">
        <ele>730.2</ele>
        <time>2020-01-15T13:22:44.000Z</time>
      </trkpt>
      <trkpt lat="48.42499" lon="7.22102">
        <ele>730.46</ele>
        <time>2020-01-15T13:22:54.000Z</time>
      </trkpt>
      <trkpt lat="48.42497" lon="7.22112">
        <ele>730.2</ele>
        <time>2020-01-15T13:23:04.000Z</time>
      </trkpt>
      <trkpt lat="48.42495" lon="7.22123">
        <ele>732.96</ele>
        <time>2020-01-15T13:23:14.000Z</time>
      </trkpt>
      <trkpt lat="48.42493" lon="7.22133">
        <ele>734.21</ele>
        <time>2020-01-15T13:23:24.000Z</time>
      </trkpt>
      <trkpt lat="48.42491" lon="7.22143">
        <ele>737.96</ele>
        <time>2020-01-15T13:23:34.000Z</time>
      </trkpt>
      <trkpt lat="48.42489" lon="7.22154">
        <ele>740.21</ele>
        <time>2020-01-15T13:23:44.000Z</time>
      </trkpt>
      <trkpt lat="48.42487" lon="7.22162">
        <ele>740.21</ele>
        <time>2020-01-15T13:23:54.000Z</time>
      </trkpt>
      <trkpt lat="48.42487" lon="7.2217">
        <ele>741.21</ele>
        <time>2020-01-15T13:24:04.000Z</time>
      </trkpt>
      <trkpt lat="48.42485" lon="7.2218">
        <ele>742.96</ele>
        <time>2020-01-15T13:24:14.000Z</time>
      </trkpt>
      <trkpt lat="48.42483" lon="7.22188">
        <ele>744.21</ele>
        <time>2020-01-15T13:24:24.000Z</time>
      </trkpt>
      <trkpt lat="48.4248" lon="7.22197">
        <ele>746.15</ele>
        <time>2020-01-15T13:24:34.000Z</time>
      </trkpt>
      <trkpt lat="48.42477" lon="7.22206">
        <ele>748.2</ele>
        <time>2020-01-15T13:24:44.000Z</time>
      </trkpt>
      <trkpt lat="48.42475" lon="7.22215">
        <ele>749.15</ele>
        <time>2020-01-15T13:24:54.000Z</time>
      </trkpt>
      <trkpt lat="48.42472" lon="7.22223">
        <ele>749.21</ele>
        <time>2020-01-15T13:25:04.000Z</time>
      </trkpt>
      <trkpt lat="48.42471" lon="7.22233">
        <ele>751.96</ele>
        <time>2020-01-15T13:25:14.000Z</time>
      </trkpt>
      <trkpt lat="48.42469" lon="7.22239">
        <ele>752.46</ele>
        <time>2020-01-15T13:25:24.000Z</time>
      </trkpt>
      <trkpt lat="48.42467" lon="7.22244">
        <ele>753.21</ele>
        <time>2020-01-15T13:25:34.000Z</time>
      </trkpt>
      <trkpt lat="48.42464" lon="7.22253">
        <ele>755.96</ele>
        <time>2020-01-15T13:25:44.000Z</time>
      </trkpt>
      <trkpt lat="48.42461" lon="7.22262">
        <ele>757.26</ele>
        <time>2020-01-15T13:25:54.000Z</time>
      </trkpt>
      <trkpt lat="48.42456" lon="7.22267">
        <ele>757.23</ele>
        <time>2020-01-15T13:26:04.000Z</time>
      </trkpt>
      <trkpt lat="48.4245" lon="7.22271">
        <ele>757.46</ele>
        <time>2020-01-15T13:26:14.000Z</time>
      </trkpt>
      <trkpt lat="48.42443" lon="7.22274">
        <ele>758.4</ele>
        <time>2020-01-15T13:26:24.000Z</time>
      </trkpt>
      <trkpt lat="48.42439" lon="7.22276">
        <ele>760.21</ele>
        <time>2020-01-15T13:26:34.000Z</time>
      </trkpt>
      <trkpt lat="48.42433" lon="7.22275">
        <ele>760.21</ele>
        <time>2020-01-15T13:26:44.000Z</time>
      </trkpt>
      <trkpt lat="48.42431" lon="7.22277">
        <ele>760.21</ele>
        <time>2020-01-15T13:26:54.000Z</time>
      </trkpt>
      <trkpt lat="48.42428" lon="7.22276">
        <ele>762.21</ele>
        <time>2020-01-15T13:27:04.000Z</time>
      </trkpt>
      <trkpt lat="48.42425" lon="7.22277">
        <ele>762.21</ele>
        <time>2020-01-15T13:27:14.000Z</time>
      </trkpt>
      <trkpt lat="48.42426" lon="7.22276">
        <ele>762.46</ele>
        <time>2020-01-15T13:49:30.000Z</time>
      </trkpt>
      <trkpt lat="48.42425" lon="7.22274">
        <ele>761.46</ele>
        <time>2020-01-15T13:49:48.000Z</time>
      </trkpt>
      <trkpt lat="48.42427" lon="7.22277">
        <ele>760.21</ele>
        <time>2020-01-15T13:49:58.000Z</time>
      </trkpt>
      <trkpt lat="48.4243" lon="7.22284">
        <ele>760.98</ele>
        <time>2020-01-15T13:50:08.000Z</time>
      </trkpt>
      <trkpt lat="48.42432" lon="7.22291">
        <ele>762.02</ele>
        <time>2020-01-15T13:50:18.000Z</time>
      </trkpt>
      <trkpt lat="48.42435" lon="7.223">
        <ele>762.21</ele>
        <time>2020-01-15T13:50:28.000Z</time>
      </trkpt>
      <trkpt lat="48.42436" lon="7.22309">
        <ele>762.21</ele>
        <time>2020-01-15T13:50:38.000Z</time>
      </trkpt>
      <trkpt lat="48.4244" lon="7.22318">
        <ele>762.21</ele>
        <time>2020-01-15T13:50:48.000Z</time>
      </trkpt>
      <trkpt lat="48.42443" lon="7.22325">
        <ele>762.21</ele>
        <time>2020-01-15T13:50:58.000Z</time>
      </trkpt>
      <trkpt lat="48.42445" lon="7.2233">
        <ele>763.16</ele>
        <time>2020-01-15T13:51:08.000Z</time>
      </trkpt>
      <trkpt lat="48.42444" lon="7.2234">
        <ele>763.23</ele>
        <time>2020-01-15T13:51:18.000Z</time>
      </trkpt>
      <trkpt lat="48.42442" lon="7.22351">
        <ele>763.21</ele>
        <time>2020-01-15T13:51:28.000Z</time>
      </trkpt>
      <trkpt lat="48.42441" lon="7.2236">
        <ele>764.21</ele>
        <time>2020-01-15T13:51:38.000Z</time>
      </trkpt>
      <trkpt lat="48.4244" lon="7.22368">
        <ele>768.2</ele>
        <time>2020-01-15T13:51:48.000Z</time>
      </trkpt>
      <trkpt lat="48.42436" lon="7.22376">
        <ele>769.21</ele>
        <time>2020-01-15T13:51:58.000Z</time>
      </trkpt>
      <trkpt lat="48.42431" lon="7.22384">
        <ele>769.21</ele>
        <time>2020-01-15T13:52:08.000Z</time>
      </trkpt>
      <trkpt lat="48.4243" lon="7.2239">
        <ele>771.19</ele>
        <time>2020-01-15T13:52:18.000Z</time>
      </trkpt>
      <trkpt lat="48.42429" lon="7.22393">
        <ele>771.21</ele>
        <time>2020-01-15T13:52:28.000Z</time>
      </trkpt>
      <trkpt lat="48.42427" lon="7.224">
        <ele>771.23</ele>
        <time>2020-01-15T13:52:38.000Z</time>
      </trkpt>
      <trkpt lat="48.42425" lon="7.22405">
        <ele>773.21</ele>
        <time>2020-01-15T13:52:48.000Z</time>
      </trkpt>
      <trkpt lat="48.42424" lon="7.2241">
        <ele>777.19</ele>
        <time>2020-01-15T13:52:58.000Z</time>
      </trkpt>
      <trkpt lat="48.42422" lon="7.22416">
        <ele>779.21</ele>
        <time>2020-01-15T13:53:08.000Z</time>
      </trkpt>
      <trkpt lat="48.42422" lon="7.22422">
        <ele>782.15</ele>
        <time>2020-01-15T13:53:18.000Z</time>
      </trkpt>
      <trkpt lat="48.4242" lon="7.22426">
        <ele>782.21</ele>
        <time>2020-01-15T13:53:28.000Z</time>
      </trkpt>
      <trkpt lat="48.42419" lon="7.22431">
        <ele>782.21</ele>
        <time>2020-01-15T13:53:38.000Z</time>
      </trkpt>
      <trkpt lat="48.42417" lon="7.22434">
        <ele>784.21</ele>
        <time>2020-01-15T13:53:48.000Z</time>
      </trkpt>
      <trkpt lat="48.42415" lon="7.22442">
        <ele>785.96</ele>
        <time>2020-01-15T13:53:58.000Z</time>
      </trkpt>
      <trkpt lat="48.42412" lon="7.22446">
        <ele>785.46</ele>
        <time>2020-01-15T13:54:08.000Z</time>
      </trkpt>
      <trkpt lat="48.42412" lon="7.2245">
        <ele>785.22</ele>
        <time>2020-01-15T13:54:18.000Z</time>
      </trkpt>
      <trkpt lat="48.42412" lon="7.22454">
        <ele>786.21</ele>
        <time>2020-01-15T13:54:28.000Z</time>
      </trkpt>
      <trkpt lat="48.42411" lon="7.22465">
        <ele>788.96</ele>
        <time>2020-01-15T13:54:38.000Z</time>
      </trkpt>
      <trkpt lat="48.4241" lon="7.22471">
        <ele>790.21</ele>
        <time>2020-01-15T13:54:48.000Z</time>
      </trkpt>
      <trkpt lat="48.4241" lon="7.22479">
        <ele>794.09</ele>
        <time>2020-01-15T13:54:58.000Z</time>
      </trkpt>
      <trkpt lat="48.42409" lon="7.22484">
        <ele>797.19</ele>
        <time>2020-01-15T13:55:08.000Z</time>
      </trkpt>
      <trkpt lat="48.42409" lon="7.22493">
        <ele>798.95</ele>
        <time>2020-01-15T13:55:18.000Z</time>
      </trkpt>
      <trkpt lat="48.4241" lon="7.22498">
        <ele>800.96</ele>
        <time>2020-01-15T13:55:28.000Z</time>
      </trkpt>
      <trkpt lat="48.4241" lon="7.225">
        <ele>801.21</ele>
        <time>2020-01-15T13:55:38.000Z</time>
      </trkpt>
      <trkpt lat="48.42409" lon="7.22504">
        <ele>801.21</ele>
        <time>2020-01-15T13:55:51.000Z</time>
      </trkpt>
      <trkpt lat="48.4241" lon="7.22511">
        <ele>802.2</ele>
        <time>2020-01-15T13:56:01.000Z</time>
      </trkpt>
      <trkpt lat="48.42407" lon="7.22516">
        <ele>805.21</ele>
        <time>2020-01-15T13:56:11.000Z</time>
      </trkpt>
      <trkpt lat="48.42406" lon="7.22527">
        <ele>807.2</ele>
        <time>2020-01-15T13:56:21.000Z</time>
      </trkpt>
      <trkpt lat="48.42405" lon="7.22536">
        <ele>809.19</ele>
        <time>2020-01-15T13:56:31.000Z</time>
      </trkpt>
      <trkpt lat="48.42404" lon="7.22542">
        <ele>812.15</ele>
        <time>2020-01-15T13:56:41.000Z</time>
      </trkpt>
      <trkpt lat="48.42404" lon="7.22545">
        <ele>813.21</ele>
        <time>2020-01-15T13:56:51.000Z</time>
      </trkpt>
      <trkpt lat="48.424" lon="7.22549">
        <ele>816.2</ele>
        <time>2020-01-15T13:57:01.000Z</time>
      </trkpt>
      <trkpt lat="48.42395" lon="7.22553">
        <ele>819.13</ele>
        <time>2020-01-15T13:57:11.000Z</time>
      </trkpt>
      <trkpt lat="48.42396" lon="7.22558">
        <ele>821.21</ele>
        <time>2020-01-15T13:57:21.000Z</time>
      </trkpt>
      <trkpt lat="48.42396" lon="7.22565">
        <ele>824.88</ele>
        <time>2020-01-15T13:57:31.000Z</time>
      </trkpt>
      <trkpt lat="48.42395" lon="7.2257">
        <ele>825.21</ele>
        <time>2020-01-15T13:57:41.000Z</time>
      </trkpt>
      <trkpt lat="48.42396" lon="7.22577">
        <ele>827.21</ele>
        <time>2020-01-15T13:57:51.000Z</time>
      </trkpt>
      <trkpt lat="48.4239" lon="7.22587">
        <ele>828.27</ele>
        <time>2020-01-15T13:58:01.000Z</time>
      </trkpt>
      <trkpt lat="48.42387" lon="7.22594">
        <ele>829.96</ele>
        <time>2020-01-15T13:58:11.000Z</time>
      </trkpt>
      <trkpt lat="48.42382" lon="7.22602">
        <ele>829.21</ele>
        <time>2020-01-15T13:58:21.000Z</time>
      </trkpt>
      <trkpt lat="48.42381" lon="7.2261">
        <ele>829.21</ele>
        <time>2020-01-15T13:58:31.000Z</time>
      </trkpt>
      <trkpt lat="48.42378" lon="7.22617">
        <ele>832.15</ele>
        <time>2020-01-15T13:58:41.000Z</time>
      </trkpt>
      <trkpt lat="48.42378" lon="7.22624">
        <ele>831.21</ele>
        <time>2020-01-15T13:58:51.000Z</time>
      </trkpt>
      <trkpt lat="48.42377" lon="7.22635">
        <ele>834.09</ele>
        <time>2020-01-15T13:59:01.000Z</time>
      </trkpt>
      <trkpt lat="48.42375" lon="7.22644">
        <ele>837.2</ele>
        <time>2020-01-15T13:59:11.000Z</time>
      </trkpt>
      <trkpt lat="48.42373" lon="7.22652">
        <ele>838.96</ele>
        <time>2020-01-15T13:59:21.000Z</time>
      </trkpt>
      <trkpt lat="48.42369" lon="7.22661">
        <ele>839.21</ele>
        <time>2020-01-15T13:59:31.000Z</time>
      </trkpt>
      <trkpt lat="48.42364" lon="7.22671">
        <ele>839.15</ele>
        <time>2020-01-15T13:59:41.000Z</time>
      </trkpt>
      <trkpt lat="48.4236" lon="7.22681">
        <ele>836.29</ele>
        <time>2020-01-15T13:59:51.000Z</time>
      </trkpt>
      <trkpt lat="48.42355" lon="7.22697">
        <ele>833.23</ele>
        <time>2020-01-15T14:00:01.000Z</time>
      </trkpt>
      <trkpt lat="48.42352" lon="7.22706">
        <ele>833.98</ele>
        <time>2020-01-15T14:00:11.000Z</time>
      </trkpt>
      <trkpt lat="48.42347" lon="7.22718">
        <ele>832.21</ele>
        <time>2020-01-15T14:00:21.000Z</time>
      </trkpt>
      <trkpt lat="48.42344" lon="7.22728">
        <ele>832.15</ele>
        <time>2020-01-15T14:00:31.000Z</time>
      </trkpt>
      <trkpt lat="48.42343" lon="7.22744">
        <ele>832.15</ele>
        <time>2020-01-15T14:00:41.000Z</time>
      </trkpt>
      <trkpt lat="48.42341" lon="7.22754">
        <ele>833.96</ele>
        <time>2020-01-15T14:00:51.000Z</time>
      </trkpt>
      <trkpt lat="48.42341" lon="7.22763">
        <ele>835.21</ele>
        <time>2020-01-15T14:01:01.000Z</time>
      </trkpt>
      <trkpt lat="48.42338" lon="7.22771">
        <ele>834.21</ele>
        <time>2020-01-15T14:01:11.000Z</time>
      </trkpt>
      <trkpt lat="48.42333" lon="7.22783">
        <ele>834.23</ele>
        <time>2020-01-15T14:01:21.000Z</time>
      </trkpt>
      <trkpt lat="48.42329" lon="7.22794">
        <ele>834.21</ele>
        <time>2020-01-15T14:01:31.000Z</time>
      </trkpt>
      <trkpt lat="48.42326" lon="7.22804">
        <ele>834.21</ele>
        <time>2020-01-15T14:01:41.000Z</time>
      </trkpt>
      <trkpt lat="48.42321" lon="7.22813">
        <ele>833.22</ele>
        <time>2020-01-15T14:01:51.000Z</time>
      </trkpt>
      <trkpt lat="48.42313" lon="7.2282">
        <ele>831.23</ele>
        <time>2020-01-15T14:02:01.000Z</time>
      </trkpt>
      <trkpt lat="48.42305" lon="7.22831">
        <ele>832.21</ele>
        <time>2020-01-15T14:02:11.000Z</time>
      </trkpt>
      <trkpt lat="48.42298" lon="7.22843">
        <ele>833.21</ele>
        <time>2020-01-15T14:02:21.000Z</time>
      </trkpt>
      <trkpt lat="48.4229" lon="7.22853">
        <ele>833.96</ele>
        <time>2020-01-15T14:02:31.000Z</time>
      </trkpt>
      <trkpt lat="48.42284" lon="7.2286">
        <ele>834.21</ele>
        <time>2020-01-15T14:02:41.000Z</time>
      </trkpt>
      <trkpt lat="48.42278" lon="7.22868">
        <ele>834.15</ele>
        <time>2020-01-15T14:02:51.000Z</time>
      </trkpt>
      <trkpt lat="48.42272" lon="7.22878">
        <ele>834.26</ele>
        <time>2020-01-15T14:03:01.000Z</time>
      </trkpt>
      <trkpt lat="48.42267" lon="7.22889">
        <ele>836.2</ele>
        <time>2020-01-15T14:03:11.000Z</time>
      </trkpt>
      <trkpt lat="48.42258" lon="7.22899">
        <ele>837.15</ele>
        <time>2020-01-15T14:03:21.000Z</time>
      </trkpt>
      <trkpt lat="48.42253" lon="7.2291">
        <ele>838.21</ele>
        <time>2020-01-15T14:03:31.000Z</time>
      </trkpt>
      <trkpt lat="48.42245" lon="7.22918">
        <ele>838.21</ele>
        <time>2020-01-15T14:03:41.000Z</time>
      </trkpt>
      <trkpt lat="48.42239" lon="7.22926">
        <ele>838.21</ele>
        <time>2020-01-15T14:03:51.000Z</time>
      </trkpt>
      <trkpt lat="48.42236" lon="7.22934">
        <ele>838.21</ele>
        <time>2020-01-15T14:04:01.000Z</time>
      </trkpt>
      <trkpt lat="48.4223" lon="7.2294">
        <ele>839.21</ele>
        <time>2020-01-15T14:04:11.000Z</time>
      </trkpt>
      <trkpt lat="48.42227" lon="7.22946">
        <ele>839.27</ele>
        <time>2020-01-15T14:04:21.000Z</time>
      </trkpt>
      <trkpt lat="48.42222" lon="7.22956">
        <ele>838.46</ele>
        <time>2020-01-15T14:04:31.000Z</time>
      </trkpt>
      <trkpt lat="48.42217" lon="7.22962">
        <ele>837.21</ele>
        <time>2020-01-15T14:04:41.000Z</time>
      </trkpt>
      <trkpt lat="48.42213" lon="7.22969">
        <ele>837.21</ele>
        <time>2020-01-15T14:04:51.000Z</time>
      </trkpt>
      <trkpt lat="48.42208" lon="7.22981">
        <ele>834.46</ele>
        <time>2020-01-15T14:05:01.000Z</time>
      </trkpt>
      <trkpt lat="48.42205" lon="7.22991">
        <ele>833.21</ele>
        <time>2020-01-15T14:05:11.000Z</time>
      </trkpt>
      <trkpt lat="48.42203" lon="7.23003">
        <ele>830.27</ele>
        <time>2020-01-15T14:05:21.000Z</time>
      </trkpt>
      <trkpt lat="48.42197" lon="7.23013">
        <ele>829.46</ele>
        <time>2020-01-15T14:05:31.000Z</time>
      </trkpt>
      <trkpt lat="48.42191" lon="7.23024">
        <ele>831.16</ele>
        <time>2020-01-15T14:05:41.000Z</time>
      </trkpt>
      <trkpt lat="48.42188" lon="7.23036">
        <ele>830.27</ele>
        <time>2020-01-15T14:05:51.000Z</time>
      </trkpt>
      <trkpt lat="48.42184" lon="7.23043">
        <ele>830.21</ele>
        <time>2020-01-15T14:06:01.000Z</time>
      </trkpt>
      <trkpt lat="48.4218" lon="7.23051">
        <ele>830.21</ele>
        <time>2020-01-15T14:06:11.000Z</time>
      </trkpt>
      <trkpt lat="48.42175" lon="7.2306">
        <ele>829.27</ele>
        <time>2020-01-15T14:06:21.000Z</time>
      </trkpt>
      <trkpt lat="48.42171" lon="7.23072">
        <ele>827.46</ele>
        <time>2020-01-15T14:06:31.000Z</time>
      </trkpt>
      <trkpt lat="48.42168" lon="7.23083">
        <ele>828.96</ele>
        <time>2020-01-15T14:06:41.000Z</time>
      </trkpt>
      <trkpt lat="48.42165" lon="7.23093">
        <ele>829.21</ele>
        <time>2020-01-15T14:06:51.000Z</time>
      </trkpt>
      <trkpt lat="48.42162" lon="7.23103">
        <ele>830.96</ele>
        <time>2020-01-15T14:07:01.000Z</time>
      </trkpt>
      <trkpt lat="48.42158" lon="7.23113">
        <ele>831.15</ele>
        <time>2020-01-15T14:07:11.000Z</time>
      </trkpt>
      <trkpt lat="48.42153" lon="7.23123">
        <ele>832.46</ele>
        <time>2020-01-15T14:07:21.000Z</time>
      </trkpt>
      <trkpt lat="48.42152" lon="7.23132">
        <ele>833.15</ele>
        <time>2020-01-15T14:07:31.000Z</time>
      </trkpt>
      <trkpt lat="48.42151" lon="7.23142">
        <ele>833.21</ele>
        <time>2020-01-15T14:07:41.000Z</time>
      </trkpt>
      <trkpt lat="48.42149" lon="7.23152">
        <ele>834.96</ele>
        <time>2020-01-15T14:07:51.000Z</time>
      </trkpt>
      <trkpt lat="48.42144" lon="7.2316">
        <ele>837.21</ele>
        <time>2020-01-15T14:08:01.000Z</time>
      </trkpt>
      <trkpt lat="48.42141" lon="7.23171">
        <ele>841.14</ele>
        <time>2020-01-15T14:08:11.000Z</time>
      </trkpt>
      <trkpt lat="48.42138" lon="7.23182">
        <ele>841.96</ele>
        <time>2020-01-15T14:08:21.000Z</time>
      </trkpt>
      <trkpt lat="48.42131" lon="7.23193">
        <ele>844.13</ele>
        <time>2020-01-15T14:08:31.000Z</time>
      </trkpt>
      <trkpt lat="48.42126" lon="7.23202">
        <ele>846.21</ele>
        <time>2020-01-15T14:08:41.000Z</time>
      </trkpt>
      <trkpt lat="48.42124" lon="7.23211">
        <ele>848.21</ele>
        <time>2020-01-15T14:08:51.000Z</time>
      </trkpt>
      <trkpt lat="48.42119" lon="7.23224">
        <ele>847.21</ele>
        <time>2020-01-15T14:09:01.000Z</time>
      </trkpt>
      <trkpt lat="48.42114" lon="7.23238">
        <ele>847.21</ele>
        <time>2020-01-15T14:09:11.000Z</time>
      </trkpt>
      <trkpt lat="48.42112" lon="7.2325">
        <ele>847.21</ele>
        <time>2020-01-15T14:09:21.000Z</time>
      </trkpt>
      <trkpt lat="48.4211" lon="7.23261">
        <ele>848.96</ele>
        <time>2020-01-15T14:09:31.000Z</time>
      </trkpt>
      <trkpt lat="48.42109" lon="7.23268">
        <ele>852.13</ele>
        <time>2020-01-15T14:09:41.000Z</time>
      </trkpt>
      <trkpt lat="48.42107" lon="7.2328">
        <ele>855.15</ele>
        <time>2020-01-15T14:09:51.000Z</time>
      </trkpt>
      <trkpt lat="48.42105" lon="7.23292">
        <ele>856.15</ele>
        <time>2020-01-15T14:10:01.000Z</time>
      </trkpt>
      <trkpt lat="48.42103" lon="7.23303">
        <ele>855.21</ele>
        <time>2020-01-15T14:10:11.000Z</time>
      </trkpt>
      <trkpt lat="48.42098" lon="7.23314">
        <ele>856.96</ele>
        <time>2020-01-15T14:10:21.000Z</time>
      </trkpt>
      <trkpt lat="48.42094" lon="7.23326">
        <ele>858.4</ele>
        <time>2020-01-15T14:10:31.000Z</time>
      </trkpt>
      <trkpt lat="48.42091" lon="7.23336">
        <ele>858.46</ele>
        <time>2020-01-15T14:10:41.000Z</time>
      </trkpt>
      <trkpt lat="48.4209" lon="7.23342">
        <ele>858.21</ele>
        <time>2020-01-15T14:10:51.000Z</time>
      </trkpt>
      <trkpt lat="48.42088" lon="7.23357">
        <ele>858.21</ele>
        <time>2020-01-15T14:11:01.000Z</time>
      </trkpt>
      <trkpt lat="48.42085" lon="7.23374">
        <ele>857.27</ele>
        <time>2020-01-15T14:11:11.000Z</time>
      </trkpt>
      <trkpt lat="48.42081" lon="7.23391">
        <ele>857.21</ele>
        <time>2020-01-15T14:11:21.000Z</time>
      </trkpt>
      <trkpt lat="48.42078" lon="7.23405">
        <ele>860.15</ele>
        <time>2020-01-15T14:11:31.000Z</time>
      </trkpt>
      <trkpt lat="48.42075" lon="7.2342">
        <ele>859.21</ele>
        <time>2020-01-15T14:11:41.000Z</time>
      </trkpt>
      <trkpt lat="48.42074" lon="7.23433">
        <ele>857.21</ele>
        <time>2020-01-15T14:11:51.000Z</time>
      </trkpt>
      <trkpt lat="48.42072" lon="7.23445">
        <ele>856.41</ele>
        <time>2020-01-15T14:12:01.000Z</time>
      </trkpt>
      <trkpt lat="48.4207" lon="7.23458">
        <ele>854.28</ele>
        <time>2020-01-15T14:12:11.000Z</time>
      </trkpt>
      <trkpt lat="48.42066" lon="7.23472">
        <ele>852.27</ele>
        <time>2020-01-15T14:12:21.000Z</time>
      </trkpt>
      <trkpt lat="48.42061" lon="7.23482">
        <ele>850.21</ele>
        <time>2020-01-15T14:12:31.000Z</time>
      </trkpt>
      <trkpt lat="48.42059" lon="7.23494">
        <ele>849.21</ele>
        <time>2020-01-15T14:12:41.000Z</time>
      </trkpt>
      <trkpt lat="48.42055" lon="7.23514">
        <ele>848.26</ele>
        <time>2020-01-15T14:12:51.000Z</time>
      </trkpt>
      <trkpt lat="48.42052" lon="7.23529">
        <ele>850.94</ele>
        <time>2020-01-15T14:13:01.000Z</time>
      </trkpt>
      <trkpt lat="48.42046" lon="7.23552">
        <ele>856.14</ele>
        <time>2020-01-15T14:13:11.000Z</time>
      </trkpt>
      <trkpt lat="48.42039" lon="7.23571">
        <ele>863.13</ele>
        <time>2020-01-15T14:13:21.000Z</time>
      </trkpt>
      <trkpt lat="48.42031" lon="7.23591">
        <ele>868.94</ele>
        <time>2020-01-15T14:13:31.000Z</time>
      </trkpt>
      <trkpt lat="48.42023" lon="7.2361">
        <ele>875.94</ele>
        <time>2020-01-15T14:13:41.000Z</time>
      </trkpt>
      <trkpt lat="48.42016" lon="7.23628">
        <ele>881.94</ele>
        <time>2020-01-15T14:13:51.000Z</time>
      </trkpt>
      <trkpt lat="48.42009" lon="7.23647">
        <ele>886.88</ele>
        <time>2020-01-15T14:14:01.000Z</time>
      </trkpt>
      <trkpt lat="48.42005" lon="7.23665">
        <ele>892.19</ele>
        <time>2020-01-15T14:14:11.000Z</time>
      </trkpt>
      <trkpt lat="48.42001" lon="7.23682">
        <ele>897.14</ele>
        <time>2020-01-15T14:14:21.000Z</time>
      </trkpt>
      <trkpt lat="48.41997" lon="7.23699">
        <ele>902.15</ele>
        <time>2020-01-15T14:14:31.000Z</time>
      </trkpt>
      <trkpt lat="48.41993" lon="7.23716">
        <ele>905.94</ele>
        <time>2020-01-15T14:14:41.000Z</time>
      </trkpt>
      <trkpt lat="48.41989" lon="7.23731">
        <ele>909.96</ele>
        <time>2020-01-15T14:14:51.000Z</time>
      </trkpt>
      <trkpt lat="48.41985" lon="7.23744">
        <ele>914.19</ele>
        <time>2020-01-15T14:15:01.000Z</time>
      </trkpt>
      <trkpt lat="48.41978" lon="7.23754">
        <ele>919.96</ele>
        <time>2020-01-15T14:15:11.000Z</time>
      </trkpt>
      <trkpt lat="48.41976" lon="7.23758">
        <ele>922.21</ele>
        <time>2020-01-15T14:15:21.000Z</time>
      </trkpt>
      <trkpt lat="48.41975" lon="7.23758">
        <ele>924.21</ele>
        <time>2020-01-15T14:15:46.000Z</time>
      </trkpt>
      <trkpt lat="48.41975" lon="7.2376">
        <ele>925.21</ele>
        <time>2020-01-15T14:15:56.000Z</time>
      </trkpt>
      <trkpt lat="48.41975" lon="7.23759">
        <ele>926.19</ele>
        <time>2020-01-15T14:16:11.000Z</time>
      </trkpt>
      <trkpt lat="48.41976" lon="7.23757">
        <ele>926.21</ele>
        <time>2020-01-15T14:16:21.000Z</time>
      </trkpt>
      <trkpt lat="48.41976" lon="7.23761">
        <ele>928.21</ele>
        <time>2020-01-15T14:16:31.000Z</time>
      </trkpt>
      <trkpt lat="48.41974" lon="7.23765">
        <ele>928.21</ele>
        <time>2020-01-15T14:16:41.000Z</time>
      </trkpt>
      <trkpt lat="48.41975" lon="7.23761">
        <ele>927.21</ele>
        <time>2020-01-15T14:16:51.000Z</time>
      </trkpt>
      <trkpt lat="48.41974" lon="7.23759">
        <ele>927.96</ele>
        <time>2020-01-15T14:17:49.000Z</time>
      </trkpt>
      <trkpt lat="48.41975" lon="7.23758">
        <ele>928.44</ele>
        <time>2020-01-15T14:19:16.000Z</time>
      </trkpt>
      <trkpt lat="48.41974" lon="7.23757">
        <ele>930.21</ele>
        <time>2020-01-15T14:19:26.000Z</time>
      </trkpt>
      <trkpt lat="48.41974" lon="7.23758">
        <ele>930.21</ele>
        <time>2020-01-15T14:20:31.000Z</time>
      </trkpt>
      <trkpt lat="48.41979" lon="7.23767">
        <ele>931.46</ele>
        <time>2020-01-15T14:20:41.000Z</time>
      </trkpt>
      <trkpt lat="48.41978" lon="7.23783">
        <ele>931.23</ele>
        <time>2020-01-15T14:20:51.000Z</time>
      </trkpt>
      <trkpt lat="48.41974" lon="7.23797">
        <ele>930.23</ele>
        <time>2020-01-15T14:21:01.000Z</time>
      </trkpt>
      <trkpt lat="48.41969" lon="7.23811">
        <ele>929.21</ele>
        <time>2020-01-15T14:21:11.000Z</time>
      </trkpt>
      <trkpt lat="48.41966" lon="7.23825">
        <ele>931.16</ele>
        <time>2020-01-15T14:21:21.000Z</time>
      </trkpt>
      <trkpt lat="48.41965" lon="7.23828">
        <ele>932.21</ele>
        <time>2020-01-15T14:21:31.000Z</time>
      </trkpt>
      <trkpt lat="48.41962" lon="7.23841">
        <ele>932.21</ele>
        <time>2020-01-15T14:21:41.000Z</time>
      </trkpt>
      <trkpt lat="48.41959" lon="7.23854">
        <ele>932.21</ele>
        <time>2020-01-15T14:21:51.000Z</time>
      </trkpt>
      <trkpt lat="48.41955" lon="7.23868">
        <ele>932.21</ele>
        <time>2020-01-15T14:22:01.000Z</time>
      </trkpt>
      <trkpt lat="48.41953" lon="7.23881">
        <ele>932.22</ele>
        <time>2020-01-15T14:22:11.000Z</time>
      </trkpt>
      <trkpt lat="48.41949" lon="7.23895">
        <ele>932.23</ele>
        <time>2020-01-15T14:22:21.000Z</time>
      </trkpt>
      <trkpt lat="48.41946" lon="7.23909">
        <ele>932.21</ele>
        <time>2020-01-15T14:22:31.000Z</time>
      </trkpt>
      <trkpt lat="48.41945" lon="7.23922">
        <ele>932.21</ele>
        <time>2020-01-15T14:22:41.000Z</time>
      </trkpt>
      <trkpt lat="48.41943" lon="7.23936">
        <ele>934.19</ele>
        <time>2020-01-15T14:22:51.000Z</time>
      </trkpt>
      <trkpt lat="48.4194" lon="7.23951">
        <ele>935.4</ele>
        <time>2020-01-15T14:23:01.000Z</time>
      </trkpt>
      <trkpt lat="48.41938" lon="7.23964">
        <ele>936.23</ele>
        <time>2020-01-15T14:23:11.000Z</time>
      </trkpt>
      <trkpt lat="48.41933" lon="7.23977">
        <ele>937.21</ele>
        <time>2020-01-15T14:23:21.000Z</time>
      </trkpt>
      <trkpt lat="48.4193" lon="7.2399">
        <ele>939.19</ele>
        <time>2020-01-15T14:23:31.000Z</time>
      </trkpt>
      <trkpt lat="48.41927" lon="7.24004">
        <ele>940.21</ele>
        <time>2020-01-15T14:23:41.000Z</time>
      </trkpt>
      <trkpt lat="48.41922" lon="7.24021">
        <ele>939.21</ele>
        <time>2020-01-15T14:23:51.000Z</time>
      </trkpt>
      <trkpt lat="48.41918" lon="7.24035">
        <ele>940.21</ele>
        <time>2020-01-15T14:24:01.000Z</time>
      </trkpt>
      <trkpt lat="48.41914" lon="7.24047">
        <ele>940.21</ele>
        <time>2020-01-15T14:24:11.000Z</time>
      </trkpt>
      <trkpt lat="48.41909" lon="7.24058">
        <ele>942.21</ele>
        <time>2020-01-15T14:24:21.000Z</time>
      </trkpt>
      <trkpt lat="48.41906" lon="7.24071">
        <ele>944.19</ele>
        <time>2020-01-15T14:24:31.000Z</time>
      </trkpt>
      <trkpt lat="48.41903" lon="7.24083">
        <ele>946.21</ele>
        <time>2020-01-15T14:24:41.000Z</time>
      </trkpt>
      <trkpt lat="48.419" lon="7.24095">
        <ele>945.98</ele>
        <time>2020-01-15T14:24:51.000Z</time>
      </trkpt>
      <trkpt lat="48.41897" lon="7.24106">
        <ele>947.21</ele>
        <time>2020-01-15T14:25:01.000Z</time>
      </trkpt>
      <trkpt lat="48.41896" lon="7.24111">
        <ele>946.21</ele>
        <time>2020-01-15T14:25:11.000Z</time>
      </trkpt>
      <trkpt lat="48.41895" lon="7.24113">
        <ele>947.15</ele>
        <time>2020-01-15T14:25:28.000Z</time>
      </trkpt>
      <trkpt lat="48.41893" lon="7.24125">
        <ele>947.21</ele>
        <time>2020-01-15T14:25:38.000Z</time>
      </trkpt>
      <trkpt lat="48.41889" lon="7.24133">
        <ele>948.21</ele>
        <time>2020-01-15T14:25:48.000Z</time>
      </trkpt>
      <trkpt lat="48.41886" lon="7.24145">
        <ele>950.21</ele>
        <time>2020-01-15T14:25:58.000Z</time>
      </trkpt>
      <trkpt lat="48.41879" lon="7.24154">
        <ele>950.27</ele>
        <time>2020-01-15T14:26:08.000Z</time>
      </trkpt>
      <trkpt lat="48.41875" lon="7.24159">
        <ele>953.15</ele>
        <time>2020-01-15T14:26:18.000Z</time>
      </trkpt>
      <trkpt lat="48.41869" lon="7.24169">
        <ele>954.15</ele>
        <time>2020-01-15T14:26:28.000Z</time>
      </trkpt>
      <trkpt lat="48.41862" lon="7.24177">
        <ele>953.46</ele>
        <time>2020-01-15T14:26:38.000Z</time>
      </trkpt>
      <trkpt lat="48.41857" lon="7.24186">
        <ele>956.19</ele>
        <time>2020-01-15T14:26:48.000Z</time>
      </trkpt>
      <trkpt lat="48.41853" lon="7.24194">
        <ele>957.21</ele>
        <time>2020-01-15T14:26:58.000Z</time>
      </trkpt>
      <trkpt lat="48.41848" lon="7.24204">
        <ele>958.21</ele>
        <time>2020-01-15T14:27:08.000Z</time>
      </trkpt>
      <trkpt lat="48.41842" lon="7.24212">
        <ele>958.96</ele>
        <time>2020-01-15T14:27:18.000Z</time>
      </trkpt>
      <trkpt lat="48.41841" lon="7.24214">
        <ele>958.21</ele>
        <time>2020-01-15T14:27:28.000Z</time>
      </trkpt>
      <trkpt lat="48.41839" lon="7.24214">
        <ele>959.15</ele>
        <time>2020-01-15T14:27:38.000Z</time>
      </trkpt>
      <trkpt lat="48.41838" lon="7.24214">
        <ele>959.21</ele>
        <time>2020-01-15T14:29:03.000Z</time>
      </trkpt>
      <trkpt lat="48.41832" lon="7.24219">
        <ele>959.96</ele>
        <time>2020-01-15T14:29:13.000Z</time>
      </trkpt>
      <trkpt lat="48.41826" lon="7.24227">
        <ele>961.15</ele>
        <time>2020-01-15T14:29:23.000Z</time>
      </trkpt>
      <trkpt lat="48.41818" lon="7.24232">
        <ele>963.16</ele>
        <time>2020-01-15T14:29:33.000Z</time>
      </trkpt>
      <trkpt lat="48.4181" lon="7.2424">
        <ele>964.15</ele>
        <time>2020-01-15T14:29:43.000Z</time>
      </trkpt>
      <trkpt lat="48.41804" lon="7.24247">
        <ele>964.16</ele>
        <time>2020-01-15T14:29:53.000Z</time>
      </trkpt>
      <trkpt lat="48.41799" lon="7.24254">
        <ele>962.28</ele>
        <time>2020-01-15T14:30:03.000Z</time>
      </trkpt>
      <trkpt lat="48.41795" lon="7.24259">
        <ele>963.21</ele>
        <time>2020-01-15T14:30:13.000Z</time>
      </trkpt>
      <trkpt lat="48.41791" lon="7.24261">
        <ele>964.15</ele>
        <time>2020-01-15T14:30:23.000Z</time>
      </trkpt>
      <trkpt lat="48.41787" lon="7.24266">
        <ele>963.27</ele>
        <time>2020-01-15T14:30:33.000Z</time>
      </trkpt>
      <trkpt lat="48.4178" lon="7.2427">
        <ele>964.21</ele>
        <time>2020-01-15T14:30:43.000Z</time>
      </trkpt>
      <trkpt lat="48.41779" lon="7.24272">
        <ele>965.22</ele>
        <time>2020-01-15T14:30:53.000Z</time>
      </trkpt>
      <trkpt lat="48.41778" lon="7.24269">
        <ele>966.21</ele>
        <time>2020-01-15T14:31:03.000Z</time>
      </trkpt>
      <trkpt lat="48.41779" lon="7.24271">
        <ele>966.96</ele>
        <time>2020-01-15T14:31:35.000Z</time>
      </trkpt>
      <trkpt lat="48.4178" lon="7.24283">
        <ele>967.21</ele>
        <time>2020-01-15T14:31:45.000Z</time>
      </trkpt>
      <trkpt lat="48.41781" lon="7.24287">
        <ele>967.21</ele>
        <time>2020-01-15T14:31:55.000Z</time>
      </trkpt>
      <trkpt lat="48.41785" lon="7.24281">
        <ele>966.21</ele>
        <time>2020-01-15T14:32:05.000Z</time>
      </trkpt>
      <trkpt lat="48.41787" lon="7.24276">
        <ele>966.21</ele>
        <time>2020-01-15T14:32:15.000Z</time>
      </trkpt>
      <trkpt lat="48.4179" lon="7.24271">
        <ele>967.21</ele>
        <time>2020-01-15T14:32:25.000Z</time>
      </trkpt>
      <trkpt lat="48.41784" lon="7.24269">
        <ele>966.21</ele>
        <time>2020-01-15T14:32:35.000Z</time>
      </trkpt>
      <trkpt lat="48.41776" lon="7.24271">
        <ele>968.19</ele>
        <time>2020-01-15T14:32:45.000Z</time>
      </trkpt>
      <trkpt lat="48.41776" lon="7.2427">
        <ele>969.19</ele>
        <time>2020-01-15T14:33:16.000Z</time>
      </trkpt>
      <trkpt lat="48.41778" lon="7.24274">
        <ele>967.46</ele>
        <time>2020-01-15T14:33:26.000Z</time>
      </trkpt>
      <trkpt lat="48.41778" lon="7.24279">
        <ele>968.15</ele>
        <time>2020-01-15T14:33:36.000Z</time>
      </trkpt>
      <trkpt lat="48.41778" lon="7.24276">
        <ele>967.08</ele>
        <time>2020-01-15T14:33:46.000Z</time>
      </trkpt>
      <trkpt lat="48.41779" lon="7.24274">
        <ele>967.21</ele>
        <time>2020-01-15T14:35:29.000Z</time>
      </trkpt>
      <trkpt lat="48.41781" lon="7.24275">
        <ele>967.21</ele>
        <time>2020-01-15T14:35:39.000Z</time>
      </trkpt>
      <trkpt lat="48.41782" lon="7.24282">
        <ele>966.21</ele>
        <time>2020-01-15T14:35:49.000Z</time>
      </trkpt>
      <trkpt lat="48.41777" lon="7.24286">
        <ele>967.19</ele>
        <time>2020-01-15T14:35:59.000Z</time>
      </trkpt>
      <trkpt lat="48.41769" lon="7.24294">
        <ele>970.15</ele>
        <time>2020-01-15T14:36:09.000Z</time>
      </trkpt>
      <trkpt lat="48.41763" lon="7.243">
        <ele>973.15</ele>
        <time>2020-01-15T14:36:19.000Z</time>
      </trkpt>
      <trkpt lat="48.41757" lon="7.24308">
        <ele>976</ele>
        <time>2020-01-15T14:36:29.000Z</time>
      </trkpt>
      <trkpt lat="48.41752" lon="7.24316">
        <ele>979.19</ele>
        <time>2020-01-15T14:36:39.000Z</time>
      </trkpt>
      <trkpt lat="48.41743" lon="7.24329">
        <ele>979.14</ele>
        <time>2020-01-15T14:36:49.000Z</time>
      </trkpt>
      <trkpt lat="48.41737" lon="7.24338">
        <ele>982.15</ele>
        <time>2020-01-15T14:36:59.000Z</time>
      </trkpt>
      <trkpt lat="48.41731" lon="7.24345">
        <ele>984.15</ele>
        <time>2020-01-15T14:37:09.000Z</time>
      </trkpt>
      <trkpt lat="48.41722" lon="7.24356">
        <ele>982.27</ele>
        <time>2020-01-15T14:37:19.000Z</time>
      </trkpt>
      <trkpt lat="48.41715" lon="7.24368">
        <ele>982.21</ele>
        <time>2020-01-15T14:37:29.000Z</time>
      </trkpt>
      <trkpt lat="48.41706" lon="7.24375">
        <ele>985.21</ele>
        <time>2020-01-15T14:37:39.000Z</time>
      </trkpt>
      <trkpt lat="48.41697" lon="7.24385">
        <ele>983.46</ele>
        <time>2020-01-15T14:37:49.000Z</time>
      </trkpt>
      <trkpt lat="48.41688" lon="7.24399">
        <ele>982.27</ele>
        <time>2020-01-15T14:37:59.000Z</time>
      </trkpt>
      <trkpt lat="48.41681" lon="7.24412">
        <ele>981.22</ele>
        <time>2020-01-15T14:38:09.000Z</time>
      </trkpt>
      <trkpt lat="48.41676" lon="7.24428">
        <ele>984.21</ele>
        <time>2020-01-15T14:38:19.000Z</time>
      </trkpt>
      <trkpt lat="48.41675" lon="7.24447">
        <ele>984.4</ele>
        <time>2020-01-15T14:38:29.000Z</time>
      </trkpt>
      <trkpt lat="48.41677" lon="7.2446">
        <ele>985.15</ele>
        <time>2020-01-15T14:38:39.000Z</time>
      </trkpt>
      <trkpt lat="48.41678" lon="7.24463">
        <ele>985.21</ele>
        <time>2020-01-15T14:38:49.000Z</time>
      </trkpt>
      <trkpt lat="48.41676" lon="7.24464">
        <ele>983.22</ele>
        <time>2020-01-15T14:38:59.000Z</time>
      </trkpt>
      <trkpt lat="48.41676" lon="7.24467">
        <ele>982.27</ele>
        <time>2020-01-15T14:39:09.000Z</time>
      </trkpt>
      <trkpt lat="48.41676" lon="7.24465">
        <ele>982.21</ele>
        <time>2020-01-15T14:39:51.000Z</time>
      </trkpt>
      <trkpt lat="48.41675" lon="7.24463">
        <ele>982.21</ele>
        <time>2020-01-15T14:40:38.000Z</time>
      </trkpt>
      <trkpt lat="48.41668" lon="7.2447">
        <ele>979.21</ele>
        <time>2020-01-15T14:40:48.000Z</time>
      </trkpt>
      <trkpt lat="48.41665" lon="7.24486">
        <ele>979.21</ele>
        <time>2020-01-15T14:40:58.000Z</time>
      </trkpt>
      <trkpt lat="48.41659" lon="7.24503">
        <ele>981.21</ele>
        <time>2020-01-15T14:41:08.000Z</time>
      </trkpt>
      <trkpt lat="48.41652" lon="7.24522">
        <ele>983.19</ele>
        <time>2020-01-15T14:41:18.000Z</time>
      </trkpt>
      <trkpt lat="48.41647" lon="7.24539">
        <ele>984.15</ele>
        <time>2020-01-15T14:41:28.000Z</time>
      </trkpt>
      <trkpt lat="48.41641" lon="7.24556">
        <ele>983.21</ele>
        <time>2020-01-15T14:41:38.000Z</time>
      </trkpt>
      <trkpt lat="48.41635" lon="7.2457">
        <ele>980.41</ele>
        <time>2020-01-15T14:41:48.000Z</time>
      </trkpt>
      <trkpt lat="48.41629" lon="7.24583">
        <ele>979.26</ele>
        <time>2020-01-15T14:41:58.000Z</time>
      </trkpt>
      <trkpt lat="48.41622" lon="7.24593">
        <ele>981.21</ele>
        <time>2020-01-15T14:42:08.000Z</time>
      </trkpt>
      <trkpt lat="48.41612" lon="7.24598">
        <ele>981.02</ele>
        <time>2020-01-15T14:42:18.000Z</time>
      </trkpt>
      <trkpt lat="48.416" lon="7.24604">
        <ele>979.22</ele>
        <time>2020-01-15T14:42:28.000Z</time>
      </trkpt>
      <trkpt lat="48.4159" lon="7.24612">
        <ele>979.21</ele>
        <time>2020-01-15T14:42:38.000Z</time>
      </trkpt>
      <trkpt lat="48.4158" lon="7.24621">
        <ele>980.21</ele>
        <time>2020-01-15T14:42:48.000Z</time>
      </trkpt>
      <trkpt lat="48.4157" lon="7.24631">
        <ele>981.94</ele>
        <time>2020-01-15T14:42:58.000Z</time>
      </trkpt>
      <trkpt lat="48.41562" lon="7.24639">
        <ele>983.21</ele>
        <time>2020-01-15T14:43:08.000Z</time>
      </trkpt>
      <trkpt lat="48.41551" lon="7.24648">
        <ele>985.15</ele>
        <time>2020-01-15T14:43:18.000Z</time>
      </trkpt>
      <trkpt lat="48.41543" lon="7.24651">
        <ele>987.25</ele>
        <time>2020-01-15T14:43:28.000Z</time>
      </trkpt>
      <trkpt lat="48.41535" lon="7.24657">
        <ele>987.21</ele>
        <time>2020-01-15T14:43:38.000Z</time>
      </trkpt>
      <trkpt lat="48.41523" lon="7.24656">
        <ele>989.2</ele>
        <time>2020-01-15T14:43:48.000Z</time>
      </trkpt>
      <trkpt lat="48.41512" lon="7.24655">
        <ele>991.15</ele>
        <time>2020-01-15T14:43:58.000Z</time>
      </trkpt>
      <trkpt lat="48.41502" lon="7.24657">
        <ele>992.21</ele>
        <time>2020-01-15T14:44:08.000Z</time>
      </trkpt>
      <trkpt lat="48.41492" lon="7.24659">
        <ele>991.21</ele>
        <time>2020-01-15T14:44:18.000Z</time>
      </trkpt>
      <trkpt lat="48.41481" lon="7.2466">
        <ele>992.2</ele>
        <time>2020-01-15T14:44:28.000Z</time>
      </trkpt>
      <trkpt lat="48.41469" lon="7.24662">
        <ele>992.44</ele>
        <time>2020-01-15T14:44:38.000Z</time>
      </trkpt>
      <trkpt lat="48.41458" lon="7.24663">
        <ele>994.96</ele>
        <time>2020-01-15T14:44:48.000Z</time>
      </trkpt>
      <trkpt lat="48.41446" lon="7.24662">
        <ele>995.95</ele>
        <time>2020-01-15T14:44:58.000Z</time>
      </trkpt>
      <trkpt lat="48.41435" lon="7.24667">
        <ele>995.21</ele>
        <time>2020-01-15T14:45:08.000Z</time>
      </trkpt>
      <trkpt lat="48.41429" lon="7.24671">
        <ele>995.21</ele>
        <time>2020-01-15T14:45:18.000Z</time>
      </trkpt>
      <trkpt lat="48.41414" lon="7.24678">
        <ele>994.46</ele>
        <time>2020-01-15T14:45:28.000Z</time>
      </trkpt>
      <trkpt lat="48.41406" lon="7.24685">
        <ele>994.21</ele>
        <time>2020-01-15T14:45:38.000Z</time>
      </trkpt>
      <trkpt lat="48.41395" lon="7.24687">
        <ele>992.21</ele>
        <time>2020-01-15T14:45:48.000Z</time>
      </trkpt>
      <trkpt lat="48.41384" lon="7.24689">
        <ele>995.14</ele>
        <time>2020-01-15T14:45:58.000Z</time>
      </trkpt>
      <trkpt lat="48.41374" lon="7.24694">
        <ele>994.21</ele>
        <time>2020-01-15T14:46:08.000Z</time>
      </trkpt>
      <trkpt lat="48.41363" lon="7.24704">
        <ele>995.21</ele>
        <time>2020-01-15T14:46:18.000Z</time>
      </trkpt>
      <trkpt lat="48.41351" lon="7.24715">
        <ele>991.28</ele>
        <time>2020-01-15T14:46:28.000Z</time>
      </trkpt>
      <trkpt lat="48.41344" lon="7.24728">
        <ele>991.21</ele>
        <time>2020-01-15T14:46:38.000Z</time>
      </trkpt>
      <trkpt lat="48.41343" lon="7.24743">
        <ele>995.13</ele>
        <time>2020-01-15T14:46:48.000Z</time>
      </trkpt>
      <trkpt lat="48.41338" lon="7.24758">
        <ele>994.21</ele>
        <time>2020-01-15T14:46:58.000Z</time>
      </trkpt>
      <trkpt lat="48.41333" lon="7.24773">
        <ele>992.27</ele>
        <time>2020-01-15T14:47:08.000Z</time>
      </trkpt>
      <trkpt lat="48.41324" lon="7.24786">
        <ele>992.22</ele>
        <time>2020-01-15T14:47:18.000Z</time>
      </trkpt>
      <trkpt lat="48.41316" lon="7.24799">
        <ele>992.27</ele>
        <time>2020-01-15T14:47:28.000Z</time>
      </trkpt>
      <trkpt lat="48.41307" lon="7.24811">
        <ele>992.21</ele>
        <time>2020-01-15T14:47:38.000Z</time>
      </trkpt>
      <trkpt lat="48.41299" lon="7.24823">
        <ele>992.21</ele>
        <time>2020-01-15T14:47:48.000Z</time>
      </trkpt>
      <trkpt lat="48.41293" lon="7.24836">
        <ele>992.45</ele>
        <time>2020-01-15T14:47:58.000Z</time>
      </trkpt>
      <trkpt lat="48.41287" lon="7.24851">
        <ele>992.46</ele>
        <time>2020-01-15T14:48:08.000Z</time>
      </trkpt>
      <trkpt lat="48.41284" lon="7.24863">
        <ele>992.21</ele>
        <time>2020-01-15T14:48:18.000Z</time>
      </trkpt>
      <trkpt lat="48.41279" lon="7.24876">
        <ele>992.19</ele>
        <time>2020-01-15T14:48:28.000Z</time>
      </trkpt>
      <trkpt lat="48.41275" lon="7.24888">
        <ele>993.21</ele>
        <time>2020-01-15T14:48:38.000Z</time>
      </trkpt>
      <trkpt lat="48.4127" lon="7.24902">
        <ele>993.21</ele>
        <time>2020-01-15T14:48:48.000Z</time>
      </trkpt>
      <trkpt lat="48.41261" lon="7.24914">
        <ele>992.19</ele>
        <time>2020-01-15T14:48:58.000Z</time>
      </trkpt>
      <trkpt lat="48.41253" lon="7.2493">
        <ele>991.21</ele>
        <time>2020-01-15T14:49:08.000Z</time>
      </trkpt>
      <trkpt lat="48.41247" lon="7.24942">
        <ele>992.2</ele>
        <time>2020-01-15T14:49:18.000Z</time>
      </trkpt>
      <trkpt lat="48.41236" lon="7.24953">
        <ele>989.47</ele>
        <time>2020-01-15T14:49:28.000Z</time>
      </trkpt>
      <trkpt lat="48.41225" lon="7.24962">
        <ele>988.21</ele>
        <time>2020-01-15T14:49:38.000Z</time>
      </trkpt>
      <trkpt lat="48.41214" lon="7.24972">
        <ele>989.96</ele>
        <time>2020-01-15T14:49:48.000Z</time>
      </trkpt>
      <trkpt lat="48.41203" lon="7.24983">
        <ele>991.22</ele>
        <time>2020-01-15T14:49:58.000Z</time>
      </trkpt>
      <trkpt lat="48.41196" lon="7.24992">
        <ele>993.96</ele>
        <time>2020-01-15T14:50:08.000Z</time>
      </trkpt>
      <trkpt lat="48.41188" lon="7.25004">
        <ele>994.27</ele>
        <time>2020-01-15T14:50:18.000Z</time>
      </trkpt>
      <trkpt lat="48.41178" lon="7.25014">
        <ele>993.21</ele>
        <time>2020-01-15T14:50:28.000Z</time>
      </trkpt>
      <trkpt lat="48.41168" lon="7.25025">
        <ele>993.21</ele>
        <time>2020-01-15T14:50:38.000Z</time>
      </trkpt>
      <trkpt lat="48.41159" lon="7.25031">
        <ele>993.21</ele>
        <time>2020-01-15T14:50:48.000Z</time>
      </trkpt>
      <trkpt lat="48.41152" lon="7.25039">
        <ele>992.27</ele>
        <time>2020-01-15T14:50:58.000Z</time>
      </trkpt>
      <trkpt lat="48.41141" lon="7.25046">
        <ele>992</ele>
        <time>2020-01-15T14:51:08.000Z</time>
      </trkpt>
      <trkpt lat="48.4113" lon="7.25051">
        <ele>991.2</ele>
        <time>2020-01-15T14:51:18.000Z</time>
      </trkpt>
      <trkpt lat="48.41118" lon="7.25055">
        <ele>991.2</ele>
        <time>2020-01-15T14:51:28.000Z</time>
      </trkpt>
      <trkpt lat="48.41106" lon="7.25057">
        <ele>992.02</ele>
        <time>2020-01-15T14:51:38.000Z</time>
      </trkpt>
      <trkpt lat="48.41095" lon="7.25057">
        <ele>994.89</ele>
        <time>2020-01-15T14:51:48.000Z</time>
      </trkpt>
      <trkpt lat="48.41087" lon="7.25058">
        <ele>995.19</ele>
        <time>2020-01-15T14:51:58.000Z</time>
      </trkpt>
      <trkpt lat="48.41076" lon="7.2506">
        <ele>993.45</ele>
        <time>2020-01-15T14:52:08.000Z</time>
      </trkpt>
      <trkpt lat="48.41066" lon="7.25066">
        <ele>990.27</ele>
        <time>2020-01-15T14:52:18.000Z</time>
      </trkpt>
      <trkpt lat="48.41062" lon="7.25077">
        <ele>990.2</ele>
        <time>2020-01-15T14:52:28.000Z</time>
      </trkpt>
      <trkpt lat="48.41055" lon="7.25088">
        <ele>989.21</ele>
        <time>2020-01-15T14:52:38.000Z</time>
      </trkpt>
      <trkpt lat="48.41049" lon="7.251">
        <ele>986.47</ele>
        <time>2020-01-15T14:52:48.000Z</time>
      </trkpt>
      <trkpt lat="48.41044" lon="7.25112">
        <ele>985.21</ele>
        <time>2020-01-15T14:52:58.000Z</time>
      </trkpt>
      <trkpt lat="48.41042" lon="7.25118">
        <ele>986.19</ele>
        <time>2020-01-15T14:53:08.000Z</time>
      </trkpt>
      <trkpt lat="48.41041" lon="7.25123">
        <ele>984.27</ele>
        <time>2020-01-15T14:53:18.000Z</time>
      </trkpt>
      <trkpt lat="48.41032" lon="7.25127">
        <ele>982.27</ele>
        <time>2020-01-15T14:53:28.000Z</time>
      </trkpt>
      <trkpt lat="48.41022" lon="7.25131">
        <ele>981.26</ele>
        <time>2020-01-15T14:53:38.000Z</time>
      </trkpt>
      <trkpt lat="48.41015" lon="7.25141">
        <ele>980.45</ele>
        <time>2020-01-15T14:53:48.000Z</time>
      </trkpt>
      <trkpt lat="48.41007" lon="7.25152">
        <ele>980.2</ele>
        <time>2020-01-15T14:53:58.000Z</time>
      </trkpt>
      <trkpt lat="48.40997" lon="7.25162">
        <ele>978.95</ele>
        <time>2020-01-15T14:54:08.000Z</time>
      </trkpt>
      <trkpt lat="48.40995" lon="7.25166">
        <ele>980.2</ele>
        <time>2020-01-15T14:54:18.000Z</time>
      </trkpt>
      <trkpt lat="48.40991" lon="7.25171">
        <ele>980.2</ele>
        <time>2020-01-15T14:54:28.000Z</time>
      </trkpt>
      <trkpt lat="48.40983" lon="7.2518">
        <ele>979.22</ele>
        <time>2020-01-15T14:54:38.000Z</time>
      </trkpt>
      <trkpt lat="48.40975" lon="7.25187">
        <ele>978.19</ele>
        <time>2020-01-15T14:54:48.000Z</time>
      </trkpt>
      <trkpt lat="48.40966" lon="7.25198">
        <ele>979.14</ele>
        <time>2020-01-15T14:54:58.000Z</time>
      </trkpt>
      <trkpt lat="48.40957" lon="7.25198">
        <ele>977.47</ele>
        <time>2020-01-15T14:55:08.000Z</time>
      </trkpt>
      <trkpt lat="48.40952" lon="7.25188">
        <ele>976.22</ele>
        <time>2020-01-15T14:55:18.000Z</time>
      </trkpt>
      <trkpt lat="48.40945" lon="7.25172">
        <ele>975.02</ele>
        <time>2020-01-15T14:55:28.000Z</time>
      </trkpt>
      <trkpt lat="48.40938" lon="7.25158">
        <ele>973.45</ele>
        <time>2020-01-15T14:55:38.000Z</time>
      </trkpt>
      <trkpt lat="48.4093" lon="7.25146">
        <ele>974.14</ele>
        <time>2020-01-15T14:55:48.000Z</time>
      </trkpt>
      <trkpt lat="48.40926" lon="7.25129">
        <ele>973.2</ele>
        <time>2020-01-15T14:55:58.000Z</time>
      </trkpt>
      <trkpt lat="48.40917" lon="7.25118">
        <ele>973.2</ele>
        <time>2020-01-15T14:56:08.000Z</time>
      </trkpt>
      <trkpt lat="48.40908" lon="7.25112">
        <ele>973.95</ele>
        <time>2020-01-15T14:56:18.000Z</time>
      </trkpt>
      <trkpt lat="48.409" lon="7.2512">
        <ele>974.16</ele>
        <time>2020-01-15T14:56:28.000Z</time>
      </trkpt>
      <trkpt lat="48.40892" lon="7.25129">
        <ele>974.2</ele>
        <time>2020-01-15T14:56:38.000Z</time>
      </trkpt>
      <trkpt lat="48.40885" lon="7.25139">
        <ele>975.2</ele>
        <time>2020-01-15T14:56:48.000Z</time>
      </trkpt>
      <trkpt lat="48.40882" lon="7.25146">
        <ele>976.14</ele>
        <time>2020-01-15T14:56:58.000Z</time>
      </trkpt>
      <trkpt lat="48.40874" lon="7.25157">
        <ele>977.2</ele>
        <time>2020-01-15T14:57:08.000Z</time>
      </trkpt>
      <trkpt lat="48.40867" lon="7.25169">
        <ele>977.19</ele>
        <time>2020-01-15T14:57:18.000Z</time>
      </trkpt>
      <trkpt lat="48.4086" lon="7.25182">
        <ele>978.2</ele>
        <time>2020-01-15T14:57:28.000Z</time>
      </trkpt>
      <trkpt lat="48.40855" lon="7.25194">
        <ele>980.16</ele>
        <time>2020-01-15T14:57:38.000Z</time>
      </trkpt>
      <trkpt lat="48.40849" lon="7.25205">
        <ele>979.2</ele>
        <time>2020-01-15T14:57:48.000Z</time>
      </trkpt>
      <trkpt lat="48.40841" lon="7.25217">
        <ele>981.2</ele>
        <time>2020-01-15T14:57:58.000Z</time>
      </trkpt>
      <trkpt lat="48.40836" lon="7.25229">
        <ele>983.14</ele>
        <time>2020-01-15T14:58:08.000Z</time>
      </trkpt>
      <trkpt lat="48.4083" lon="7.2524">
        <ele>984.95</ele>
        <time>2020-01-15T14:58:18.000Z</time>
      </trkpt>
      <trkpt lat="48.40822" lon="7.25251">
        <ele>985.21</ele>
        <time>2020-01-15T14:58:28.000Z</time>
      </trkpt>
      <trkpt lat="48.40817" lon="7.25261">
        <ele>986.2</ele>
        <time>2020-01-15T14:58:38.000Z</time>
      </trkpt>
      <trkpt lat="48.4081" lon="7.25273">
        <ele>986.2</ele>
        <time>2020-01-15T14:58:48.000Z</time>
      </trkpt>
      <trkpt lat="48.40803" lon="7.25286">
        <ele>985.45</ele>
        <time>2020-01-15T14:58:58.000Z</time>
      </trkpt>
      <trkpt lat="48.40797" lon="7.25299">
        <ele>987.14</ele>
        <time>2020-01-15T14:59:08.000Z</time>
      </trkpt>
      <trkpt lat="48.40787" lon="7.25311">
        <ele>985.95</ele>
        <time>2020-01-15T14:59:18.000Z</time>
      </trkpt>
      <trkpt lat="48.4078" lon="7.25323">
        <ele>987.14</ele>
        <time>2020-01-15T14:59:28.000Z</time>
      </trkpt>
      <trkpt lat="48.4077" lon="7.25324">
        <ele>989.15</ele>
        <time>2020-01-15T14:59:38.000Z</time>
      </trkpt>
      <trkpt lat="48.40762" lon="7.25316">
        <ele>990</ele>
        <time>2020-01-15T14:59:48.000Z</time>
      </trkpt>
      <trkpt lat="48.40756" lon="7.25302">
        <ele>990.2</ele>
        <time>2020-01-15T14:59:58.000Z</time>
      </trkpt>
      <trkpt lat="48.40747" lon="7.25295">
        <ele>991.2</ele>
        <time>2020-01-15T15:00:08.000Z</time>
      </trkpt>
      <trkpt lat="48.40737" lon="7.25291">
        <ele>993.19</ele>
        <time>2020-01-15T15:00:18.000Z</time>
      </trkpt>
      <trkpt lat="48.40728" lon="7.25288">
        <ele>994.26</ele>
        <time>2020-01-15T15:00:28.000Z</time>
      </trkpt>
      <trkpt lat="48.40719" lon="7.25288">
        <ele>993.19</ele>
        <time>2020-01-15T15:00:38.000Z</time>
      </trkpt>
      <trkpt lat="48.4071" lon="7.2529">
        <ele>993.19</ele>
        <time>2020-01-15T15:00:48.000Z</time>
      </trkpt>
      <trkpt lat="48.40701" lon="7.25291">
        <ele>995.2</ele>
        <time>2020-01-15T15:00:58.000Z</time>
      </trkpt>
      <trkpt lat="48.40693" lon="7.25294">
        <ele>995.2</ele>
        <time>2020-01-15T15:01:08.000Z</time>
      </trkpt>
      <trkpt lat="48.40684" lon="7.25297">
        <ele>994.28</ele>
        <time>2020-01-15T15:01:18.000Z</time>
      </trkpt>
      <trkpt lat="48.40677" lon="7.25305">
        <ele>995.14</ele>
        <time>2020-01-15T15:01:28.000Z</time>
      </trkpt>
      <trkpt lat="48.40668" lon="7.25311">
        <ele>997.14</ele>
        <time>2020-01-15T15:01:38.000Z</time>
      </trkpt>
      <trkpt lat="48.40658" lon="7.25315">
        <ele>999.2</ele>
        <time>2020-01-15T15:01:48.000Z</time>
      </trkpt>
      <trkpt lat="48.40648" lon="7.2532">
        <ele>999.19</ele>
        <time>2020-01-15T15:01:58.000Z</time>
      </trkpt>
      <trkpt lat="48.4064" lon="7.25326">
        <ele>1000.2</ele>
        <time>2020-01-15T15:02:08.000Z</time>
      </trkpt>
      <trkpt lat="48.4063" lon="7.25333">
        <ele>999.2</ele>
        <time>2020-01-15T15:02:18.000Z</time>
      </trkpt>
      <trkpt lat="48.40618" lon="7.2534">
        <ele>1000.94</ele>
        <time>2020-01-15T15:02:28.000Z</time>
      </trkpt>
      <trkpt lat="48.40606" lon="7.25348">
        <ele>1001.2</ele>
        <time>2020-01-15T15:02:38.000Z</time>
      </trkpt>
      <trkpt lat="48.40597" lon="7.2535">
        <ele>1002.2</ele>
        <time>2020-01-15T15:02:48.000Z</time>
      </trkpt>
      <trkpt lat="48.40585" lon="7.25352">
        <ele>1002.2</ele>
        <time>2020-01-15T15:02:58.000Z</time>
      </trkpt>
      <trkpt lat="48.40574" lon="7.25352">
        <ele>1003.2</ele>
        <time>2020-01-15T15:03:08.000Z</time>
      </trkpt>
      <trkpt lat="48.40563" lon="7.25355">
        <ele>1004.22</ele>
        <time>2020-01-15T15:03:18.000Z</time>
      </trkpt>
      <trkpt lat="48.40551" lon="7.25357">
        <ele>1005.2</ele>
        <time>2020-01-15T15:03:28.000Z</time>
      </trkpt>
      <trkpt lat="48.40545" lon="7.25367">
        <ele>1005.22</ele>
        <time>2020-01-15T15:03:38.000Z</time>
      </trkpt>
      <trkpt lat="48.40549" lon="7.25369">
        <ele>1009.93</ele>
        <time>2020-01-15T15:03:48.000Z</time>
      </trkpt>
      <trkpt lat="48.40548" lon="7.25367">
        <ele>1012.2</ele>
        <time>2020-01-15T15:05:27.000Z</time>
      </trkpt>
      <trkpt lat="48.40546" lon="7.25372">
        <ele>1011.2</ele>
        <time>2020-01-15T15:05:37.000Z</time>
      </trkpt>
      <trkpt lat="48.40547" lon="7.25373">
        <ele>1011.2</ele>
        <time>2020-01-15T15:05:47.000Z</time>
      </trkpt>
      <trkpt lat="48.40541" lon="7.25372">
        <ele>1011.2</ele>
        <time>2020-01-15T15:05:57.000Z</time>
      </trkpt>
      <trkpt lat="48.4053" lon="7.25369">
        <ele>1012.14</ele>
        <time>2020-01-15T15:06:07.000Z</time>
      </trkpt>
      <trkpt lat="48.40519" lon="7.25369">
        <ele>1011.2</ele>
        <time>2020-01-15T15:06:17.000Z</time>
      </trkpt>
      <trkpt lat="48.40508" lon="7.25367">
        <ele>1010.26</ele>
        <time>2020-01-15T15:06:27.000Z</time>
      </trkpt>
      <trkpt lat="48.40497" lon="7.25364">
        <ele>1010.2</ele>
        <time>2020-01-15T15:06:37.000Z</time>
      </trkpt>
      <trkpt lat="48.40488" lon="7.25362">
        <ele>1011.15</ele>
        <time>2020-01-15T15:06:47.000Z</time>
      </trkpt>
      <trkpt lat="48.40477" lon="7.25361">
        <ele>1010.2</ele>
        <time>2020-01-15T15:06:57.000Z</time>
      </trkpt>
      <trkpt lat="48.40467" lon="7.25357">
        <ele>1009.2</ele>
        <time>2020-01-15T15:07:07.000Z</time>
      </trkpt>
      <trkpt lat="48.40459" lon="7.25354">
        <ele>1009.2</ele>
        <time>2020-01-15T15:07:17.000Z</time>
      </trkpt>
      <trkpt lat="48.40449" lon="7.25349">
        <ele>1007.26</ele>
        <time>2020-01-15T15:07:27.000Z</time>
      </trkpt>
      <trkpt lat="48.4044" lon="7.25345">
        <ele>1006.01</ele>
        <time>2020-01-15T15:07:37.000Z</time>
      </trkpt>
      <trkpt lat="48.4043" lon="7.25338">
        <ele>1005.2</ele>
        <time>2020-01-15T15:07:47.000Z</time>
      </trkpt>
      <trkpt lat="48.40418" lon="7.25329">
        <ele>1004.96</ele>
        <time>2020-01-15T15:07:57.000Z</time>
      </trkpt>
      <trkpt lat="48.40407" lon="7.25318">
        <ele>1007.18</ele>
        <time>2020-01-15T15:08:07.000Z</time>
      </trkpt>
      <trkpt lat="48.40395" lon="7.25306">
        <ele>1009.2</ele>
        <time>2020-01-15T15:08:17.000Z</time>
      </trkpt>
      <trkpt lat="48.40385" lon="7.25293">
        <ele>1012.94</ele>
        <time>2020-01-15T15:08:27.000Z</time>
      </trkpt>
      <trkpt lat="48.40373" lon="7.25283">
        <ele>1016.18</ele>
        <time>2020-01-15T15:08:37.000Z</time>
      </trkpt>
      <trkpt lat="48.40362" lon="7.25276">
        <ele>1017.2</ele>
        <time>2020-01-15T15:08:47.000Z</time>
      </trkpt>
      <trkpt lat="48.40352" lon="7.25271">
        <ele>1019.18</ele>
        <time>2020-01-15T15:08:57.000Z</time>
      </trkpt>
      <trkpt lat="48.4034" lon="7.25265">
        <ele>1020.19</ele>
        <time>2020-01-15T15:09:07.000Z</time>
      </trkpt>
      <trkpt lat="48.40329" lon="7.2526">
        <ele>1022.18</ele>
        <time>2020-01-15T15:09:17.000Z</time>
      </trkpt>
      <trkpt lat="48.40321" lon="7.25255">
        <ele>1023.95</ele>
        <time>2020-01-15T15:09:27.000Z</time>
      </trkpt>
      <trkpt lat="48.40312" lon="7.25247">
        <ele>1023.39</ele>
        <time>2020-01-15T15:09:37.000Z</time>
      </trkpt>
      <trkpt lat="48.40302" lon="7.25236">
        <ele>1023.2</ele>
        <time>2020-01-15T15:09:47.000Z</time>
      </trkpt>
      <trkpt lat="48.40294" lon="7.25229">
        <ele>1021.2</ele>
        <time>2020-01-15T15:09:57.000Z</time>
      </trkpt>
      <trkpt lat="48.40284" lon="7.25217">
        <ele>1021.96</ele>
        <time>2020-01-15T15:10:07.000Z</time>
      </trkpt>
      <trkpt lat="48.40275" lon="7.25208">
        <ele>1023.18</ele>
        <time>2020-01-15T15:10:17.000Z</time>
      </trkpt>
      <trkpt lat="48.40266" lon="7.252">
        <ele>1025.2</ele>
        <time>2020-01-15T15:10:27.000Z</time>
      </trkpt>
      <trkpt lat="48.40256" lon="7.25192">
        <ele>1026.19</ele>
        <time>2020-01-15T15:10:37.000Z</time>
      </trkpt>
      <trkpt lat="48.40248" lon="7.25187">
        <ele>1026.2</ele>
        <time>2020-01-15T15:10:47.000Z</time>
      </trkpt>
      <trkpt lat="48.40238" lon="7.25183">
        <ele>1027.2</ele>
        <time>2020-01-15T15:10:57.000Z</time>
      </trkpt>
      <trkpt lat="48.40226" lon="7.25176">
        <ele>1028.2</ele>
        <time>2020-01-15T15:11:07.000Z</time>
      </trkpt>
      <trkpt lat="48.40215" lon="7.25171">
        <ele>1028.45</ele>
        <time>2020-01-15T15:11:17.000Z</time>
      </trkpt>
      <trkpt lat="48.40204" lon="7.2517">
        <ele>1028.2</ele>
        <time>2020-01-15T15:11:27.000Z</time>
      </trkpt>
      <trkpt lat="48.40192" lon="7.25167">
        <ele>1028.2</ele>
        <time>2020-01-15T15:11:37.000Z</time>
      </trkpt>
      <trkpt lat="48.40181" lon="7.25169">
        <ele>1027.45</ele>
        <time>2020-01-15T15:11:47.000Z</time>
      </trkpt>
      <trkpt lat="48.40169" lon="7.25177">
        <ele>1029.2</ele>
        <time>2020-01-15T15:11:57.000Z</time>
      </trkpt>
      <trkpt lat="48.40164" lon="7.25185">
        <ele>1025.22</ele>
        <time>2020-01-15T15:12:07.000Z</time>
      </trkpt>
      <trkpt lat="48.40157" lon="7.25196">
        <ele>1023.21</ele>
        <time>2020-01-15T15:12:17.000Z</time>
      </trkpt>
      <trkpt lat="48.40156" lon="7.25206">
        <ele>1023.24</ele>
        <time>2020-01-15T15:12:27.000Z</time>
      </trkpt>
      <trkpt lat="48.40153" lon="7.25219">
        <ele>1022.18</ele>
        <time>2020-01-15T15:12:37.000Z</time>
      </trkpt>
      <trkpt lat="48.40148" lon="7.25232">
        <ele>1021.38</ele>
        <time>2020-01-15T15:12:47.000Z</time>
      </trkpt>
      <trkpt lat="48.40146" lon="7.25233">
        <ele>1022.2</ele>
        <time>2020-01-15T15:12:57.000Z</time>
      </trkpt>
      <trkpt lat="48.40145" lon="7.25235">
        <ele>1020.45</ele>
        <time>2020-01-15T15:13:14.000Z</time>
      </trkpt>
      <trkpt lat="48.40143" lon="7.25244">
        <ele>1020.2</ele>
        <time>2020-01-15T15:13:24.000Z</time>
      </trkpt>
      <trkpt lat="48.40136" lon="7.25247">
        <ele>1019.96</ele>
        <time>2020-01-15T15:13:34.000Z</time>
      </trkpt>
      <trkpt lat="48.40128" lon="7.25253">
        <ele>1019.2</ele>
        <time>2020-01-15T15:13:44.000Z</time>
      </trkpt>
      <trkpt lat="48.40119" lon="7.25258">
        <ele>1019.2</ele>
        <time>2020-01-15T15:13:54.000Z</time>
      </trkpt>
      <trkpt lat="48.40106" lon="7.25264">
        <ele>1020.13</ele>
        <time>2020-01-15T15:14:04.000Z</time>
      </trkpt>
      <trkpt lat="48.40093" lon="7.2527">
        <ele>1018.2</ele>
        <time>2020-01-15T15:14:14.000Z</time>
      </trkpt>
      <trkpt lat="48.40083" lon="7.25282">
        <ele>1017.2</ele>
        <time>2020-01-15T15:14:24.000Z</time>
      </trkpt>
      <trkpt lat="48.40075" lon="7.2529">
        <ele>1018.13</ele>
        <time>2020-01-15T15:14:34.000Z</time>
      </trkpt>
      <trkpt lat="48.40063" lon="7.25297">
        <ele>1017.26</ele>
        <time>2020-01-15T15:14:44.000Z</time>
      </trkpt>
      <trkpt lat="48.40053" lon="7.25304">
        <ele>1018.19</ele>
        <time>2020-01-15T15:14:54.000Z</time>
      </trkpt>
      <trkpt lat="48.40043" lon="7.25309">
        <ele>1017.2</ele>
        <time>2020-01-15T15:15:04.000Z</time>
      </trkpt>
      <trkpt lat="48.40033" lon="7.25317">
        <ele>1017.2</ele>
        <time>2020-01-15T15:15:14.000Z</time>
      </trkpt>
      <trkpt lat="48.40024" lon="7.25326">
        <ele>1016.26</ele>
        <time>2020-01-15T15:15:24.000Z</time>
      </trkpt>
      <trkpt lat="48.40017" lon="7.25336">
        <ele>1015.26</ele>
        <time>2020-01-15T15:15:34.000Z</time>
      </trkpt>
      <trkpt lat="48.40008" lon="7.25347">
        <ele>1016.94</ele>
        <time>2020-01-15T15:15:44.000Z</time>
      </trkpt>
      <trkpt lat="48.40001" lon="7.25356">
        <ele>1015.95</ele>
        <time>2020-01-15T15:15:54.000Z</time>
      </trkpt>
      <trkpt lat="48.39991" lon="7.25367">
        <ele>1016.2</ele>
        <time>2020-01-15T15:16:04.000Z</time>
      </trkpt>
      <trkpt lat="48.3998" lon="7.25378">
        <ele>1017.2</ele>
        <time>2020-01-15T15:16:14.000Z</time>
      </trkpt>
      <trkpt lat="48.3997" lon="7.25389">
        <ele>1018.95</ele>
        <time>2020-01-15T15:16:24.000Z</time>
      </trkpt>
      <trkpt lat="48.3996" lon="7.254">
        <ele>1020.2</ele>
        <time>2020-01-15T15:16:34.000Z</time>
      </trkpt>
      <trkpt lat="48.39952" lon="7.25408">
        <ele>1020.95</ele>
        <time>2020-01-15T15:16:44.000Z</time>
      </trkpt>
      <trkpt lat="48.39945" lon="7.25416">
        <ele>1022.19</ele>
        <time>2020-01-15T15:16:54.000Z</time>
      </trkpt>
      <trkpt lat="48.39941" lon="7.2542">
        <ele>1025.69</ele>
        <time>2020-01-15T15:17:04.000Z</time>
      </trkpt>
      <trkpt lat="48.3994" lon="7.25421">
        <ele>1028.19</ele>
        <time>2020-01-15T15:17:14.000Z</time>
      </trkpt>
      <trkpt lat="48.39941" lon="7.25423">
        <ele>1028.38</ele>
        <time>2020-01-15T15:17:39.000Z</time>
      </trkpt>
      <trkpt lat="48.39942" lon="7.25423">
        <ele>1029.13</ele>
        <time>2020-01-15T15:17:51.000Z</time>
      </trkpt>
      <trkpt lat="48.39934" lon="7.25422">
        <ele>1027.21</ele>
        <time>2020-01-15T15:18:01.000Z</time>
      </trkpt>
      <trkpt lat="48.39925" lon="7.25423">
        <ele>1023.28</ele>
        <time>2020-01-15T15:18:11.000Z</time>
      </trkpt>
      <trkpt lat="48.39915" lon="7.25422">
        <ele>1022.26</ele>
        <time>2020-01-15T15:18:21.000Z</time>
      </trkpt>
      <trkpt lat="48.39904" lon="7.25424">
        <ele>1021.45</ele>
        <time>2020-01-15T15:18:31.000Z</time>
      </trkpt>
      <trkpt lat="48.39897" lon="7.25425">
        <ele>1020.21</ele>
        <time>2020-01-15T15:18:41.000Z</time>
      </trkpt>
      <trkpt lat="48.39887" lon="7.25425">
        <ele>1019.27</ele>
        <time>2020-01-15T15:18:51.000Z</time>
      </trkpt>
      <trkpt lat="48.39876" lon="7.25429">
        <ele>1016.21</ele>
        <time>2020-01-15T15:19:01.000Z</time>
      </trkpt>
      <trkpt lat="48.39866" lon="7.25439">
        <ele>1015.19</ele>
        <time>2020-01-15T15:19:11.000Z</time>
      </trkpt>
      <trkpt lat="48.39858" lon="7.25449">
        <ele>1014.2</ele>
        <time>2020-01-15T15:19:21.000Z</time>
      </trkpt>
      <trkpt lat="48.39848" lon="7.25459">
        <ele>1011.46</ele>
        <time>2020-01-15T15:19:31.000Z</time>
      </trkpt>
      <trkpt lat="48.39839" lon="7.2547">
        <ele>1012.19</ele>
        <time>2020-01-15T15:19:41.000Z</time>
      </trkpt>
      <trkpt lat="48.39827" lon="7.25478">
        <ele>1014.94</ele>
        <time>2020-01-15T15:19:51.000Z</time>
      </trkpt>
      <trkpt lat="48.3982" lon="7.25487">
        <ele>1015.95</ele>
        <time>2020-01-15T15:20:01.000Z</time>
      </trkpt>
      <trkpt lat="48.39814" lon="7.25492">
        <ele>1014.44</ele>
        <time>2020-01-15T15:20:11.000Z</time>
      </trkpt>
      <trkpt lat="48.39805" lon="7.25504">
        <ele>1016.13</ele>
        <time>2020-01-15T15:20:21.000Z</time>
      </trkpt>
      <trkpt lat="48.39795" lon="7.25512">
        <ele>1016.19</ele>
        <time>2020-01-15T15:20:31.000Z</time>
      </trkpt>
      <trkpt lat="48.39785" lon="7.25521">
        <ele>1016.19</ele>
        <time>2020-01-15T15:20:41.000Z</time>
      </trkpt>
      <trkpt lat="48.39776" lon="7.25526">
        <ele>1014.19</ele>
        <time>2020-01-15T15:20:51.000Z</time>
      </trkpt>
      <trkpt lat="48.39764" lon="7.25531">
        <ele>1014.18</ele>
        <time>2020-01-15T15:21:01.000Z</time>
      </trkpt>
      <trkpt lat="48.39754" lon="7.2554">
        <ele>1013.21</ele>
        <time>2020-01-15T15:21:11.000Z</time>
      </trkpt>
      <trkpt lat="48.39742" lon="7.25547">
        <ele>1013.13</ele>
        <time>2020-01-15T15:21:21.000Z</time>
      </trkpt>
      <trkpt lat="48.39732" lon="7.25555">
        <ele>1014.18</ele>
        <time>2020-01-15T15:21:31.000Z</time>
      </trkpt>
      <trkpt lat="48.39721" lon="7.25561">
        <ele>1012.27</ele>
        <time>2020-01-15T15:21:41.000Z</time>
      </trkpt>
      <trkpt lat="48.39711" lon="7.25571">
        <ele>1010.44</ele>
        <time>2020-01-15T15:21:51.000Z</time>
      </trkpt>
      <trkpt lat="48.397" lon="7.2558">
        <ele>1012.94</ele>
        <time>2020-01-15T15:22:01.000Z</time>
      </trkpt>
      <trkpt lat="48.39689" lon="7.25587">
        <ele>1013.19</ele>
        <time>2020-01-15T15:22:11.000Z</time>
      </trkpt>
      <trkpt lat="48.3968" lon="7.25593">
        <ele>1013.19</ele>
        <time>2020-01-15T15:22:21.000Z</time>
      </trkpt>
      <trkpt lat="48.39668" lon="7.25597">
        <ele>1014.94</ele>
        <time>2020-01-15T15:22:31.000Z</time>
      </trkpt>
      <trkpt lat="48.39657" lon="7.256">
        <ele>1015.19</ele>
        <time>2020-01-15T15:22:41.000Z</time>
      </trkpt>
      <trkpt lat="48.39645" lon="7.25606">
        <ele>1013.26</ele>
        <time>2020-01-15T15:22:51.000Z</time>
      </trkpt>
      <trkpt lat="48.39634" lon="7.25611">
        <ele>1011.44</ele>
        <time>2020-01-15T15:23:01.000Z</time>
      </trkpt>
      <trkpt lat="48.39624" lon="7.25619">
        <ele>1012.18</ele>
        <time>2020-01-15T15:23:11.000Z</time>
      </trkpt>
      <trkpt lat="48.39615" lon="7.25625">
        <ele>1009.19</ele>
        <time>2020-01-15T15:23:21.000Z</time>
      </trkpt>
      <trkpt lat="48.39603" lon="7.25631">
        <ele>1009.19</ele>
        <time>2020-01-15T15:23:31.000Z</time>
      </trkpt>
      <trkpt lat="48.39591" lon="7.25637">
        <ele>1010.18</ele>
        <time>2020-01-15T15:23:41.000Z</time>
      </trkpt>
      <trkpt lat="48.39579" lon="7.25642">
        <ele>1009.95</ele>
        <time>2020-01-15T15:23:51.000Z</time>
      </trkpt>
      <trkpt lat="48.39567" lon="7.25647">
        <ele>1010.19</ele>
        <time>2020-01-15T15:24:01.000Z</time>
      </trkpt>
      <trkpt lat="48.39558" lon="7.25657">
        <ele>1010.19</ele>
        <time>2020-01-15T15:24:11.000Z</time>
      </trkpt>
      <trkpt lat="48.39557" lon="7.25658">
        <ele>1011.19</ele>
        <time>2020-01-15T15:24:21.000Z</time>
      </trkpt>
      <trkpt lat="48.39557" lon="7.25654">
        <ele>1013.19</ele>
        <time>2020-01-15T15:24:31.000Z</time>
      </trkpt>
      <trkpt lat="48.39556" lon="7.25654">
        <ele>1015.18</ele>
        <time>2020-01-15T15:24:53.000Z</time>
      </trkpt>
      <trkpt lat="48.39556" lon="7.25652">
        <ele>1017.17</ele>
        <time>2020-01-15T15:25:03.000Z</time>
      </trkpt>
      <trkpt lat="48.39556" lon="7.25644">
        <ele>1017.94</ele>
        <time>2020-01-15T15:25:13.000Z</time>
      </trkpt>
      <trkpt lat="48.39554" lon="7.2564">
        <ele>1020.11</ele>
        <time>2020-01-15T15:25:23.000Z</time>
      </trkpt>
      <trkpt lat="48.39553" lon="7.25641">
        <ele>1019.5</ele>
        <time>2020-01-15T15:25:33.000Z</time>
      </trkpt>
      <trkpt lat="48.39552" lon="7.25642">
        <ele>1020.19</ele>
        <time>2020-01-15T15:25:43.000Z</time>
      </trkpt>
      <trkpt lat="48.39551" lon="7.2564">
        <ele>1020.13</ele>
        <time>2020-01-15T15:26:45.000Z</time>
      </trkpt>
      <trkpt lat="48.3955" lon="7.25642">
        <ele>1020.19</ele>
        <time>2020-01-15T15:26:55.000Z</time>
      </trkpt>
      <trkpt lat="48.39552" lon="7.25641">
        <ele>1019.44</ele>
        <time>2020-01-15T15:27:56.000Z</time>
      </trkpt>
      <trkpt lat="48.39554" lon="7.2564">
        <ele>1018.19</ele>
        <time>2020-01-15T15:28:06.000Z</time>
      </trkpt>
      <trkpt lat="48.39555" lon="7.25645">
        <ele>1020.82</ele>
        <time>2020-01-15T15:28:16.000Z</time>
      </trkpt>
      <trkpt lat="48.39557" lon="7.25649">
        <ele>1019.21</ele>
        <time>2020-01-15T15:28:26.000Z</time>
      </trkpt>
      <trkpt lat="48.39557" lon="7.25666">
        <ele>1015.49</ele>
        <time>2020-01-15T15:28:36.000Z</time>
      </trkpt>
      <trkpt lat="48.39556" lon="7.25683">
        <ele>1015.19</ele>
        <time>2020-01-15T15:28:46.000Z</time>
      </trkpt>
      <trkpt lat="48.39556" lon="7.25697">
        <ele>1013.13</ele>
        <time>2020-01-15T15:28:56.000Z</time>
      </trkpt>
      <trkpt lat="48.39555" lon="7.25716">
        <ele>1011.5</ele>
        <time>2020-01-15T15:29:06.000Z</time>
      </trkpt>
      <trkpt lat="48.3955" lon="7.25732">
        <ele>1008.26</ele>
        <time>2020-01-15T15:29:16.000Z</time>
      </trkpt>
      <trkpt lat="48.39551" lon="7.25745">
        <ele>1009.19</ele>
        <time>2020-01-15T15:29:26.000Z</time>
      </trkpt>
      <trkpt lat="48.39556" lon="7.25737">
        <ele>1012.18</ele>
        <time>2020-01-15T15:29:36.000Z</time>
      </trkpt>
      <trkpt lat="48.39562" lon="7.25728">
        <ele>1016.11</ele>
        <time>2020-01-15T15:29:46.000Z</time>
      </trkpt>
      <trkpt lat="48.39567" lon="7.25716">
        <ele>1020.19</ele>
        <time>2020-01-15T15:29:56.000Z</time>
      </trkpt>
      <trkpt lat="48.39571" lon="7.25708">
        <ele>1023.19</ele>
        <time>2020-01-15T15:30:06.000Z</time>
      </trkpt>
      <trkpt lat="48.39578" lon="7.25699">
        <ele>1022.19</ele>
        <time>2020-01-15T15:30:16.000Z</time>
      </trkpt>
      <trkpt lat="48.39584" lon="7.25695">
        <ele>1022.19</ele>
        <time>2020-01-15T15:30:26.000Z</time>
      </trkpt>
      <trkpt lat="48.39592" lon="7.25697">
        <ele>1024.14</ele>
        <time>2020-01-15T15:30:36.000Z</time>
      </trkpt>
      <trkpt lat="48.39592" lon="7.25705">
        <ele>1023.19</ele>
        <time>2020-01-15T15:30:46.000Z</time>
      </trkpt>
      <trkpt lat="48.39586" lon="7.25716">
        <ele>1021.19</ele>
        <time>2020-01-15T15:30:56.000Z</time>
      </trkpt>
      <trkpt lat="48.39583" lon="7.25731">
        <ele>1021.19</ele>
        <time>2020-01-15T15:31:06.000Z</time>
      </trkpt>
      <trkpt lat="48.39582" lon="7.25748">
        <ele>1022.13</ele>
        <time>2020-01-15T15:31:16.000Z</time>
      </trkpt>
      <trkpt lat="48.39579" lon="7.25766">
        <ele>1022.13</ele>
        <time>2020-01-15T15:31:26.000Z</time>
      </trkpt>
      <trkpt lat="48.39577" lon="7.25781">
        <ele>1023.13</ele>
        <time>2020-01-15T15:31:36.000Z</time>
      </trkpt>
      <trkpt lat="48.39575" lon="7.25797">
        <ele>1024.15</ele>
        <time>2020-01-15T15:31:46.000Z</time>
      </trkpt>
      <trkpt lat="48.39572" lon="7.25812">
        <ele>1023.15</ele>
        <time>2020-01-15T15:31:56.000Z</time>
      </trkpt>
      <trkpt lat="48.39571" lon="7.25828">
        <ele>1026.19</ele>
        <time>2020-01-15T15:32:06.000Z</time>
      </trkpt>
      <trkpt lat="48.39567" lon="7.25841">
        <ele>1027.18</ele>
        <time>2020-01-15T15:32:16.000Z</time>
      </trkpt>
      <trkpt lat="48.39564" lon="7.25856">
        <ele>1030.93</ele>
        <time>2020-01-15T15:32:26.000Z</time>
      </trkpt>
      <trkpt lat="48.39562" lon="7.25868">
        <ele>1031.44</ele>
        <time>2020-01-15T15:32:36.000Z</time>
      </trkpt>
      <trkpt lat="48.39561" lon="7.25883">
        <ele>1033.19</ele>
        <time>2020-01-15T15:32:46.000Z</time>
      </trkpt>
      <trkpt lat="48.39561" lon="7.25891">
        <ele>1033.19</ele>
        <time>2020-01-15T15:32:56.000Z</time>
      </trkpt>
      <trkpt lat="48.3956" lon="7.25902">
        <ele>1031.26</ele>
        <time>2020-01-15T15:33:06.000Z</time>
      </trkpt>
      <trkpt lat="48.39558" lon="7.25918">
        <ele>1031.94</ele>
        <time>2020-01-15T15:33:16.000Z</time>
      </trkpt>
      <trkpt lat="48.39556" lon="7.25928">
        <ele>1032.18</ele>
        <time>2020-01-15T15:33:26.000Z</time>
      </trkpt>
      <trkpt lat="48.39554" lon="7.25942">
        <ele>1035.19</ele>
        <time>2020-01-15T15:33:36.000Z</time>
      </trkpt>
      <trkpt lat="48.39552" lon="7.25952">
        <ele>1035.44</ele>
        <time>2020-01-15T15:33:46.000Z</time>
      </trkpt>
      <trkpt lat="48.39551" lon="7.25963">
        <ele>1035.2</ele>
        <time>2020-01-15T15:33:56.000Z</time>
      </trkpt>
      <trkpt lat="48.39552" lon="7.25979">
        <ele>1037.14</ele>
        <time>2020-01-15T15:34:06.000Z</time>
      </trkpt>
      <trkpt lat="48.39552" lon="7.25994">
        <ele>1035.44</ele>
        <time>2020-01-15T15:34:16.000Z</time>
      </trkpt>
      <trkpt lat="48.39552" lon="7.26009">
        <ele>1037.13</ele>
        <time>2020-01-15T15:34:26.000Z</time>
      </trkpt>
      <trkpt lat="48.39554" lon="7.2602">
        <ele>1039.2</ele>
        <time>2020-01-15T15:34:36.000Z</time>
      </trkpt>
      <trkpt lat="48.39556" lon="7.26035">
        <ele>1039.19</ele>
        <time>2020-01-15T15:34:46.000Z</time>
      </trkpt>
      <trkpt lat="48.39554" lon="7.26052">
        <ele>1039.25</ele>
        <time>2020-01-15T15:34:56.000Z</time>
      </trkpt>
      <trkpt lat="48.39552" lon="7.26065">
        <ele>1038.19</ele>
        <time>2020-01-15T15:35:06.000Z</time>
      </trkpt>
      <trkpt lat="48.39551" lon="7.26077">
        <ele>1037.21</ele>
        <time>2020-01-15T15:35:16.000Z</time>
      </trkpt>
      <trkpt lat="48.39547" lon="7.26092">
        <ele>1036.94</ele>
        <time>2020-01-15T15:35:26.000Z</time>
      </trkpt>
      <trkpt lat="48.39542" lon="7.26104">
        <ele>1034.44</ele>
        <time>2020-01-15T15:35:36.000Z</time>
      </trkpt>
      <trkpt lat="48.39538" lon="7.26115">
        <ele>1035.17</ele>
        <time>2020-01-15T15:35:46.000Z</time>
      </trkpt>
      <trkpt lat="48.39533" lon="7.2613">
        <ele>1036.44</ele>
        <time>2020-01-15T15:35:56.000Z</time>
      </trkpt>
      <trkpt lat="48.39532" lon="7.26147">
        <ele>1036.44</ele>
        <time>2020-01-15T15:36:06.000Z</time>
      </trkpt>
      <trkpt lat="48.3953" lon="7.26161">
        <ele>1037.93</ele>
        <time>2020-01-15T15:36:16.000Z</time>
      </trkpt>
      <trkpt lat="48.39529" lon="7.26174">
        <ele>1037.26</ele>
        <time>2020-01-15T15:36:26.000Z</time>
      </trkpt>
      <trkpt lat="48.39526" lon="7.2618">
        <ele>1035.19</ele>
        <time>2020-01-15T15:36:36.000Z</time>
      </trkpt>
      <trkpt lat="48.39525" lon="7.26185">
        <ele>1034.44</ele>
        <time>2020-01-15T15:36:47.000Z</time>
      </trkpt>
      <trkpt lat="48.39525" lon="7.26189">
        <ele>1034.19</ele>
        <time>2020-01-15T15:36:57.000Z</time>
      </trkpt>
      <trkpt lat="48.39523" lon="7.26194">
        <ele>1034.19</ele>
        <time>2020-01-15T15:37:07.000Z</time>
      </trkpt>
      <trkpt lat="48.39516" lon="7.26207">
        <ele>1032.26</ele>
        <time>2020-01-15T15:37:17.000Z</time>
      </trkpt>
      <trkpt lat="48.39509" lon="7.26213">
        <ele>1029.26</ele>
        <time>2020-01-15T15:37:27.000Z</time>
      </trkpt>
      <trkpt lat="48.39499" lon="7.26225">
        <ele>1029.21</ele>
        <time>2020-01-15T15:37:37.000Z</time>
      </trkpt>
      <trkpt lat="48.39489" lon="7.26236">
        <ele>1027.19</ele>
        <time>2020-01-15T15:37:47.000Z</time>
      </trkpt>
      <trkpt lat="48.39482" lon="7.26241">
        <ele>1025.26</ele>
        <time>2020-01-15T15:37:57.000Z</time>
      </trkpt>
      <trkpt lat="48.39475" lon="7.26248">
        <ele>1023.19</ele>
        <time>2020-01-15T15:38:07.000Z</time>
      </trkpt>
      <trkpt lat="48.39466" lon="7.26262">
        <ele>1022.44</ele>
        <time>2020-01-15T15:38:17.000Z</time>
      </trkpt>
      <trkpt lat="48.39459" lon="7.26277">
        <ele>1024.19</ele>
        <time>2020-01-15T15:38:27.000Z</time>
      </trkpt>
      <trkpt lat="48.39455" lon="7.26289">
        <ele>1021.2</ele>
        <time>2020-01-15T15:38:37.000Z</time>
      </trkpt>
      <trkpt lat="48.39451" lon="7.26303">
        <ele>1019.26</ele>
        <time>2020-01-15T15:38:47.000Z</time>
      </trkpt>
      <trkpt lat="48.39444" lon="7.26317">
        <ele>1018.19</ele>
        <time>2020-01-15T15:38:57.000Z</time>
      </trkpt>
      <trkpt lat="48.39435" lon="7.26332">
        <ele>1017.43</ele>
        <time>2020-01-15T15:39:07.000Z</time>
      </trkpt>
      <trkpt lat="48.39432" lon="7.26343">
        <ele>1016.95</ele>
        <time>2020-01-15T15:39:17.000Z</time>
      </trkpt>
      <trkpt lat="48.39432" lon="7.26353">
        <ele>1014.28</ele>
        <time>2020-01-15T15:39:27.000Z</time>
      </trkpt>
      <trkpt lat="48.39431" lon="7.26369">
        <ele>1016.13</ele>
        <time>2020-01-15T15:39:37.000Z</time>
      </trkpt>
      <trkpt lat="48.39427" lon="7.26381">
        <ele>1018.2</ele>
        <time>2020-01-15T15:39:47.000Z</time>
      </trkpt>
      <trkpt lat="48.39421" lon="7.26398">
        <ele>1019.19</ele>
        <time>2020-01-15T15:39:57.000Z</time>
      </trkpt>
      <trkpt lat="48.39419" lon="7.26406">
        <ele>1017.51</ele>
        <time>2020-01-15T15:40:07.000Z</time>
      </trkpt>
      <trkpt lat="48.39415" lon="7.26422">
        <ele>1013.45</ele>
        <time>2020-01-15T15:40:17.000Z</time>
      </trkpt>
      <trkpt lat="48.39412" lon="7.26434">
        <ele>1013.19</ele>
        <time>2020-01-15T15:40:27.000Z</time>
      </trkpt>
      <trkpt lat="48.39408" lon="7.26445">
        <ele>1010.21</ele>
        <time>2020-01-15T15:40:37.000Z</time>
      </trkpt>
      <trkpt lat="48.39404" lon="7.26452">
        <ele>1009.19</ele>
        <time>2020-01-15T15:40:47.000Z</time>
      </trkpt>
      <trkpt lat="48.39396" lon="7.26463">
        <ele>1006.96</ele>
        <time>2020-01-15T15:40:57.000Z</time>
      </trkpt>
      <trkpt lat="48.39389" lon="7.2647">
        <ele>1007.13</ele>
        <time>2020-01-15T15:41:07.000Z</time>
      </trkpt>
      <trkpt lat="48.39382" lon="7.26483">
        <ele>1005.26</ele>
        <time>2020-01-15T15:41:17.000Z</time>
      </trkpt>
      <trkpt lat="48.39377" lon="7.26493">
        <ele>1006.19</ele>
        <time>2020-01-15T15:41:27.000Z</time>
      </trkpt>
      <trkpt lat="48.39369" lon="7.26501">
        <ele>1007.18</ele>
        <time>2020-01-15T15:41:37.000Z</time>
      </trkpt>
      <trkpt lat="48.3936" lon="7.26511">
        <ele>1006.19</ele>
        <time>2020-01-15T15:41:47.000Z</time>
      </trkpt>
      <trkpt lat="48.39358" lon="7.26515">
        <ele>1007.19</ele>
        <time>2020-01-15T15:41:57.000Z</time>
      </trkpt>
      <trkpt lat="48.39357" lon="7.26517">
        <ele>1007.94</ele>
        <time>2020-01-15T15:42:07.000Z</time>
      </trkpt>
      <trkpt lat="48.39353" lon="7.26523">
        <ele>1007.24</ele>
        <time>2020-01-15T15:42:17.000Z</time>
      </trkpt>
      <trkpt lat="48.3935" lon="7.26536">
        <ele>1007.19</ele>
        <time>2020-01-15T15:42:27.000Z</time>
      </trkpt>
      <trkpt lat="48.39348" lon="7.26539">
        <ele>1010.13</ele>
        <time>2020-01-15T15:42:37.000Z</time>
      </trkpt>
      <trkpt lat="48.39346" lon="7.26545">
        <ele>1013.19</ele>
        <time>2020-01-15T15:42:47.000Z</time>
      </trkpt>
      <trkpt lat="48.39343" lon="7.26553">
        <ele>1017.94</ele>
        <time>2020-01-15T15:42:57.000Z</time>
      </trkpt>
      <trkpt lat="48.39344" lon="7.26559">
        <ele>1020.88</ele>
        <time>2020-01-15T15:43:07.000Z</time>
      </trkpt>
      <trkpt lat="48.39345" lon="7.26564">
        <ele>1025.19</ele>
        <time>2020-01-15T15:43:17.000Z</time>
      </trkpt>
      <trkpt lat="48.39347" lon="7.26575">
        <ele>1028.88</ele>
        <time>2020-01-15T15:43:27.000Z</time>
      </trkpt>
      <trkpt lat="48.3935" lon="7.26581">
        <ele>1033.13</ele>
        <time>2020-01-15T15:43:37.000Z</time>
      </trkpt>
      <trkpt lat="48.39352" lon="7.26588">
        <ele>1037.17</ele>
        <time>2020-01-15T15:43:47.000Z</time>
      </trkpt>
      <trkpt lat="48.39351" lon="7.26599">
        <ele>1039.19</ele>
        <time>2020-01-15T15:43:57.000Z</time>
      </trkpt>
      <trkpt lat="48.39352" lon="7.26602">
        <ele>1042.88</ele>
        <time>2020-01-15T15:44:07.000Z</time>
      </trkpt>
      <trkpt lat="48.39354" lon="7.26608">
        <ele>1046.13</ele>
        <time>2020-01-15T15:44:17.000Z</time>
      </trkpt>
      <trkpt lat="48.39355" lon="7.26609">
        <ele>1048.19</ele>
        <time>2020-01-15T15:44:27.000Z</time>
      </trkpt>
      <trkpt lat="48.39359" lon="7.26616">
        <ele>1049.19</ele>
        <time>2020-01-15T15:44:37.000Z</time>
      </trkpt>
      <trkpt lat="48.39361" lon="7.26621">
        <ele>1049.24</ele>
        <time>2020-01-15T15:44:47.000Z</time>
      </trkpt>
      <trkpt lat="48.39366" lon="7.26629">
        <ele>1051.99</ele>
        <time>2020-01-15T15:44:57.000Z</time>
      </trkpt>
      <trkpt lat="48.39366" lon="7.26633">
        <ele>1052.19</ele>
        <time>2020-01-15T15:45:07.000Z</time>
      </trkpt>
      <trkpt lat="48.39367" lon="7.26635">
        <ele>1055.19</ele>
        <time>2020-01-15T15:45:17.000Z</time>
      </trkpt>
      <trkpt lat="48.39368" lon="7.26639">
        <ele>1054.44</ele>
        <time>2020-01-15T15:45:28.000Z</time>
      </trkpt>
      <trkpt lat="48.39368" lon="7.2664">
        <ele>1053.19</ele>
        <time>2020-01-15T15:45:38.000Z</time>
      </trkpt>
      <trkpt lat="48.39366" lon="7.26647">
        <ele>1055.13</ele>
        <time>2020-01-15T15:45:48.000Z</time>
      </trkpt>
      <trkpt lat="48.39371" lon="7.26651">
        <ele>1058.12</ele>
        <time>2020-01-15T15:45:58.000Z</time>
      </trkpt>
      <trkpt lat="48.39378" lon="7.26651">
        <ele>1062.13</ele>
        <time>2020-01-15T15:46:08.000Z</time>
      </trkpt>
      <trkpt lat="48.39387" lon="7.26649">
        <ele>1063.19</ele>
        <time>2020-01-15T15:46:18.000Z</time>
      </trkpt>
      <trkpt lat="48.3939" lon="7.26656">
        <ele>1065.2</ele>
        <time>2020-01-15T15:46:28.000Z</time>
      </trkpt>
      <trkpt lat="48.39392" lon="7.26665">
        <ele>1065.26</ele>
        <time>2020-01-15T15:46:38.000Z</time>
      </trkpt>
      <trkpt lat="48.39398" lon="7.26672">
        <ele>1065.44</ele>
        <time>2020-01-15T15:46:48.000Z</time>
      </trkpt>
      <trkpt lat="48.39401" lon="7.2668">
        <ele>1068.19</ele>
        <time>2020-01-15T15:46:58.000Z</time>
      </trkpt>
      <trkpt lat="48.39404" lon="7.26688">
        <ele>1070.01</ele>
        <time>2020-01-15T15:47:08.000Z</time>
      </trkpt>
      <trkpt lat="48.39406" lon="7.26695">
        <ele>1072.19</ele>
        <time>2020-01-15T15:47:18.000Z</time>
      </trkpt>
      <trkpt lat="48.39409" lon="7.26704">
        <ele>1075.13</ele>
        <time>2020-01-15T15:47:28.000Z</time>
      </trkpt>
      <trkpt lat="48.39411" lon="7.26708">
        <ele>1075.21</ele>
        <time>2020-01-15T15:47:38.000Z</time>
      </trkpt>
      <trkpt lat="48.39415" lon="7.26717">
        <ele>1075.19</ele>
        <time>2020-01-15T15:47:48.000Z</time>
      </trkpt>
      <trkpt lat="48.39418" lon="7.26726">
        <ele>1076.13</ele>
        <time>2020-01-15T15:47:58.000Z</time>
      </trkpt>
      <trkpt lat="48.39422" lon="7.26732">
        <ele>1078.94</ele>
        <time>2020-01-15T15:48:08.000Z</time>
      </trkpt>
      <trkpt lat="48.39425" lon="7.26739">
        <ele>1076.26</ele>
        <time>2020-01-15T15:48:18.000Z</time>
      </trkpt>
      <trkpt lat="48.39427" lon="7.26746">
        <ele>1075.2</ele>
        <time>2020-01-15T15:48:28.000Z</time>
      </trkpt>
      <trkpt lat="48.39429" lon="7.26759">
        <ele>1077.94</ele>
        <time>2020-01-15T15:48:38.000Z</time>
      </trkpt>
      <trkpt lat="48.39432" lon="7.26769">
        <ele>1079.13</ele>
        <time>2020-01-15T15:48:48.000Z</time>
      </trkpt>
      <trkpt lat="48.39437" lon="7.26781">
        <ele>1081.94</ele>
        <time>2020-01-15T15:48:58.000Z</time>
      </trkpt>
      <trkpt lat="48.3944" lon="7.26792">
        <ele>1086.17</ele>
        <time>2020-01-15T15:49:08.000Z</time>
      </trkpt>
      <trkpt lat="48.39442" lon="7.26801">
        <ele>1089.13</ele>
        <time>2020-01-15T15:49:18.000Z</time>
      </trkpt>
      <trkpt lat="48.39442" lon="7.26813">
        <ele>1090.18</ele>
        <time>2020-01-15T15:49:28.000Z</time>
      </trkpt>
      <trkpt lat="48.39442" lon="7.26826">
        <ele>1090.2</ele>
        <time>2020-01-15T15:49:38.000Z</time>
      </trkpt>
      <trkpt lat="48.39442" lon="7.26837">
        <ele>1091.2</ele>
        <time>2020-01-15T15:49:48.000Z</time>
      </trkpt>
      <trkpt lat="48.39442" lon="7.26849">
        <ele>1092.13</ele>
        <time>2020-01-15T15:49:58.000Z</time>
      </trkpt>
      <trkpt lat="48.39439" lon="7.2686">
        <ele>1094.18</ele>
        <time>2020-01-15T15:50:08.000Z</time>
      </trkpt>
      <trkpt lat="48.39431" lon="7.26865">
        <ele>1092.2</ele>
        <time>2020-01-15T15:50:18.000Z</time>
      </trkpt>
      <trkpt lat="48.39421" lon="7.26872">
        <ele>1090.45</ele>
        <time>2020-01-15T15:50:28.000Z</time>
      </trkpt>
      <trkpt lat="48.39415" lon="7.26885">
        <ele>1088.26</ele>
        <time>2020-01-15T15:50:38.000Z</time>
      </trkpt>
      <trkpt lat="48.3941" lon="7.26899">
        <ele>1087.2</ele>
        <time>2020-01-15T15:50:48.000Z</time>
      </trkpt>
      <trkpt lat="48.39406" lon="7.2691">
        <ele>1087.2</ele>
        <time>2020-01-15T15:50:58.000Z</time>
      </trkpt>
      <trkpt lat="48.39408" lon="7.26926">
        <ele>1086.95</ele>
        <time>2020-01-15T15:51:08.000Z</time>
      </trkpt>
      <trkpt lat="48.39409" lon="7.2693">
        <ele>1086.2</ele>
        <time>2020-01-15T15:51:18.000Z</time>
      </trkpt>
      <trkpt lat="48.39407" lon="7.26929">
        <ele>1091.16</ele>
        <time>2020-01-15T15:51:28.000Z</time>
      </trkpt>
      <trkpt lat="48.39408" lon="7.2693">
        <ele>1094.92</ele>
        <time>2020-01-15T15:51:54.000Z</time>
      </trkpt>
      <trkpt lat="48.39415" lon="7.2694">
        <ele>1099.94</ele>
        <time>2020-01-15T15:52:04.000Z</time>
      </trkpt>
      <trkpt lat="48.39423" lon="7.26949">
        <ele>1102.24</ele>
        <time>2020-01-15T15:52:14.000Z</time>
      </trkpt>
      <trkpt lat="48.39432" lon="7.26956">
        <ele>1104.19</ele>
        <time>2020-01-15T15:52:24.000Z</time>
      </trkpt>
      <trkpt lat="48.3944" lon="7.26958">
        <ele>1105.94</ele>
        <time>2020-01-15T15:52:34.000Z</time>
      </trkpt>
      <trkpt lat="48.3945" lon="7.26954">
        <ele>1104.45</ele>
        <time>2020-01-15T15:52:44.000Z</time>
      </trkpt>
      <trkpt lat="48.3945" lon="7.26953">
        <ele>1104.13</ele>
        <time>2020-01-15T15:52:55.000Z</time>
      </trkpt>
      <trkpt lat="48.3946" lon="7.26946">
        <ele>1103.2</ele>
        <time>2020-01-15T15:53:05.000Z</time>
      </trkpt>
      <trkpt lat="48.3947" lon="7.26934">
        <ele>1103.2</ele>
        <time>2020-01-15T15:53:15.000Z</time>
      </trkpt>
      <trkpt lat="48.39477" lon="7.26924">
        <ele>1102.2</ele>
        <time>2020-01-15T15:53:25.000Z</time>
      </trkpt>
      <trkpt lat="48.39484" lon="7.26912">
        <ele>1101.2</ele>
        <time>2020-01-15T15:53:35.000Z</time>
      </trkpt>
      <trkpt lat="48.39492" lon="7.26899">
        <ele>1101.19</ele>
        <time>2020-01-15T15:53:45.000Z</time>
      </trkpt>
      <trkpt lat="48.39502" lon="7.2689">
        <ele>1099.45</ele>
        <time>2020-01-15T15:53:55.000Z</time>
      </trkpt>
      <trkpt lat="48.39511" lon="7.2688">
        <ele>1098.2</ele>
        <time>2020-01-15T15:54:05.000Z</time>
      </trkpt>
      <trkpt lat="48.39521" lon="7.26869">
        <ele>1098.2</ele>
        <time>2020-01-15T15:54:15.000Z</time>
      </trkpt>
      <trkpt lat="48.39532" lon="7.26859">
        <ele>1097.45</ele>
        <time>2020-01-15T15:54:25.000Z</time>
      </trkpt>
      <trkpt lat="48.39541" lon="7.2685">
        <ele>1096.2</ele>
        <time>2020-01-15T15:54:35.000Z</time>
      </trkpt>
      <trkpt lat="48.39552" lon="7.2684">
        <ele>1096.19</ele>
        <time>2020-01-15T15:54:45.000Z</time>
      </trkpt>
      <trkpt lat="48.39562" lon="7.26831">
        <ele>1095.24</ele>
        <time>2020-01-15T15:54:55.000Z</time>
      </trkpt>
      <trkpt lat="48.39572" lon="7.2682">
        <ele>1096.14</ele>
        <time>2020-01-15T15:55:05.000Z</time>
      </trkpt>
      <trkpt lat="48.39581" lon="7.2681">
        <ele>1096.2</ele>
        <time>2020-01-15T15:55:15.000Z</time>
      </trkpt>
      <trkpt lat="48.39592" lon="7.26801">
        <ele>1095.15</ele>
        <time>2020-01-15T15:55:25.000Z</time>
      </trkpt>
      <trkpt lat="48.39602" lon="7.26792">
        <ele>1093.45</ele>
        <time>2020-01-15T15:55:35.000Z</time>
      </trkpt>
      <trkpt lat="48.3961" lon="7.26784">
        <ele>1091.45</ele>
        <time>2020-01-15T15:55:45.000Z</time>
      </trkpt>
      <trkpt lat="48.39619" lon="7.26774">
        <ele>1090.45</ele>
        <time>2020-01-15T15:55:55.000Z</time>
      </trkpt>
      <trkpt lat="48.39631" lon="7.26763">
        <ele>1090.2</ele>
        <time>2020-01-15T15:56:05.000Z</time>
      </trkpt>
      <trkpt lat="48.39643" lon="7.26754">
        <ele>1089.2</ele>
        <time>2020-01-15T15:56:15.000Z</time>
      </trkpt>
      <trkpt lat="48.39652" lon="7.26744">
        <ele>1089.26</ele>
        <time>2020-01-15T15:56:25.000Z</time>
      </trkpt>
      <trkpt lat="48.39663" lon="7.26736">
        <ele>1088.15</ele>
        <time>2020-01-15T15:56:35.000Z</time>
      </trkpt>
      <trkpt lat="48.39673" lon="7.26727">
        <ele>1088.2</ele>
        <time>2020-01-15T15:56:45.000Z</time>
      </trkpt>
      <trkpt lat="48.39684" lon="7.26719">
        <ele>1087.45</ele>
        <time>2020-01-15T15:56:55.000Z</time>
      </trkpt>
      <trkpt lat="48.39694" lon="7.2671">
        <ele>1087.19</ele>
        <time>2020-01-15T15:57:05.000Z</time>
      </trkpt>
      <trkpt lat="48.39705" lon="7.26704">
        <ele>1087.44</ele>
        <time>2020-01-15T15:57:15.000Z</time>
      </trkpt>
      <trkpt lat="48.39716" lon="7.26697">
        <ele>1088.2</ele>
        <time>2020-01-15T15:57:25.000Z</time>
      </trkpt>
      <trkpt lat="48.39725" lon="7.26688">
        <ele>1087.21</ele>
        <time>2020-01-15T15:57:35.000Z</time>
      </trkpt>
      <trkpt lat="48.39732" lon="7.26678">
        <ele>1086.2</ele>
        <time>2020-01-15T15:57:45.000Z</time>
      </trkpt>
      <trkpt lat="48.39732" lon="7.26675">
        <ele>1086.2</ele>
        <time>2020-01-15T15:57:55.000Z</time>
      </trkpt>
      <trkpt lat="48.39734" lon="7.2666">
        <ele>1085.45</ele>
        <time>2020-01-15T15:58:05.000Z</time>
      </trkpt>
      <trkpt lat="48.39738" lon="7.26643">
        <ele>1085.21</ele>
        <time>2020-01-15T15:58:15.000Z</time>
      </trkpt>
      <trkpt lat="48.39746" lon="7.26631">
        <ele>1085.2</ele>
        <time>2020-01-15T15:58:25.000Z</time>
      </trkpt>
      <trkpt lat="48.39753" lon="7.26626">
        <ele>1086.2</ele>
        <time>2020-01-15T15:58:35.000Z</time>
      </trkpt>
      <trkpt lat="48.3976" lon="7.26622">
        <ele>1084.45</ele>
        <time>2020-01-15T15:58:45.000Z</time>
      </trkpt>
      <trkpt lat="48.39768" lon="7.26618">
        <ele>1084.2</ele>
        <time>2020-01-15T15:58:55.000Z</time>
      </trkpt>
      <trkpt lat="48.39779" lon="7.2661">
        <ele>1085.2</ele>
        <time>2020-01-15T15:59:05.000Z</time>
      </trkpt>
      <trkpt lat="48.3979" lon="7.26605">
        <ele>1085.2</ele>
        <time>2020-01-15T15:59:15.000Z</time>
      </trkpt>
      <trkpt lat="48.39802" lon="7.26597">
        <ele>1086.2</ele>
        <time>2020-01-15T15:59:25.000Z</time>
      </trkpt>
      <trkpt lat="48.39812" lon="7.26589">
        <ele>1086.2</ele>
        <time>2020-01-15T15:59:35.000Z</time>
      </trkpt>
      <trkpt lat="48.39823" lon="7.26581">
        <ele>1085.45</ele>
        <time>2020-01-15T15:59:45.000Z</time>
      </trkpt>
      <trkpt lat="48.39833" lon="7.26574">
        <ele>1085.2</ele>
        <time>2020-01-15T15:59:55.000Z</time>
      </trkpt>
      <trkpt lat="48.39843" lon="7.26566">
        <ele>1086.2</ele>
        <time>2020-01-15T16:00:05.000Z</time>
      </trkpt>
      <trkpt lat="48.39852" lon="7.26557">
        <ele>1087.19</ele>
        <time>2020-01-15T16:00:15.000Z</time>
      </trkpt>
      <trkpt lat="48.39854" lon="7.26555">
        <ele>1086.2</ele>
        <time>2020-01-15T16:00:25.000Z</time>
      </trkpt>
      <trkpt lat="48.39855" lon="7.26556">
        <ele>1086.2</ele>
        <time>2020-01-15T16:01:09.000Z</time>
      </trkpt>
      <trkpt lat="48.39865" lon="7.26549">
        <ele>1087.14</ele>
        <time>2020-01-15T16:01:19.000Z</time>
      </trkpt>
      <trkpt lat="48.39873" lon="7.26539">
        <ele>1085.2</ele>
        <time>2020-01-15T16:01:29.000Z</time>
      </trkpt>
      <trkpt lat="48.39879" lon="7.26535">
        <ele>1085.2</ele>
        <time>2020-01-15T16:01:39.000Z</time>
      </trkpt>
      <trkpt lat="48.3988" lon="7.26533">
        <ele>1085.2</ele>
        <time>2020-01-15T16:02:11.000Z</time>
      </trkpt>
      <trkpt lat="48.39889" lon="7.26526">
        <ele>1086.18</ele>
        <time>2020-01-15T16:02:21.000Z</time>
      </trkpt>
      <trkpt lat="48.39898" lon="7.26517">
        <ele>1085.2</ele>
        <time>2020-01-15T16:02:31.000Z</time>
      </trkpt>
      <trkpt lat="48.39909" lon="7.26508">
        <ele>1085.2</ele>
        <time>2020-01-15T16:02:41.000Z</time>
      </trkpt>
      <trkpt lat="48.39918" lon="7.265">
        <ele>1084.2</ele>
        <time>2020-01-15T16:02:51.000Z</time>
      </trkpt>
      <trkpt lat="48.39929" lon="7.26494">
        <ele>1083.2</ele>
        <time>2020-01-15T16:03:01.000Z</time>
      </trkpt>
      <trkpt lat="48.39939" lon="7.26486">
        <ele>1083.2</ele>
        <time>2020-01-15T16:03:11.000Z</time>
      </trkpt>
      <trkpt lat="48.39949" lon="7.26479">
        <ele>1083.14</ele>
        <time>2020-01-15T16:03:21.000Z</time>
      </trkpt>
      <trkpt lat="48.3996" lon="7.26472">
        <ele>1080.45</ele>
        <time>2020-01-15T16:03:31.000Z</time>
      </trkpt>
      <trkpt lat="48.3997" lon="7.26465">
        <ele>1081.2</ele>
        <time>2020-01-15T16:03:41.000Z</time>
      </trkpt>
      <trkpt lat="48.39981" lon="7.26459">
        <ele>1079.45</ele>
        <time>2020-01-15T16:03:51.000Z</time>
      </trkpt>
      <trkpt lat="48.3999" lon="7.26447">
        <ele>1078.21</ele>
        <time>2020-01-15T16:04:01.000Z</time>
      </trkpt>
      <trkpt lat="48.39999" lon="7.26437">
        <ele>1077.2</ele>
        <time>2020-01-15T16:04:11.000Z</time>
      </trkpt>
      <trkpt lat="48.40009" lon="7.26429">
        <ele>1076.26</ele>
        <time>2020-01-15T16:04:21.000Z</time>
      </trkpt>
      <trkpt lat="48.40018" lon="7.2642">
        <ele>1074.95</ele>
        <time>2020-01-15T16:04:31.000Z</time>
      </trkpt>
      <trkpt lat="48.40027" lon="7.26411">
        <ele>1075.26</ele>
        <time>2020-01-15T16:04:41.000Z</time>
      </trkpt>
      <trkpt lat="48.40037" lon="7.26402">
        <ele>1074.26</ele>
        <time>2020-01-15T16:04:51.000Z</time>
      </trkpt>
      <trkpt lat="48.40048" lon="7.26393">
        <ele>1074.2</ele>
        <time>2020-01-15T16:05:01.000Z</time>
      </trkpt>
      <trkpt lat="48.40059" lon="7.26384">
        <ele>1074.14</ele>
        <time>2020-01-15T16:05:11.000Z</time>
      </trkpt>
      <trkpt lat="48.40069" lon="7.26375">
        <ele>1072.21</ele>
        <time>2020-01-15T16:05:21.000Z</time>
      </trkpt>
      <trkpt lat="48.40078" lon="7.26368">
        <ele>1070.2</ele>
        <time>2020-01-15T16:05:31.000Z</time>
      </trkpt>
      <trkpt lat="48.40087" lon="7.2636">
        <ele>1069.2</ele>
        <time>2020-01-15T16:05:41.000Z</time>
      </trkpt>
      <trkpt lat="48.40097" lon="7.26353">
        <ele>1067.45</ele>
        <time>2020-01-15T16:05:51.000Z</time>
      </trkpt>
      <trkpt lat="48.40106" lon="7.26345">
        <ele>1066.26</ele>
        <time>2020-01-15T16:06:01.000Z</time>
      </trkpt>
      <trkpt lat="48.40116" lon="7.26337">
        <ele>1064.45</ele>
        <time>2020-01-15T16:06:11.000Z</time>
      </trkpt>
      <trkpt lat="48.40125" lon="7.26329">
        <ele>1064.2</ele>
        <time>2020-01-15T16:06:21.000Z</time>
      </trkpt>
      <trkpt lat="48.40134" lon="7.26322">
        <ele>1062.45</ele>
        <time>2020-01-15T16:06:31.000Z</time>
      </trkpt>
      <trkpt lat="48.40144" lon="7.26315">
        <ele>1062.18</ele>
        <time>2020-01-15T16:06:41.000Z</time>
      </trkpt>
      <trkpt lat="48.40154" lon="7.26306">
        <ele>1062.2</ele>
        <time>2020-01-15T16:06:51.000Z</time>
      </trkpt>
      <trkpt lat="48.40162" lon="7.26299">
        <ele>1061.2</ele>
        <time>2020-01-15T16:07:01.000Z</time>
      </trkpt>
      <trkpt lat="48.40172" lon="7.26292">
        <ele>1060.2</ele>
        <time>2020-01-15T16:07:11.000Z</time>
      </trkpt>
      <trkpt lat="48.40181" lon="7.26284">
        <ele>1058.2</ele>
        <time>2020-01-15T16:07:21.000Z</time>
      </trkpt>
      <trkpt lat="48.40189" lon="7.26275">
        <ele>1057.26</ele>
        <time>2020-01-15T16:07:31.000Z</time>
      </trkpt>
      <trkpt lat="48.40197" lon="7.26266">
        <ele>1055.46</ele>
        <time>2020-01-15T16:07:41.000Z</time>
      </trkpt>
      <trkpt lat="48.40207" lon="7.26259">
        <ele>1054.2</ele>
        <time>2020-01-15T16:07:51.000Z</time>
      </trkpt>
      <trkpt lat="48.40214" lon="7.26254">
        <ele>1054.22</ele>
        <time>2020-01-15T16:08:01.000Z</time>
      </trkpt>
      <trkpt lat="48.40222" lon="7.26247">
        <ele>1051.26</ele>
        <time>2020-01-15T16:08:11.000Z</time>
      </trkpt>
      <trkpt lat="48.4023" lon="7.26238">
        <ele>1051.22</ele>
        <time>2020-01-15T16:08:21.000Z</time>
      </trkpt>
      <trkpt lat="48.4024" lon="7.26233">
        <ele>1050.2</ele>
        <time>2020-01-15T16:08:31.000Z</time>
      </trkpt>
      <trkpt lat="48.4025" lon="7.26227">
        <ele>1049.2</ele>
        <time>2020-01-15T16:08:41.000Z</time>
      </trkpt>
      <trkpt lat="48.40257" lon="7.26219">
        <ele>1049.22</ele>
        <time>2020-01-15T16:08:51.000Z</time>
      </trkpt>
      <trkpt lat="48.40265" lon="7.26212">
        <ele>1046.21</ele>
        <time>2020-01-15T16:09:01.000Z</time>
      </trkpt>
      <trkpt lat="48.40273" lon="7.26205">
        <ele>1045.2</ele>
        <time>2020-01-15T16:09:11.000Z</time>
      </trkpt>
      <trkpt lat="48.4028" lon="7.26193">
        <ele>1043.2</ele>
        <time>2020-01-15T16:09:21.000Z</time>
      </trkpt>
      <trkpt lat="48.40287" lon="7.26181">
        <ele>1042.26</ele>
        <time>2020-01-15T16:09:31.000Z</time>
      </trkpt>
      <trkpt lat="48.40296" lon="7.26171">
        <ele>1041.44</ele>
        <time>2020-01-15T16:09:41.000Z</time>
      </trkpt>
      <trkpt lat="48.40302" lon="7.26157">
        <ele>1041.2</ele>
        <time>2020-01-15T16:09:51.000Z</time>
      </trkpt>
      <trkpt lat="48.40307" lon="7.26144">
        <ele>1039.45</ele>
        <time>2020-01-15T16:10:01.000Z</time>
      </trkpt>
      <trkpt lat="48.40312" lon="7.2613">
        <ele>1039.2</ele>
        <time>2020-01-15T16:10:11.000Z</time>
      </trkpt>
      <trkpt lat="48.40318" lon="7.26117">
        <ele>1038.2</ele>
        <time>2020-01-15T16:10:21.000Z</time>
      </trkpt>
      <trkpt lat="48.40325" lon="7.26104">
        <ele>1036.46</ele>
        <time>2020-01-15T16:10:31.000Z</time>
      </trkpt>
      <trkpt lat="48.40329" lon="7.26091">
        <ele>1035.2</ele>
        <time>2020-01-15T16:10:41.000Z</time>
      </trkpt>
      <trkpt lat="48.40335" lon="7.26079">
        <ele>1033.26</ele>
        <time>2020-01-15T16:10:51.000Z</time>
      </trkpt>
      <trkpt lat="48.40341" lon="7.26065">
        <ele>1031.2</ele>
        <time>2020-01-15T16:11:01.000Z</time>
      </trkpt>
      <trkpt lat="48.40346" lon="7.26052">
        <ele>1029.46</ele>
        <time>2020-01-15T16:11:11.000Z</time>
      </trkpt>
      <trkpt lat="48.4035" lon="7.26041">
        <ele>1028.26</ele>
        <time>2020-01-15T16:11:21.000Z</time>
      </trkpt>
      <trkpt lat="48.40351" lon="7.26039">
        <ele>1028.95</ele>
        <time>2020-01-15T16:12:02.000Z</time>
      </trkpt>
      <trkpt lat="48.40357" lon="7.26027">
        <ele>1028.14</ele>
        <time>2020-01-15T16:12:12.000Z</time>
      </trkpt>
      <trkpt lat="48.40364" lon="7.26014">
        <ele>1026.2</ele>
        <time>2020-01-15T16:12:22.000Z</time>
      </trkpt>
      <trkpt lat="48.40371" lon="7.26">
        <ele>1026.22</ele>
        <time>2020-01-15T16:12:32.000Z</time>
      </trkpt>
      <trkpt lat="48.40376" lon="7.25988">
        <ele>1025.15</ele>
        <time>2020-01-15T16:12:42.000Z</time>
      </trkpt>
      <trkpt lat="48.40383" lon="7.25975">
        <ele>1024.2</ele>
        <time>2020-01-15T16:12:52.000Z</time>
      </trkpt>
      <trkpt lat="48.40388" lon="7.25963">
        <ele>1022.45</ele>
        <time>2020-01-15T16:13:02.000Z</time>
      </trkpt>
      <trkpt lat="48.40393" lon="7.25951">
        <ele>1020.22</ele>
        <time>2020-01-15T16:13:12.000Z</time>
      </trkpt>
      <trkpt lat="48.40401" lon="7.25936">
        <ele>1018.21</ele>
        <time>2020-01-15T16:13:22.000Z</time>
      </trkpt>
      <trkpt lat="48.40408" lon="7.25925">
        <ele>1017.2</ele>
        <time>2020-01-15T16:13:32.000Z</time>
      </trkpt>
      <trkpt lat="48.40417" lon="7.25922">
        <ele>1016.22</ele>
        <time>2020-01-15T16:13:42.000Z</time>
      </trkpt>
      <trkpt lat="48.40427" lon="7.25921">
        <ele>1013.28</ele>
        <time>2020-01-15T16:13:52.000Z</time>
      </trkpt>
      <trkpt lat="48.40438" lon="7.25918">
        <ele>1013.2</ele>
        <time>2020-01-15T16:14:02.000Z</time>
      </trkpt>
      <trkpt lat="48.40449" lon="7.25915">
        <ele>1012.2</ele>
        <time>2020-01-15T16:14:12.000Z</time>
      </trkpt>
      <trkpt lat="48.40459" lon="7.25914">
        <ele>1012.39</ele>
        <time>2020-01-15T16:14:22.000Z</time>
      </trkpt>
      <trkpt lat="48.4047" lon="7.25912">
        <ele>1012.25</ele>
        <time>2020-01-15T16:14:32.000Z</time>
      </trkpt>
      <trkpt lat="48.40482" lon="7.25916">
        <ele>1012.2</ele>
        <time>2020-01-15T16:14:42.000Z</time>
      </trkpt>
      <trkpt lat="48.40494" lon="7.25912">
        <ele>1010.45</ele>
        <time>2020-01-15T16:14:52.000Z</time>
      </trkpt>
      <trkpt lat="48.40505" lon="7.25911">
        <ele>1012.2</ele>
        <time>2020-01-15T16:15:02.000Z</time>
      </trkpt>
      <trkpt lat="48.40517" lon="7.25913">
        <ele>1011.2</ele>
        <time>2020-01-15T16:15:12.000Z</time>
      </trkpt>
      <trkpt lat="48.40528" lon="7.25909">
        <ele>1011.2</ele>
        <time>2020-01-15T16:15:22.000Z</time>
      </trkpt>
      <trkpt lat="48.40538" lon="7.25903">
        <ele>1010.2</ele>
        <time>2020-01-15T16:15:32.000Z</time>
      </trkpt>
      <trkpt lat="48.40548" lon="7.25898">
        <ele>1010.14</ele>
        <time>2020-01-15T16:15:42.000Z</time>
      </trkpt>
      <trkpt lat="48.40557" lon="7.25894">
        <ele>1008.47</ele>
        <time>2020-01-15T16:15:52.000Z</time>
      </trkpt>
      <trkpt lat="48.4057" lon="7.25891">
        <ele>1008.39</ele>
        <time>2020-01-15T16:16:02.000Z</time>
      </trkpt>
      <trkpt lat="48.40582" lon="7.25888">
        <ele>1008.2</ele>
        <time>2020-01-15T16:16:12.000Z</time>
      </trkpt>
      <trkpt lat="48.40586" lon="7.259">
        <ele>1008.2</ele>
        <time>2020-01-15T16:16:22.000Z</time>
      </trkpt>
      <trkpt lat="48.40587" lon="7.25917">
        <ele>1007.2</ele>
        <time>2020-01-15T16:16:32.000Z</time>
      </trkpt>
      <trkpt lat="48.40589" lon="7.25929">
        <ele>1005.21</ele>
        <time>2020-01-15T16:16:42.000Z</time>
      </trkpt>
      <trkpt lat="48.40593" lon="7.25931">
        <ele>1006.2</ele>
        <time>2020-01-15T16:16:52.000Z</time>
      </trkpt>
      <trkpt lat="48.40604" lon="7.25926">
        <ele>1006.19</ele>
        <time>2020-01-15T16:17:02.000Z</time>
      </trkpt>
      <trkpt lat="48.40603" lon="7.25927">
        <ele>1006.39</ele>
        <time>2020-01-15T16:17:12.000Z</time>
      </trkpt>
      <trkpt lat="48.40606" lon="7.25943">
        <ele>1006.2</ele>
        <time>2020-01-15T16:17:22.000Z</time>
      </trkpt>
      <trkpt lat="48.40613" lon="7.2595">
        <ele>1005.45</ele>
        <time>2020-01-15T16:17:32.000Z</time>
      </trkpt>
      <trkpt lat="48.40622" lon="7.25961">
        <ele>1005.45</ele>
        <time>2020-01-15T16:17:42.000Z</time>
      </trkpt>
      <trkpt lat="48.40628" lon="7.25976">
        <ele>1004.97</ele>
        <time>2020-01-15T16:17:52.000Z</time>
      </trkpt>
      <trkpt lat="48.40638" lon="7.25983">
        <ele>1005.2</ele>
        <time>2020-01-15T16:18:02.000Z</time>
      </trkpt>
      <trkpt lat="48.40649" lon="7.25988">
        <ele>1004.2</ele>
        <time>2020-01-15T16:18:12.000Z</time>
      </trkpt>
      <trkpt lat="48.4066" lon="7.25979">
        <ele>1003.21</ele>
        <time>2020-01-15T16:18:22.000Z</time>
      </trkpt>
      <trkpt lat="48.40671" lon="7.25979">
        <ele>1003.02</ele>
        <time>2020-01-15T16:18:32.000Z</time>
      </trkpt>
      <trkpt lat="48.40681" lon="7.25974">
        <ele>1002.26</ele>
        <time>2020-01-15T16:18:42.000Z</time>
      </trkpt>
      <trkpt lat="48.40687" lon="7.25959">
        <ele>1002.2</ele>
        <time>2020-01-15T16:18:52.000Z</time>
      </trkpt>
      <trkpt lat="48.40693" lon="7.25944">
        <ele>1000.46</ele>
        <time>2020-01-15T16:19:02.000Z</time>
      </trkpt>
      <trkpt lat="48.40693" lon="7.25928">
        <ele>1000.95</ele>
        <time>2020-01-15T16:19:12.000Z</time>
      </trkpt>
      <trkpt lat="48.40696" lon="7.25927">
        <ele>1000.45</ele>
        <time>2020-01-15T16:19:50.000Z</time>
      </trkpt>
      <trkpt lat="48.40693" lon="7.2593">
        <ele>1001.2</ele>
        <time>2020-01-15T16:20:00.000Z</time>
      </trkpt>
      <trkpt lat="48.4069" lon="7.25927">
        <ele>1001.2</ele>
        <time>2020-01-15T16:20:10.000Z</time>
      </trkpt>
      <trkpt lat="48.40691" lon="7.25928">
        <ele>1001.95</ele>
        <time>2020-01-15T16:20:23.000Z</time>
      </trkpt>
      <trkpt lat="48.40691" lon="7.25931">
        <ele>1000.7</ele>
        <time>2020-01-15T16:20:44.000Z</time>
      </trkpt>
      <trkpt lat="48.40691" lon="7.25932">
        <ele>999.2</ele>
        <time>2020-01-15T16:20:58.000Z</time>
      </trkpt>
    </trkseg>
  </trk>
</gpx>